     2              OBSERVATION DATA    GPS                 RINEX VERSION / TYPE
teqc 1997Jul24 19970814                                     PGM / RUN BY / DATE
                                                            COMMENT
BIT 2 OF LLI FLAGS DATA COLLECTED UNDER A-S CONDITION       COMMENT
BIT 2 OF LLI FLAGS DATA COLLECTED UNDER A-S CONDITION       COMMENT
Original Marker Name: PAVE                                  COMMENT
Campaign Name: hpgn california 1991                         COMMENT
4-Character Station Name: PAVE                              COMMENT
6-Character Antenna Code: TRMSST                            COMMENT
Vertical Measurement Point: BPA                             COMMENT
Vertical Offset to Rinex Ref. Point: 0.0000                 COMMENT
Radial Measurement Point: RRP                               COMMENT
Radial Offset to Rinex Ref. Point: 0.0000                   COMMENT
Antenna Height from Field Measurement: 2.2200 m             COMMENT
Original XYZ: -2229995.5058 -4837949.8429 3495788.2495      COMMENT
New XYZ position is based on association with SCEC monument COMMENT
E1D1D7E7+0011. Position of that monument is believed to be  COMMENT
valid to within 1 m horizontally; vertical accuracy         COMMENT
should be no worse than 3-times this value.                 COMMENT
                                                            COMMENT
Revised Rinex header created by UCSD GPS archive for        COMMENT
GSAC on 14-Apr-1999 (1999:104) 22:14:17 GMT                 COMMENT
For assistance contact dagnew@ucsd.edu or hjohnson@ucsd.edu COMMENT
                                                            COMMENT
PALO VERDE 1935                                             MARKER NAME
unknown CALIF DEPT TRANSPORTATION                           OBSERVER / AGENCY
621 TRIMBLE 4000 SST NP 4.30 / SP 4.20                      REC # / TYPE / VERS
9 TR 4000SST L1/L2 GEO                                      ANT # / TYPE
 -2229995.0000 -4837943.0000  3495781.0000                  APPROX POSITION XYZ
        2.2200        0.0000        0.0000                  ANTENNA: DELTA H/E/N
     1     1     0                                          WAVELENGTH FACT L1/2
     3    C1    L1    L2                                    # / TYPES OF OBSERV
     0                                                      INTERVAL
  1991     4    11    20    45   45.000000                  TIME OF FIRST OBS
  1991     4    12     2    50   30.000000                  TIME OF LAST OBS
     0                                                      # OF SATELLITES
                                                            END OF HEADER
 91  4 11 20 45 45.0000000  0  4G18G 2G11G19
  20671665.4614         -0.74458
  23971647.9844         -0.93455
  23491493.070          -0.03816
  21044929.984          -0.80317
 91  4 11 20 46  0.0000000  0  4G18G 2G11G19
  20673032.258        7182.228 8        -0.17133
  23961210.070      -54855.281 5
  23484189.5474     -38389.83046
  21042125.258      -14741.749 7        -0.13833
 91  4 11 20 46 15.0000000  0  4G18G 2G11G19
  20674411.7344      14431.91848      5648.90863
  23950769.602     -109712.900 5        -0.01331
  23476895.297      -76725.255 6        -0.14731
  21039318.109      -29493.482 7    -11494.96923
 91  4 11 20 46 30.0000000  0  4G18G 2G11G19
  20675806.797       21762.577 8     11361.08823
  23940332.3054    -164559.65845    -42737.56561
  23469612.9924    -114991.73446    -29818.06361
  21036510.266      -44241.973 7    -22987.28622
 91  4 11 20 46 45.0000000  0  4G18G 2G11G19
  20677219.836       29186.329 8     17145.80523
  23929900.8364    -219383.19145    -85457.00161
  23462345.6094    -153176.83046    -59572.56661
  21033707.445      -58975.053 7    -34467.58623
 91  4 11 20 47  0.0000000  0  4G18G 2G11G19
  20678651.3984      36710.99548     23009.15263
  23919473.805     -274175.501 5   -128152.11821
  23455095.5944    -191272.46546    -89257.35361
  21030908.234      -73684.985 7    -45929.84523
 91  4 11 20 47 15.0000000  0  4G18G 2G11G19
  20680101.7814      44334.83948     28949.78363
  23909052.547     -328938.081 5   -170824.06521
  23447862.250     -229279.858 6   -118873.39421
  21028114.750      -88373.320 7    -57375.28023
 91  4 11 20 47 30.0000000  0  4G18G 2G11G19
  20681572.3834      52057.31148     34967.26363
  23898637.5554    -383671.37445   -213473.19461
  23440648.719     -267199.193 6   -148420.82021
  21025321.930     -103040.621 7    -68804.33023
 91  4 11 20 47 45.0000000  0  4G18G 2G11G19
  20683061.8444      59887.77348     41068.89263
  23888229.9304    -438365.77145   -256092.02361
  23433450.586     -305020.732 6   -177892.03821
  21022536.930     -117677.438 7    -80209.61923
 91  4 11 20 48  0.0000000  0  4G18G 2G11G19
  20684573.3364      67831.74648     47258.97263
  23877827.852     -493015.531 5   -298676.06021
  23426274.188     -342738.504 6   -207282.40221
  21019761.719     -132278.112 7    -91586.74523
 91  4 11 20 48 15.0000000  0  4G18G 2G11G19
  20686106.7194      75887.76348     53536.35963
  23867437.508     -547622.007 5   -341226.37421
  23419116.7194    -380353.76146   -236592.87861
  21016986.250     -146844.296 7   -102937.00223
 91  4 11 20 48 30.0000000  0  4G18G 2G11G19
  20687662.0784      84056.59948     59901.65663
  23857055.2584    -602184.24945   -383742.21761
  23411977.375     -417865.271 6   -265822.51921
  21014224.008     -161375.052 6   -114259.65023
 91  4 11 20 48 45.0000000  0  4G18G 2G11G19
  20689241.5234      92362.46448     66373.73063
  23846684.703     -656677.700 5   -426204.45321
  23404863.094     -455248.351 6   -294952.08321
  21011468.531     -175846.147 7   -125535.80723
 91  4 11 20 49  0.0000000  0  4G18G 2G11G19
  20690844.9844     100791.27548     72941.60463
  23836324.8984    -711116.42345   -468624.05461
  23397770.195     -492516.679 6   -323992.23621
  21008721.320     -190271.635 7   -136776.43023
 91  4 11 20 49 15.0000000  0  4G18G 2G11G19
  20692470.5474     109328.69748     79594.10763
  23825972.453     -765514.390 5   -511011.88721
  23390698.344     -529684.194 6   -352953.83221
  21005983.766     -204665.656 7   -147992.53323
 91  4 11 20 49 30.0000000  0  4G18G 2G11G19
  20694118.1254     117985.80948     86339.88063
  23815632.4144    -819860.49845   -553359.32961
  23383647.1094    -566739.53946   -381828.02561
  21003252.492     -219017.140 7   -159175.49523
 91  4 11 20 49 45.0000000  0  4G18G 2G11G19
  20695786.6484     126758.31748     93175.56663
  23805299.0004    -874158.99345   -595669.66461
  23376616.195     -603686.769 6   -410617.95921
  21000528.547     -233330.298 7   -170328.58923
 91  4 11 20 50  0.0000000  0  4G18G 2G11G19
  20697478.8444     135646.35448    100101.28063
  23794974.781     -928409.553 5   -637942.63021
  23369605.273     -640525.363 6   -439323.25721
  20997812.984     -247605.254 7   -181451.91423
 91  4 11 20 50 15.0000000  0  4G18G 2G11G19
  20699193.7424     144658.22448    107123.48163
  23784664.219     -982603.352 5   -680171.40021
  23362617.930     -677246.392 6   -467936.94121
  20995106.195     -261833.369 7   -192538.74323
 91  4 11 20 50 30.0000000  0  4G18G 2G11G19
  20700932.2034     153793.40548    114241.77463
  23774359.4774   -1036740.79845   -722356.24861
  23355652.844     -713850.126 6   -496459.21821
  20992407.555     -276015.118 7   -203589.44523
 91  4 11 20 50 45.0000000  0  4G18G 2G11G19
  20702696.1644     163060.65048    121462.97063
  23764071.102    -1090813.263 5   -764490.43121
  23348711.000     -750327.494 6   -524883.04021
  20989717.859     -290141.731 7   -214597.18123
 91  4 11 20 51  0.0000000  0  4G18G 2G11G19
  20704483.0084     172445.26148    128775.62063
  23753791.648    -1144835.001 5   -806585.13321
  23341789.188     -786692.844 6   -553219.57721
  20987037.5944    -304227.86847   -225573.38163
 91  4 11 20 51 15.0000000  0  4G18G 2G11G19
  20706289.9694     181947.13048    136179.64163
  23743519.8054   -1198806.06345   -848640.32261
  23334892.063     -822945.886 6   -581468.59121
  20984366.1724    -318273.76047   -236518.22163
 91  4 11 20 51 30.0000000  0  4G18G 2G11G19
  20708120.3754     191567.21448    143675.77963
  23733260.1024   -1252725.21245   -890655.05361
  23328014.250     -859085.127 6   -609628.94121
  20981701.8984    -332278.17047   -247430.73963
 91  4 11 20 51 45.0000000  0  4G18G 2G11G19
  20709973.8524     201307.31548    151265.43163
  23723009.3674   -1306590.32245   -932627.69261
  23321159.0474    -895108.39246   -637698.91661
  20979042.7894    -346239.13247   -258309.39963
 91  4 11 20 52  0.0000000  0  4G18G 2G11G19
  20711849.0164     211162.49448    158944.76163
  23712768.7194   -1360406.19945   -974561.96861
  23314328.578     -931020.405 6   -665682.19821
  20976393.7814    -360161.50347   -269157.99263
 91  4 11 20 52 15.0000000  0  4G18G 2G11G19
  20713746.0394     221131.57548    166712.83963
  23702536.7194   -1414174.00345  -1016458.77661
  23307512.930     -966821.926 6   -693579.38221
  20973750.9304    -374046.63847   -279977.57063
 91  4 11 20 52 30.0000000  0  4G18G 2G11G19
  20715666.8444     231223.21948    174576.42363
  23692315.156    -1467884.691 5  -1058311.09521
  23300720.789    -1002503.633 6   -721383.19821
  20971118.1484    -387885.55847   -290761.13463
 91  4 11 20 52 45.0000000  0  4G18G 2G11G19
  20717609.2344     241431.58748    182530.96063
  23682103.8364   -1521544.10546  -1100123.43961
  23293955.719    -1038071.107 6   -749098.00521
  20968491.9454    -401684.13947   -301513.26763
 91  4 11 20 53  0.0000000  0  4G18G 2G11G19
  20719574.7814     251760.63348    190579.53163
  23671905.094    -1575147.895 6  -1141892.45021
  23287207.305    -1073519.956 6   -776720.37821
  20965875.6334    -415438.27047   -312230.76463
 91  4 11 20 53 15.0000000  0  4G18G 2G11G19
  20721563.3054     262208.13248    198720.40563
  23661713.656    -1628698.642 5  -1183620.13821
  23280484.727    -1108852.446 6   -804252.07821
  20963266.0554    -429150.59247   -322915.68063
 91  4 11 20 53 30.0000000  0  4G18G 2G11G19
  20723574.2664     272775.23448    206954.47563
  23651533.7194   -1682194.80046  -1225305.27361
  23273783.563    -1144067.053 6   -831691.93321
  20960666.1644    -442819.77147   -333566.97863
 91  4 11 20 53 45.0000000  0  4G18G 2G11G19
  20725607.4534     283458.83348    215279.32363
  23641363.7274   -1735639.35345  -1266950.19661
  23267104.0704   -1179166.50846   -859042.06661
  20958071.7814    -456448.82547   -344187.01163
 91  4 11 20 54  0.0000000  0  4G18G 2G11G19
  20727663.8754     294265.56548    223700.11963
  23631203.648    -1789025.261 5  -1308549.43321
  23260449.2114   -1214143.51246   -886296.77261
  20955486.5784    -470030.90747   -354770.44663
 91  4 11 20 54 15.0000000  0  4G18G 2G11G19
  20729740.6334     305180.85248    232205.50363
  23621054.4144   -1842366.69646  -1350114.00861
  23253812.531    -1249012.144 6   -913467.03521
  20952907.6644    -483580.46247   -365328.52863
 91  4 11 20 54 30.0000000  0  4G18G 2G11G19
  20731840.2814     316213.25348    240802.14463
  23610910.4694   -1895654.88645  -1391637.09461
  23247199.4454   -1283763.47146   -940545.89261
  20950335.9304    -497088.66947   -375854.39763
 91  4 11 20 54 45.0000000  0  4G18G 2G11G19
  20733968.5704     327400.58548    249519.51263
  23600790.492    -1948851.913 6  -1433089.15321
  23240615.289    -1318359.490 6   -967503.73121
  20947782.1414    -510517.68447   -386318.55763
 91  4 11 20 55  0.0000000  0  4G18G 2G11G19
  20736123.4454     338717.68148    258337.98863
  23590679.0784   -2001983.00445  -1474489.82461
  23234059.9924   -1352825.27046   -994360.07861
  20945236.4774    -523892.97047   -396740.84863
 91  4 11 20 55 15.0000000  0  4G18G 2G11G19
  20738299.6644     350154.76248    267249.96863
  23580580.180    -2055057.646 6  -1515846.51721
  23227522.5554   -1387170.10446  -1021122.18761
  20942700.0394    -537223.97247   -407128.63463
 91  4 11 20 55 30.0000000  0  4G18G 2G11G19
  20740498.0314     361707.53048    276252.08763
  23570490.5314   -2108079.49945  -1557162.07461
  23221008.9774   -1421397.47846  -1047792.77361
  20940170.3984    -550514.54747   -417484.91863
 91  4 11 20 55 45.0000000  0  4G18G 2G11G19
  20742717.2584     373372.85448    285341.91763
  23560408.539    -2161051.853 5  -1598439.04621
  23214518.836    -1455510.403 6  -1074374.17821
  20937648.2504    -563768.02447   -427812.29563
 91  4 11 20 56  0.0000000  0  4G18G 2G11G19
  20744960.2504     385155.93748    294523.50263
  23550339.1564   -2213969.58045  -1639673.46461
  23208051.1174   -1489503.37346  -1100862.10861
  20935133.4144    -576979.44247   -438106.89863
 91  4 11 20 56 15.0000000  0  4G18G 2G11G19
  20747225.1024     397065.11748    303803.34963
  23540281.172    -2266823.972 5  -1680858.50921
  23201603.3594   -1523367.77946  -1127249.86361
  20932630.2424    -590140.31047   -448362.11163
 91  4 11 20 56 30.0000000  0  4G18G 2G11G19
  20749514.6724     409092.78548    313175.52363
  23530233.0164   -2319622.01545  -1721999.66161
  23195184.352    -1557110.411 6  -1153542.74021
  20930132.9064    -603257.63347   -458583.39663
 91  4 11 20 56 45.0000000  0  4G18G 2G11G19
  20751827.0164     421241.49548    322642.01263
  23520197.0314   -2372361.20446  -1763094.95261
  23188786.8674   -1590728.46846  -1179738.53961
  20927646.9774    -616328.95847   -468768.83463
 91  4 11 20 57  0.0000000  0  4G18G 2G11G19
  20754162.1024     433511.22748    332202.80863
  23510172.8754   -2425041.59846  -1804144.42761
  23182410.5474   -1624221.87846  -1205837.20361
  20925169.2274    -629354.35147   -478918.48463
 91  4 11 20 57 15.0000000  0  4G18G 2G11G19
  20756524.6724     445927.54848    341877.82763
  23500163.2734   -2477637.49146  -1845128.05761
  23176067.523    -1657564.766 6  -1231818.59421
  20922703.8054    -642308.34847   -489012.50163
 91  4 11 20 57 30.0000000  0  4G18G 2G11G19
  20758912.0084     458472.85848    351653.35463
  23490167.1804   -2530166.02546  -1886059.20461
  23169747.5084   -1690774.16846  -1257695.95261
  20920247.9454    -655208.24447   -499064.36063
 91  4 11 20 57 45.0000000  0  4G18G 2G11G19
  20761322.1884     471137.80348    361522.10763
  23480183.1644   -2582636.58746  -1926945.17461
  23163452.2274   -1723859.16446  -1283476.37861
  20917802.7734    -668063.48747   -509081.41963
 91  4 11 20 58  0.0000000  0  4G18G 2G11G19
  20763754.9694     483922.98648    371484.54963
  23470208.5234   -2635048.02646  -1967785.07561
  23157181.0864   -1756818.51646  -1309158.90061
  20915364.828     -680873.028 7   -519062.87123
 91  4 11 20 58 15.0000000  0  4G18G 2G11G19
  20766211.6254     496832.61948    381543.96763
  23460248.5314   -2687395.94846  -2008575.48161
  23150933.6804   -1789647.71346  -1334739.99761
  20912936.7034    -693632.84147   -529005.57163
 91  4 11 20 58 30.0000000  0  4G18G 2G11G19
  20768690.6334     509858.83748    391694.22763
  23450297.2584   -2739688.14546  -2049322.47061
  23144706.984    -1822354.294 6  -1360225.56521
  20910516.7734    -706350.52347   -538915.44363
 91  4 11 20 58 45.0000000  0  4G18G 2G11G19
  20771192.2894     523005.43748    401938.29363
  23440356.031    -2791920.613 6  -2090022.91121
  23138509.0394   -1854933.95246  -1385612.21661
  20908104.7894    -719022.17547   -548789.44763
 91  4 11 20 59  0.0000000  0  4G18G 2G11G19
  20773717.1024     536272.77148    412276.43463
  23430427.9144   -2844092.90346  -2130676.46761
  23132332.422    -1887386.293 6  -1410899.67121
  20905701.8284    -731647.50347   -558627.35263
 91  4 11 20 59 15.0000000  0  4G18G 2G11G19
  20776264.7424     549663.82348    422710.98363
  23420513.5004   -2896201.77846  -2171280.60261
  23126184.469    -1919707.766 6  -1436085.13421
  20903309.6334    -744223.35247   -568426.70563
 91  4 11 20 59 30.0000000  0  4G18G 2G11G19
  20778836.5944     563174.15648    433238.47563
  23410608.008    -2948251.310 6  -2211838.51221
  23120055.9924   -1951902.36246  -1461171.73661
  20900923.4844    -756753.99947   -578190.83563
 91  4 11 20 59 45.0000000  0  4G18G 2G11G19
  20781429.2584     576801.62148    443857.23864
  23400714.2894   -3000243.66046  -2252351.84761
  23113952.0784   -1983971.87346  -1486160.88361
  20898547.7504    -769241.45147   -587921.30863
 91  4 11 21  0  0.0000000  0  4G18G 2G11G19
  20784045.2194     590552.10648    454571.86663
  23390832.3834   -3052172.63946  -2292815.79861
  23107875.9774   -2015910.05146  -1511047.67461
  20896180.6884    -781679.72147   -597613.45763
 91  4 11 21  0 15.0000000  0  4G18G 2G11G19
  20786685.6094     604422.37448    465379.82863
  23380962.117    -3104041.273 6  -2333232.75121
  23101823.5314   -2047719.91946  -1535834.49461
  20893823.4224    -794072.17047   -607269.90263
 91  4 11 21  0 30.0000000  0  4G18G 2G11G19
  20789348.7894     618416.05348    476283.95263
  23371103.1484   -3155845.72046  -2373599.67461
  23095794.9924   -2079397.36146  -1560518.12061
  20891476.0634    -806414.92947   -616887.62563
 91  4 11 21  0 45.0000000  0  4G18G 2G11G19
  20792033.289      632527.450 8    487279.80523
  23361257.766    -3207591.231 6  -2413920.67721
  23089791.0234   -2110947.63846  -1585102.67061
  20889134.641     -818713.407 7   -626470.84423
 91  4 11 21  1  0.0000000  0  4G18G 2G11G19
  20794742.3674     646757.97148    498368.48463
  23351421.477    -3259276.237 6  -2454194.54821
  23083811.5394   -2142368.88046  -1609586.65961
  20886804.7034    -830966.03547   -636018.33763
 91  4 11 21  1 15.0000000  0  4G18G 2G11G19
  20797471.3364     661104.38948    509547.46963
  23341598.148    -3310903.946 6  -2494423.76721
  23077856.9844   -2173664.02746  -1633972.39861
  20884479.289     -843176.038 7   -645532.61223
 91  4 11 21  1 30.0000000  0  4G18G 2G11G19
  20800223.656      675567.579 8    520817.44523
  23331782.547    -3362473.343 6  -2534607.54521
  23071924.9144   -2204831.94846  -1658259.00861
  20882163.6094    -855342.45247   -655012.92763
 91  4 11 21  1 45.0000000  0  4G18G 2G11G19
  20802999.2504     690147.61048    532178.46463
  23321981.625    -3413984.301 6  -2574745.78421
  23066018.4534   -2235872.29046  -1682446.19861
  20879858.8444    -867465.18047   -664459.19963
 91  4 11 21  2  0.0000000  0  4G18G 2G11G19
  20805794.594      704844.064 8    543630.20423
  23312190.477    -3465436.686 6  -2614838.40021
  23060137.102    -2266784.925 6  -1706533.88521
  20877556.7344    -879544.52947   -673871.67063
 91  4 11 21  2 15.0000000  0  4G18G 2G11G19
  20808615.391      719665.209 8    555179.10723
  23302411.4534   -3516822.00546  -2654878.71861
  23054278.8674   -2297561.16046  -1730515.27461
  20875268.9694    -891571.88747   -683243.63063
 91  4 11 21  2 30.0000000  0  4G18G 2G11G19
  20811458.352      734602.001 7    566818.12223
  23292644.2584   -3568149.11246  -2694873.72161
  23048447.422    -2328209.680 6  -1754397.15421
  20872988.6564    -903556.22547   -692582.06263
 91  4 11 21  2 45.0000000  0  4G18G 2G11G19
  20814325.0944     749664.92247    578555.41763
  23282890.172    -3619407.414 6  -2734815.08921
  23042638.336    -2358719.667 6  -1778171.09321
  20870718.8984    -915487.13847   -701878.87363
 91  4 11 21  3  0.0000000  0  4G18G 2G11G19
  20817212.852      764840.357 7    590380.38323
  23273146.336    -3670610.606 6  -2774713.52621
  23036860.047    -2389104.605 6  -1801847.59121
  20868456.6954    -927378.18247   -711144.61663
 91  4 11 21  3 15.0000000  0  4G18G 2G11G19
  20820122.461      780133.391 7    602296.98823
  23263413.1644   -3721753.08546  -2814564.66561
  23031102.359    -2419358.776 6  -1825422.19021
  20866201.6644    -939223.87647   -720375.01963
 91  4 11 21  3 30.0000000  0  4G18G 2G11G19
  20823056.727      795549.158 7    614309.23223
  23253694.5944   -3772829.24646  -2854364.12061
  23025369.625    -2449476.541 6  -1848890.50321
  20863956.4454    -951018.80547   -729565.86463
 91  4 11 21  3 45.0000000  0  4G18G 2G11G19
  20826012.617      811085.558 7    626415.46723
  23243987.1884   -3823841.29246  -2894113.60661
  23019665.180    -2479459.891 6  -1872254.07721
  20861722.2194    -962765.14847   -738718.85463
 91  4 11 21  4  0.0000000  0  4G18G 2G11G19
  20828991.508      826742.496 7    638615.63323
  23234292.1414   -3874789.15946  -2933813.09061
  23013984.859    -2509308.594 6  -1895512.72021
  20859498.5234    -974463.02247   -747834.07163
 91  4 11 21  4 15.0000000  0  4G18G 2G11G19
  20831993.461      842514.132 7    650905.17823
  23224608.3284   -3925678.39546  -2973466.89461
  23008327.352    -2539027.905 6  -1918670.55321
  20857278.9614    -986118.01847   -756915.88163
 91  4 11 21  4 30.0000000  0  4G18G 2G11G19
  20835016.008      858402.103 7    663285.37023
  23214933.6254   -3976506.98846  -3013073.43861
  23002699.273    -2568615.825 6  -1941726.00021
  20855069.1024    -997728.35247   -765962.88663
 91  4 11 21  4 45.0000000  0  4G18G 2G11G19
  20838063.445      874412.582 7    675761.02023
  23205275.313    -4027268.383 6  -3052627.62521
  22997093.688    -2598065.673 6  -1964673.86221
  20852870.1334   -1009287.40947   -774969.93963
 91  4 11 21  5  0.0000000  0  4G18G 2G11G19
  20841132.828      890544.477 7    688331.28423
  23195626.4304   -4077963.87846  -3092130.46561
  22991516.3364   -2627378.57246  -1987515.00961
  20850678.4064   -1020796.73847   -783938.24063
 91  4 11 21  5 15.0000000  0  4G18G 2G11G19
  20844225.703      906792.324 7    700991.89823
  23185993.5634   -4128598.57746  -3131585.91761
  22985964.008    -2656559.459 6  -2010253.29421
  20848496.1804   -1032261.48447   -792871.80063
 91  4 11 21  5 30.0000000  0  4G18G 2G11G19
  20847338.469      923154.151 7    713741.32623
  23176368.6644   -4179174.22046  -3170995.36461
  22980434.3754   -2685609.93546  -2032889.95661
  20846321.9774   -1043683.45147   -801772.02563
 91  4 11 21  5 45.0000000  0  4G18G 2G11G19
  20850476.289      939637.298 7    726585.28923
  23166756.258    -4229683.334 6  -3210352.97321
  22974932.820    -2714522.200 6  -2055418.91821
  20844159.6644   -1055054.97947   -810632.94863
 91  4 11 21  6  0.0000000  0  4G18G 2G11G19
  20853634.211      956236.755 7    739519.88723
  23157158.742    -4280130.596 6  -3249662.38621
  22969457.0634   -2743300.92746  -2077843.82961
  20842005.5864   -1066380.99547   -819458.40963
 91  4 11 21  6 15.0000000  0  4G18G 2G11G19
  20856815.648      972955.283 7    752547.25923
  23147570.078    -4330512.942 6  -3288921.22221
  22964006.219    -2771943.043 6  -2100162.30021
  20839860.1954   -1077658.68147   -828246.21063
 91  4 11 21  6 30.0000000  0  4G18G 2G11G19
  20860019.563      989788.028 8    765663.63423
  23137992.6804   -4380835.19546  -3328133.21561
  22958580.9694   -2800453.20646  -2122377.93161
  20837720.9694   -1088892.97547   -837000.19963
 91  4 11 21  6 45.0000000  0  4G18G 2G11G19
  20863244.875     1006739.826 8    778872.77723
  23128430.133    -4431092.013 6  -3367294.23521
  22953183.0314   -2828825.66446  -2144486.28261
  20835592.1484   -1100078.44347   -845716.14163
 91  4 11 21  7  0.0000000  0  4G18G 2G11G19
  20866492.734     1023805.382 8    792170.56723
  23118877.7424   -4481288.93646  -3406408.57961
  22947809.133    -2857065.883 6  -2166491.58021
  20833470.9224   -1111220.41047   -854398.18763
 91  4 11 21  7 15.0000000  0  4G18G 2G11G19
  20869761.867     1040990.193 8    805561.27823
  23109338.242    -4531420.054 6  -3445471.63421
  22942460.1564   -2885167.84346  -2188389.15261
  20831360.9844   -1122313.26347   -863041.96363
 91  4 11 21  7 30.0000000  0  4G18G 2G11G19
  20873054.813     1058290.523 8    819042.00323
  23099809.3594   -4581488.78946  -3484486.11161
  22937138.6484   -2913134.87646  -2210181.57961
  20829257.5004   -1133360.62047   -871650.28563
 91  4 11 21  7 45.0000000  0  4G18G 2G11G19
  20876370.359     1075713.542 8    832618.32823
  23090295.406    -4631487.688 6  -3523446.14321
  22931843.2424   -2940959.44946  -2231863.00561
  20827166.6724   -1144355.00247   -880217.33063
 91  4 11 21  8  0.0000000  0  4G18G 2G11G19
  20879707.430     1093251.179 7    846283.97023
  23080792.188    -4681424.589 6  -3562357.87821
  22926571.5394   -2968649.12946  -2253439.31161
  20825083.1414   -1155304.22247   -888749.17763
 91  4 11 21  8 15.0000000  0  4G18G 2G11G19
  20883067.383     1110904.746 7    860039.94523
  23071301.688    -4731298.219 6  -3601220.30821
  22921329.3914   -2996202.53246  -2274909.43461
  20823009.8444   -1166207.07047   -897244.89863
 91  4 11 21  8 30.0000000  0  4G18G 2G11G19
  20886448.195     1128672.969 7    873885.26023
  23061822.8134   -4781109.48446  -3640034.12861
  22916113.7114   -3023620.35346  -2296273.90461
  20820941.4304   -1177064.41347   -905705.15363
 91  4 11 21  8 45.0000000  0  4G18G 2G11G19
  20889850.992     1146554.794 7    887819.09923
  23052356.102    -4830859.141 6  -3678799.95821
  22910921.5864   -3050903.34246  -2317533.31161
  20818884.2974   -1187877.48647   -914130.91863
 91  4 11 21  9  0.0000000  0  4G18G 2G11G19
  20893277.414     1164559.350 7    901848.56623
  23042902.7504   -4880537.60546  -3717510.30461
  22905757.1094   -3078041.85746  -2338680.13861
  20816836.7424   -1198636.62547   -922514.65163
 91  4 11 21  9 15.0000000  0  4G18G 2G11G19
  20896726.094     1182678.522 7    915967.34723
  23033461.148    -4930152.977 6  -3756171.49121
  22900618.9304   -3105043.75646  -2359720.51661
  20814798.7114   -1209349.98747   -930862.71763
 91  4 11 21  9 30.0000000  0  4G18G 2G11G19
  20900195.750     1200912.588 7    930175.65523
  23024031.883    -4979704.760 6  -3794783.13221
  22895508.0944   -3131908.49446  -2380654.00661
  20812769.1884   -1220017.29147   -939174.89663
 91  4 11 21  9 45.0000000  0  4G18G 2G11G19
  20903688.102     1219268.871 7    944479.20023
  23014616.9534   -5029185.41446  -3833339.33261
  22890422.4534   -3158628.41846  -2401474.66561
  20810748.8674   -1230631.01547   -947445.32163
 91  4 11 21 10  0.0000000  0  4G18G 2G11G19
  20907204.172     1237743.631 7    958875.06023
  23005211.5944   -5078598.64846  -3871843.01261
  22885364.766    -3185206.909 6  -2422185.11221
  20808737.5314   -1241194.65147   -955676.71762
 91  4 11 21 10 15.0000000  0  4G18G 2G11G19
  20910742.898     1256336.371 7    973362.85323
  22995820.8754   -5127944.41046  -3910294.09961
  22880332.9774   -3211643.96346  -2442785.34561
  20806738.344    -1251708.366 7   -963869.21123
 91  4 11 21 10 30.0000000  0  4G18G 2G11G19
  20914299.758     1275040.101 7    987937.13523
  22986444.219    -5177229.370 6  -3948697.82921
  22875330.9534   -3237946.02746  -2463280.39961
  20804746.6174   -1262178.95147   -972028.09963
 91  4 11 21 10 45.0000000  0  4G18G 2G11G19
  20917882.953     1293858.233 7   1002600.55923
  22977077.3364   -5226450.29446  -3987051.65661
  22870349.2974   -3264109.79046  -2483667.67861
  20802762.8364   -1272603.27347   -980150.93763
 91  4 11 21 11  0.0000000  0  4G18G 2G11G19
  20921485.3594    1312793.15947   1017354.98963
  22967722.547    -5275604.359 6  -4025353.38021
  22865396.1804   -3290132.29846  -2503944.88261
  20800789.0004   -1282978.57547   -988235.57663
 91  4 11 21 11 15.0000000  0  4G18G 2G11G19
  20925111.3594    1331847.74147   1032202.65663
  22958382.188    -5324688.449 6  -4063600.58121
  22860472.4694   -3316010.16946  -2524109.39561
  20798823.7814   -1293301.63747   -996279.51663
 91  4 11 21 11 30.0000000  0  4G18G 2G11G19
  20928758.5004    1351015.73047   1047138.69263
  22949054.414    -5373708.871 6  -4101798.17321
  22855575.313    -3341749.572 6  -2544166.00021
  20796866.8364   -1303578.81147  -1004287.69463
 91  4 11 21 11 45.0000000  0  4G18G 2G11G19
  20932428.4844    1370298.39947   1062164.09163
  22939738.0314   -5422663.83546  -4139944.73861
  22850704.8984   -3367348.60046  -2564113.22761
  20794920.6644   -1313808.34847  -1012258.75263
 91  4 11 21 12  0.0000000  0  4G18G 2G11G19
  20936118.8594    1389690.58947   1077274.82963
  22930434.5944   -5471558.07946  -4178044.01161
  22845857.7114   -3392811.98146  -2583954.74761
  20792982.0784   -1323995.15047  -1020196.51663
 91  4 11 21 12 15.0000000  0  4G18G 2G11G19
  20939831.1254    1409195.42247   1092473.34363
  22921141.0004   -5520388.76446  -4216093.75061
  22841038.992    -3418136.566 6  -2603688.11221
  20791053.2664   -1334136.23647  -1028098.65162
 91  4 11 21 12 30.0000000  0  4G18G 2G11G19
  20943563.8984    1428815.84247   1107761.92563
  22911860.6254   -5569152.08646  -4254090.99661
  22836247.422    -3443318.836 6  -2623310.59121
  20789130.7344   -1344228.27447  -1035962.56962
 91  4 11 21 12 45.0000000  0  4G18G 2G11G19
  20947318.8674    1448549.00547   1123138.35563
  22902594.586    -5617851.003 6  -4292038.06221
  22831480.469    -3468361.345 6  -2642824.16221
  20787219.2424   -1354274.13947  -1043790.50363
 91  4 11 21 13  0.0000000  0  4G18G 2G11G19
  20951095.7664    1468397.63447   1138604.76263
  22893340.070    -5666482.569 6  -4329932.64021
  22826742.578    -3493260.929 6  -2662226.36321
  20785321.0784   -1364270.85747  -1051580.14762
 91  4 11 21 13 15.0000000  0  4G18G 2G11G19
  20954896.3204    1488363.08747   1154162.19863
  22884098.8524   -5715045.17146  -4367773.50061
  22822032.375    -3518016.032 6  -2681515.97521
  20783425.2584   -1374216.73647  -1059330.17363
 91  4 11 21 13 30.0000000  0  4G18G 2G11G19
  20958717.6884    1508441.44847   1169807.61363
  22874870.688    -5763542.402 6  -4405563.41021
  22817348.594    -3542630.087 6  -2700695.68621
  20781543.5164   -1384115.46047  -1067043.45462
 91  4 11 21 13 45.0000000  0  4G18G 2G11G19
  20962559.6024    1528636.66647   1185544.08463
  22865654.578    -5811970.335 6  -4443299.32221
  22812691.617    -3567098.947 6  -2719762.25021
  20779668.8674   -1393963.09447  -1074716.93063
 91  4 11 21 14  0.0000000  0  4G18G 2G11G19
  20966424.7274    1548946.78447   1201370.09663
  22856451.344    -5860330.379 6  -4480982.33621
  22808063.258    -3591424.152 6  -2738716.89221
  20777803.2274   -1403761.27447  -1082351.86663
 91  4 11 21 14 15.0000000  0  4G18G 2G11G19
  20970311.1254    1569373.58347   1217287.02063
  22847262.828    -5908620.674 6  -4518611.00221
  22803461.477    -3615603.610 6  -2757557.95221
  20775948.2584   -1413508.21947  -1089946.88063
 91  4 11 21 14 30.0000000  0  4G18G 2G11G19
  20974220.4064    1589915.89947   1233293.96163
  22838086.1254   -5956842.04546  -4556185.95461
  22798889.375    -3639637.837 6  -2776285.84821
  20774103.6804   -1423204.70147  -1097502.57263
 91  4 11 21 14 45.0000000  0  4G18G 2G11G19
  20978151.3134    1610573.08447   1249390.41163
  22828922.570    -6004995.107 6  -4593707.68921
  22794341.469    -3663527.386 6  -2794901.00521
  20772268.5164   -1432851.27647  -1105019.37062
 91  4 11 21 15  0.0000000  0  4G18G 2G11G19
  20982104.6254    1631340.94547   1265573.10163
  22819771.844    -6053083.648 6  -4631179.14821
  22789820.6414   -3687276.15646  -2813406.46461
  20770440.3134   -1442452.01847  -1112500.45762
 91  4 11 21 15 15.0000000  0  4G18G 2G11G19
  20986078.2274    1652228.03647   1281848.69863
  22810634.4694   -6101098.76446  -4668593.41261
  22785332.422    -3710875.123 6  -2831795.19921
  20768624.9694   -1451998.04647  -1119938.91362
 91  4 11 21 15 30.0000000  0  4G18G 2G11G19
  20990075.3834    1673232.16447   1298215.49163
  22801510.805    -6149042.727 6  -4705952.21621
  22780870.969    -3734326.172 6  -2850068.66521
  20766819.0784   -1461491.51647  -1127336.41263
 91  4 11 21 15 45.0000000  0  4G18G 2G11G19
  20994095.1174    1694354.04047   1314674.03563
  22792399.1094   -6196914.64346  -4743254.88561
  22776437.578    -3757628.361 6  -2868226.14321
  20765022.2194   -1470931.63147  -1134692.33962
 91  4 11 21 16  0.0000000  0  4G18G 2G11G19
  20998135.2814    1715582.70048   1331215.78863
  22783303.023    -6244724.983 6  -4780509.55221
  22772026.5314   -3780791.86646  -2886275.56361
  20763232.492    -1480328.674 7  -1142014.69822
 91  4 11 21 16 15.0000000  0  4G18G 2G11G19
  21002199.1174    1736934.91548   1347853.81763
  22774218.781    -6292456.571 6  -4817702.87021
  22767648.1724   -3803799.78546  -2904203.73861
  20761456.1024   -1489665.83547  -1149290.39862
 91  4 11 21 16 29.9990000  0  4G18G 2G11G19
  21006282.0654    1758393.58648   1364574.79863
  22765149.480    -6340122.099 6  -4854844.71221
  22763297.2764   -3826666.30546  -2922021.74161
  20759690.2924   -1498958.39346  -1156531.34362
 91  4 11 21 16 44.9990000  0  4G18G 2G11G19
  21010387.2224    1779967.60648   1381385.66263
  22756090.0264   -6387721.41446  -4891934.97061
  22758973.5114   -3849387.72446  -2939726.68661
  20757928.6984   -1508201.02947  -1163733.38863
 91  4 11 21 16 59.9990000  0  4G18G 2G11G19
  21014515.3864    1801660.25548   1398288.97163
  22747047.503    -6435246.214 6  -4928967.16321
  22754679.1984   -3871957.34846  -2957313.34161
  20756181.0424   -1517388.18147  -1170892.19963
 91  4 11 21 17 14.9990000  0  4G18G 2G11G19
  21018665.8624    1823470.79648   1415284.13163
  22738018.1904   -6482697.09146  -4965941.75661
  22750411.8154   -3894375.67946  -2974782.10461
  20754443.3784   -1526520.31547  -1178008.13663
 91  4 11 21 17 29.9990000  0  4G18G 2G11G19
  21022837.4484    1845392.58747   1432365.98463
  22729001.1054   -6530080.81146  -5002864.00561
  22746174.651    -3916649.356 6  -2992138.15221
  20752714.6904   -1535604.26747  -1185086.53663
 91  4 11 21 17 44.9990000  0  4G18G 2G11G19
  21027030.4564    1867429.10547   1449537.23863
  22719997.003    -6577393.274 6  -5039730.73121
  22741963.862    -3938774.219 6  -3009378.24321
  20750995.6754   -1544635.92747  -1192124.18363
 91  4 11 21 17 59.9990000  0  4G18G 2G11G19
  21031246.4804    1889580.44947   1466797.96663
  22711008.6514   -6624634.14846  -5076541.67761
  22737781.7144   -3960749.72046  -3026501.94461
  20749285.5894   -1553615.10947  -1199120.93762
 91  4 11 21 18 14.9990000  0  5G18G 2G11G16G19
  21035482.8784    1911844.84447   1484146.78363
  22702032.3314   -6671805.08346  -5113298.13261
  22733628.3154   -3982577.49746  -3043510.54161
  24125766.245      -25669.302 5
  20747588.2694   -1562543.61747  -1206078.20762
 91  4 11 21 18 29.9990000  0  5G18G 2G11G16G19
  21039740.7224    1934216.70647   1501579.33863
  22693067.362    -6718911.302 6  -5150004.16421
  22729500.3394   -4004262.71346  -3060408.05361
  24120909.980      -51209.088 5        -0.27531
  20745899.7614   -1571426.49847  -1212999.92862
 91  4 11 21 18 44.9990000  0  5G18G 2G11G16G19
  21044019.3314    1956706.54647   1519103.82963
  22684117.4724   -6765941.94446  -5186651.30061
  22725403.9254   -4025794.42846  -3077185.95461
  24116076.480      -76609.588 5    -19792.86521
  20744218.1204   -1580252.90347  -1219877.63963
 91  4 11 21 18 59.9990000  0  5G18G 2G11G16G19
  21048322.7374    1979317.19347   1536722.45263
  22675182.206    -6812894.077 6  -5223237.26521
  22721337.128    -4047169.622 6  -3093841.89721
  24111266.995     -101867.643 5    -39474.42921
  20742550.1674   -1589019.96847  -1226709.11163
 91  4 11 21 19 14.9990000  0  5G18G 2G11G16G19
  21052646.7304    2002041.54647   1554429.67563
  22666261.6594   -6859774.47646  -5259767.32861
  22717296.886    -4068394.804 6  -3110380.94021
  24106488.7614    -126990.09245    -59050.34561
  20740891.1444   -1597734.36247  -1233499.54363
 91  4 11 21 19 29.9990000  0  5G18G 2G11G16G19
  21056991.6984    2024875.39147   1572222.21963
  22657354.9484   -6906587.15946  -5296244.61761
  22713286.1364   -4089473.95746  -3126806.20161
  24101734.6754    -151980.80445    -78523.60161
  20739242.0114   -1606400.25547  -1240252.17763
 91  4 11 21 19 44.9990000  0  5G18G 2G11G16G19
  21061358.5654    2047824.06247   1590104.24163
  22648459.7064   -6953326.71946  -5332664.93361
  22709303.870    -4110401.664 6  -3143113.44721
  24097000.972     -176834.414 5    -97890.03821
  20737602.9954   -1615012.34647  -1246962.89063
 91  4 11 21 19 59.9990000  0  5G18G 2G11G16G19
  21065745.7224    2070878.41347   1608068.59863
  22639577.534    -7000002.118 6  -5369035.26321
  22705349.542    -4131186.630 6  -3159309.47221
  24092299.886     -201559.972 5   -117156.67721
  20735972.2614   -1623579.52147  -1253638.60862
 91  4 11 21 20 14.9990000  0  5G18G 2G11G16G19
  21070154.4874    2094047.49347   1626122.36463
  22630708.4804   -7046603.91446  -5405348.23361
  22701421.706    -4151819.392 6  -3175386.90121
  24087617.0814    -226148.02145   -136316.19261
  20734353.7224   -1632092.41247  -1260272.02063
 91  4 11 21 20 29.9990000  0  5G18G 2G11G16G19
  21074585.8314    2117326.03747   1644261.42763
  22621853.737    -7093137.209 6  -5441607.82721
  22697524.105    -4172304.964 6  -3191349.63021
  24082961.722     -250603.692 5   -155372.53521
  20732741.3864   -1640556.15247  -1266867.13863
 91  4 11 21 20 44.9990000  0  5G18G 2G11G16G19
  21079036.2764    2140718.90047   1662489.56563
  22613012.7064   -7139596.82746  -5477810.01261
  22693652.683    -4192638.022 6  -3207193.51921
  24078338.6984    -274921.94445   -174321.79161
  20731141.1514   -1648965.58347  -1273419.93562
 91  4 11 21 20 59.9990000  0  5G18G 2G11G16G19
  21083508.6984    2164220.32447   1680802.29663
  22604184.542    -7185987.998 6  -5513958.87021
  22689813.253    -4212824.091 6  -3222922.88421
  24073732.972     -299108.040 5   -193168.09521
  20729548.8944   -1657326.25047  -1279934.73163
 91  4 11 21 21 14.9990000  0  5G18G 2G11G16G19
  21088002.5504    2187833.97847   1699202.47863
  22595370.628    -7232306.926 6  -5550051.43521
  22686001.7064   -4232859.05446  -3238534.50061
  24069157.3704    -323158.01745   -211908.29661
  20727971.3084   -1665634.17247  -1286408.43062
 91  4 11 21 21 29.9990000  0  5G18G 2G11G16G19
  21092518.1674    2211561.84547   1717691.66063
  22586569.964    -7278551.697 6  -5586086.21621
  22682217.940    -4252740.824 6  -3254026.74621
  24064604.4334    -347070.00845   -230541.00061
  20726399.2064   -1673887.40547  -1292839.51663
 91  4 11 21 21 44.9990000  0  5G18G 2G11G16G19
  21097054.4094    2235400.03347   1736266.81063
  22577783.315    -7324725.764 6  -5622065.90321
  22678462.425    -4272472.689 6  -3269402.17621
  24060082.0264    -370847.41345   -249068.82561
  20724838.2374   -1682089.42647  -1299230.69063
 91  4 11 21 21 59.9990000  0  5G18G 2G11G16G19
  21101612.0034    2259350.26747   1754929.26663
  22569009.909    -7370827.212 6  -5657989.00121
  22674735.378    -4292052.782 6  -3284659.34521
  24055588.2064    -394488.33045   -267490.29061
  20723290.1674   -1690238.35947  -1305580.50462
 91  4 11 21 22 14.9990000  0  5G18G 2G11G16G19
  21106190.1984    2283412.89947   1773679.29863
  22560252.065    -7416855.367 6  -5693854.98721
  22671039.448    -4311480.217 6  -3299797.56121
  24051111.190     -417992.215 5   -285804.98621
  20721748.4724   -1698333.54047  -1311888.43263
 91  4 11 21 22 29.9990000  0  5G18G 2G11G16G19
  21110789.7534    2307585.86447   1792515.30763
  22551505.456    -7462811.823 6  -5729665.10221
  22667372.284    -4330756.576 6  -3314818.05821
  24046665.1514    -441360.96045   -304014.36061
  20720216.7614   -1706376.65647  -1318155.79063
 91  4 11 21 22 44.9990000  0  5G18G 2G11G16G19
  21115411.1834    2331867.62847   1811436.09563
  22542774.6054   -7508697.97346  -5765420.44461
  22663731.128    -4349883.449 6  -3329722.07521
  24042243.245     -464595.927 5   -322119.50421
  20718696.7764   -1714369.25847  -1324383.78663
 91  4 11 21 22 59.9990000  0  5G18G 2G11G16G19
  21120051.5424    2356252.64947   1830437.34363
  22534055.370    -7554519.278 6  -5801125.25621
  22660119.3554   -4368866.02446  -3344513.65461
  24037846.0894    -487702.31545   -340124.45461
  20717185.3554   -1722316.65846  -1330576.55663
 91  4 11 21 23 14.9990000  0  5G18G 2G11G16G19
  21124711.9174    2380749.79947   1849525.96263
  22525350.0344   -7600266.58046  -5836772.41161
  22656534.855    -4387695.009 6  -3359185.55121
  24033477.519     -510670.821 5   -358021.97621
  20715682.0894   -1730209.68647  -1336726.96763
 91  4 11 21 23 29.9990000  0  5G18G 2G11G16G19
  21129396.1594    2405360.09347   1868702.75363
  22516658.769    -7645938.714 6  -5872360.97521
  22652982.1984   -4406369.09846  -3373736.75161
  24029132.6054    -533500.63345   -375811.40461
  20714192.2764   -1738047.14147  -1342834.06963
 91  4 11 21 23 44.9990000  0  5G18G 2G11G16G19
  21134100.4404    2430081.03247   1887965.75363
  22507980.019    -7691537.836 6  -5907892.65921
  22649456.8474   -4424890.50246  -3388168.97161
  24024811.753     -556193.769 5   -393494.34921
  20712709.4484   -1745831.25247  -1348899.60663
 91  4 11 21 23 59.9990000  0  5G18G 2G11G16G19
  21138824.3784    2454908.87947   1907312.06263
  22499316.3944   -7737067.42846  -5943370.14861
  22645962.987    -4443262.480 6  -3402484.75921
  24020520.8004    -578753.85645   -411073.61361
  20711235.9094   -1753565.36647  -1354926.18062
 91  4 11 21 24 14.9990000  0  5G18G 2G11G16G19
  21143570.0654    2479844.61447   1926742.44163
  22490665.730    -7782526.106 6  -5978792.39221
  22642495.362    -4461483.534 6  -3416682.93921
  24016251.909     -601179.446 5   -428548.07121
  20709774.2064   -1761248.15347  -1360912.75863
 91  4 11 21 24 29.9990000  0  5G18G 2G11G16G19
  21148336.7694    2504887.62647   1946256.40963
  22482030.042    -7827914.530 6  -6014159.88221
  22639054.7374   -4479554.32046  -3430764.03161
  24012008.1594    -623471.16745   -445918.23761
  20708322.3394   -1768880.29747  -1366859.87263
 91  4 11 21 24 44.9990000  0  5G18G 2G11G16G19
  21153122.7224    2530040.88347   1965856.28863
  22473405.3154   -7873229.44346  -6049470.10761
  22635646.4954   -4497471.51346  -3444725.44361
  24007794.620     -645626.038 5   -463181.74621
  20706881.1284   -1776458.70147  -1372765.11462
 91  4 11 21 24 59.9990000  0  5G18G 2G11G16G19
  21157929.9954    2555304.53347   1985542.18563
  22464797.386    -7918470.218 6  -6084722.54621
  22632266.448    -4515234.514 6  -3458566.70721
  24003603.3474    -667643.30145   -480338.03361
  20705447.1904   -1783982.69747  -1378627.96063
 91  4 11 21 25 14.9990000  0  5G18G 2G11G16G19
  21162759.2694    2580679.32847   2005314.68463
  22456201.558    -7963636.160 6  -6119916.69121
  22628915.7534   -4532842.43046  -3472287.12861
  23999442.2694    -689522.38645   -497386.65161
  20704027.4404   -1791451.48247  -1384447.78563
 91  4 11 21 25 29.9990000  0  5G18G 2G11G16G19
  21167606.9954    2606156.78947   2025167.18163
  22447620.378    -8008735.127 6  -6155058.62722
  22625591.4644   -4550303.12646  -3485892.83461
  23995299.526     -711270.662 5   -514333.34721
  20702617.4724   -1798872.92646  -1390230.72362
 91  4 11 21 25 44.9990000  0  5G18G 2G11G16G19
  21172475.6984    2631739.93547   2045102.03563
  22439050.776    -8053763.969 6  -6190145.93021
  22622297.6124   -4567613.45646  -3499381.36061
  23991190.5654    -732885.87045   -531176.34861
  20701212.3864   -1806244.01647  -1395974.42362
 91  4 11 21 25 59.9990000  0  5G18G 2G11G16G19
  21177365.3394    2657434.16247   2065123.44663
  22430496.628    -8098717.316 6  -6225174.39621
  22619033.4804   -4584767.76546  -3512748.32061
  23987102.050     -754362.210 5   -547911.14921
  20699823.5734   -1813559.17046  -1401674.53363
 91  4 11 21 26 14.9990000  0  5G18G 2G11G16G19
  21182275.9174    2683241.06147   2085232.65163
  22421956.472    -8143593.097 6  -6260142.42421
  22615799.362    -4601764.144 6  -3525992.21021
  23983041.480     -775697.660 5   -564536.15821
  20698441.0264   -1820816.63747  -1407329.69662
 91  4 11 21 26 29.9990000  0  5G18G 2G11G16G19
  21187206.8084    2709151.88947   2105422.84163
  22413430.011    -8188399.711 6  -6295056.56021
  22612593.4484   -4618610.81446  -3539119.44861
  23979007.026     -796900.416 5   -581057.75521
  20697067.4174   -1828024.69247  -1412946.35863
 91  4 11 21 26 44.9990000  0  5G18G 2G11G16G19
  21192157.3704    2735169.38947   2125696.15463
  22404916.808    -8233134.246 6  -6329914.53421
  22609418.675    -4635304.867 6  -3552127.76021
  23974998.651     -817967.915 5   -597473.95921
  20695705.9874   -1835180.65047  -1418522.42363
 91  4 11 21 26 59.9990000  0  5G18G 2G11G16G19
  21197129.0424    2761290.92947   2146050.53763
  22396417.315    -8277798.961 6  -6364718.09621
  22606269.6054   -4651848.42146  -3565018.80161
  23971012.5264    -838902.12945   -613786.34161
  20694353.8704   -1842286.47847  -1424059.42663
 91  4 11 21 27 14.9990000  0  5G18G 2G11G16G19
  21202119.5894    2787512.52447   2166482.88563
  22387930.550    -8322397.728 6  -6399470.27621
  22603147.5974   -4668245.34046  -3577795.58561
  23967056.769     -859707.379 5   -629998.20321
  20693011.7144   -1849346.12447  -1429560.44062
 91  4 11 21 27 29.9990000  0  5G18G 2G11G16G19
  21207129.4564    2813842.22847   2186999.47363
  22379457.308    -8366921.968 6  -6434164.37821
  22600058.6514   -4684486.99946  -3590451.38961
  23963124.050     -880374.947 5   -646102.79121
  20691678.2374   -1856351.08647  -1435018.84763
 91  4 11 21 27 44.9990000  0  5G18G 2G11G16G19
  21212157.9644    2840276.06447   2207597.20263
  22370998.573    -8411375.802 6  -6468803.61921
  22596996.8624   -4700577.40446  -3602989.33861
  23959216.948     -900909.121 5   -662103.42121
  20690354.1834   -1863305.38747  -1440437.77462
 91  4 11 21 27 59.9990000  0  6G18G 2G11G16G19G 6
  21217210.2374    2866817.76347   2228278.98163
  22362552.683    -8455754.876 6  -6503384.60621
  22593963.7064   -4716512.29446  -3615406.09861
  23955331.6054    -921305.63745   -677996.79561
  20689041.5504   -1870204.83147  -1445813.96063
  24200476.1284         -0.91753
 91  4 11 21 28 14.9990000  0  6G18G 2G11G16G19G 6
  21222280.2144    2893469.07347   2249046.16863
  22354122.995    -8500057.485 6  -6537906.00521
  22590960.2924   -4732289.69946  -3627700.14861
  23951482.839     -941562.628 5   -693781.44721
  20687739.4014   -1877047.61447  -1451145.99362
  24192523.5424     -41778.57643
 91  4 11 21 28 29.9990000  0  6G18G 2G11G16G19G 6
  21227371.3624    2920218.89047   2269890.11963
  22345704.1124   -8544294.47846  -6572376.28361
  22587985.4484   -4747920.40946  -3639879.88861
  23947645.237     -961691.103 5   -709465.94521
  20686446.2374   -1883844.68147  -1456442.40362
  24184571.5194     -83555.21944
 91  4 11 21 28 44.9990000  0  6G18G 2G11G16G19G 6
  21232482.7764    2947077.74447   2290819.03063
  22337300.683    -8588454.809 6  -6606786.82322
  22585043.0974   -4763393.53546  -3651936.83161
  23943844.7304    -981680.25745   -725041.91861
  20685162.9564   -1890584.99747  -1461694.59263
  24176632.261     -125320.059 4
 91  4 11 21 28 59.9990000  0  6G18G 2G11G16G19G 6
  21237641.6904    2974184.98947   2311941.49463
  22328938.440    -8632399.060 6  -6641028.98822
  22582154.1594   -4778569.53146  -3663762.24561
  23940093.8004   -1001390.48145   -740400.52061
  20683920.6754   -1897129.02747  -1466793.83762
  24168706.972     -166933.787 4
 91  4 11 21 29 14.9990000  0  6G18G 2G11G16G19G 6
  21242843.2304    3001521.01747   2333242.22663
  22320613.722    -8676146.540 6  -6675117.83422
  22579317.7764   -4793467.56946  -3675371.06961
  23936393.026    -1020840.909 5   -755556.68421
  20682706.6054   -1903495.95847  -1471755.08263
  24160814.394     -208415.681 4        -0.23831
 91  4 11 21 29 29.9990000  0  6G18G 2G11G16G19G 6
  21248064.5894    3028957.68947   2354621.38463
  22312302.300    -8719825.052 6  -6709152.92921
  22576512.3004   -4808215.39946  -3686862.85461
  23932711.909    -1040159.590 5   -770610.17821
  20681503.1674   -1909813.68847  -1476677.98863
  24152923.3154    -249893.71544    -32320.61861
 91  4 11 21 29 44.9990000  0  6G18G 2G11G16G19G 6
  21253305.9564    3056503.95747   2376085.94563
  22304004.300    -8763425.232 6  -6743126.98821
  22573737.5034   -4822803.58646  -3698230.24061
  23929066.3234   -1059337.18245   -785553.74361
  20680312.5584   -1916073.00347  -1481555.37762
  24145031.480     -291358.625 5    -64630.77221
 91  4 11 21 29 59.9990000  0  6G18G 2G11G16G19G 6
  21258568.4564    3084157.01747   2397633.71963
  22295722.753    -8806950.005 6  -6777042.28422
  22570990.7304   -4837235.13046  -3709475.57061
  23925443.620    -1078376.696 5   -800389.72521
  20679133.2304   -1922276.87147  -1486389.56063
  24137143.3394    -332813.53045    -96933.12461
 91  4 11 21 30 14.9990000  0  6G18G 2G11G16G19G 6
  21263851.1754    3111917.98347   2419265.56963
  22287454.315    -8850397.833 6  -6810897.63122
  22568274.5114   -4851508.41146  -3720597.57361
  23921846.1514   -1097276.60945   -815116.91061
  20677962.7614   -1928423.68947  -1491179.28863
  24129256.5034    -374256.97945   -129226.56161
 91  4 11 21 30 29.9990000  0  6G18G 2G11G16G19G 6
  21269151.8944    3139776.33447   2440973.31163
  22279199.425    -8893778.901 6  -6844700.95122
  22565587.0584   -4865633.36546  -3731603.99561
  23918275.800    -1116046.854 5   -829743.06421
  20676800.1514   -1934523.20147  -1495932.15563
  24121373.120     -415699.079 5   -161518.95721
 91  4 11 21 30 44.9990000  0  6G18G 2G11G16G19G 6
  21274474.2304    3167742.34847   2462764.94463
  22270958.3314   -8937082.76646  -6878444.12362
  22562930.5734   -4879599.64546  -3742486.78261
  23914730.2304   -1134677.44845   -844260.39961
  20675652.0194   -1940565.12947  -1500640.15063
  24113486.487     -457129.544 5   -193802.26521
 91  4 11 21 30 59.9990000  0  6G18G 2G11G16G19G 6
  21279816.4094    3195813.85747   2484638.78163
  22262734.300    -8980311.571 6  -6912128.79322
  22560301.0584   -4893409.47846  -3753247.65661
  23911208.8554   -1153170.34745   -858670.43561
  20674514.8864   -1946551.76846  -1505305.06363
  24105604.511     -498550.703 5   -226078.33621
 91  4 11 21 31 14.9990000  0  6G18G 2G11G16G19G 6
  21285177.3084    3223992.33247   2506595.96363
  22254520.730    -9023463.320 6  -6945753.43722
  22557702.1364   -4907060.72746  -3763884.96461
  23907719.5344   -1171523.70645   -872971.76361
  20673384.7304   -1952480.95547  -1509925.20963
  24097723.933     -539960.675 5   -258345.67121
 91  4 11 21 31 29.9990000  0  6G18G 2G11G16G19G 6
  21290559.4804    3252269.48647   2528630.04263
  22246323.565    -9066545.956 6  -6979324.20622
  22555134.0114   -4920561.39146  -3774404.93161
  23904248.0584   -1189745.55045   -887170.56861
  20672266.0264   -1958360.86646  -1514506.95863
  24089842.6514    -581367.46145   -290610.53861
 91  4 11 21 31 44.9990000  0  6G18G 2G11G16G19G 6
  21295958.4724    3280640.98547   2550737.63463
  22238138.175    -9109563.593 6  -7012844.33422
  22552592.2064   -4933915.52246  -3784810.72261
  23900806.7144   -1207840.15345   -901270.25661
  20671155.5034   -1964195.55546  -1519053.46863
  24081961.456     -622775.443 5   -322876.32121
 91  4 11 21 31 59.9990000  0  6G18G 2G11G16G19G 6
  21301376.8234    3309113.20147   2572923.70663
  22229963.9254   -9152509.67346  -7046308.71162
  22550080.7224   -4947116.45046  -3795097.12861
  23897391.737    -1225801.059 5   -915265.75721
  20670053.7374   -1969978.39247  -1523559.57663
  24074083.1124    -664177.91445   -355137.80561
 91  4 11 21 32 14.9990000  0  6G18G 2G11G16G19G 6
  21306814.5814    3337688.70047   2595190.25663
  22221806.245    -9195381.168 6  -7079714.96422
  22547597.0734   -4960161.18546  -3805261.83061
  23893997.5034   -1243625.26345   -929154.73761
  20668965.2694   -1975706.57146  -1528023.09463
  24066206.6054    -705572.21645   -387392.93361
 91  4 11 21 32 29.9990000  0  6G18G 2G11G16G19G 6
  21312271.4564    3366366.09547   2617536.21163
  22213660.683    -9238179.487 6  -7113064.20322
  22545143.8154   -4973050.98846  -3815305.79961
  23890632.1984   -1261314.06845   -942938.21861
  20667884.8394   -1981381.35947  -1532445.00463
  24058333.2064    -746959.67245   -419642.74161
 91  4 11 21 32 44.9990000  0  6G18G 2G11G16G19G 6
  21317747.948     3395142.523 7   2639959.32923
  22205530.690    -9280907.209 6  -7146358.43022
  22542722.222    -4985788.495 6  -3825231.10521
  23887292.7224   -1278870.37345   -956618.42961
  20666814.9874   -1987005.27247  -1536827.27563
  24050456.472     -788343.065 5   -451889.37221
 91  4 11 21 32 59.9990000  0  6G18G 2G11G16G19G 6
  21323242.8004    3424019.04047   2662460.44063
  22197413.409    -9323563.000 6  -7179596.60022
  22540326.9804   -4998372.19246  -3835036.55661
  23883979.8944   -1296292.55445   -970194.14461
  20665754.0894   -1992576.77447  -1541168.70562
  24042583.5264    -829721.10244   -484131.83861
 91  4 11 21 33 14.9990000  0  6G18G 2G11G16G19G 6
  21328756.230     3452992.972 7   2685037.45723
  22189308.948    -9366149.351 6  -7212780.66322
  22537961.5034   -5010804.51546  -3844724.05461
  23880684.7694   -1313583.15445   -983667.34361
  20664703.0734   -1998098.22447  -1545471.13063
  24034714.2924    -871096.10244   -516371.91661
 91  4 11 21 33 29.9990000  0  6G18G 2G11G16G19G 6
  21334289.784     3482068.231 7   2707693.43123
  22181219.409    -9408661.883 6  -7245907.20322
  22535624.1834   -5023081.17046  -3854290.24861
  23877420.3394   -1330737.77345   -997034.56761
  20663663.4404   -2003565.45447  -1549731.30963
  24026836.9094    -912464.09344   -548606.53461
 91  4 11 21 33 44.9990000  0  6G18G 2G11G16G19G 6
  21339842.8314    3511248.09947   2730430.91863
  22173143.956    -9451096.985 6  -7278973.41022
  22533319.269    -5035198.578 6  -3863732.36521
  23874183.5894   -1347753.30745  -1010293.43461
  20662634.5344   -2008975.08747  -1553946.60362
  24018966.628     -953821.616 4   -580833.03021
 91  4 11 21 33 59.9990000  0  6G18G 2G11G16G19G 6
  21345413.620     3540523.286 7   2753242.67923
  22165082.378    -9493464.037 6  -7311986.58622
  22531043.4954   -5047166.02046  -3873057.61461
  23870967.5194   -1364638.90945  -1023451.03761
  20661613.6904   -2014336.43647  -1558124.27462
  24011098.7454    -995178.12144   -613058.72761
 91  4 11 21 34 14.9990000  0  6G18G 2G11G16G19G 6
  21351002.433     3569899.665 7   2776133.29123
  22157034.105    -9535756.502 6  -7344941.65422
  22528792.964    -5058976.879 6  -3882260.86021
  23867785.0974   -1381388.23245  -1036502.45061
  20660604.5584   -2019642.80347  -1562259.10062
  24003228.4804   -1036527.07244   -645278.50761
 91  4 11 21 34 29.9990000  0  6G18G 2G11G16G19G 6
  21356611.3944    3599372.08447   2799098.74163
  22148999.722    -9577979.262 6  -7377842.39722
  22526574.120    -5070636.033 6  -3891345.89421
  23864622.0734   -1398006.24045  -1049451.54461
  20659606.0894   -2024898.94447  -1566354.79062
  23995360.6834   -1077873.44444   -677496.31061
 91  4 11 21 34 44.9990000  0  6G18G 2G11G16G19G 6
  21362238.800     3628943.570 7   2822141.38423
  22140978.347    -9620129.396 6  -7410686.55422
  22524385.269    -5082140.565 6  -3900310.43721
  23861483.503    -1414490.044 5  -1062296.07021
  20658616.1054   -2030102.03347  -1570409.14163
  23987494.386    -1119214.477 4   -709709.96221
 91  4 11 21 34 59.9990000  0  6G18G 2G11G16G19G 6
  21367884.6514    3658616.64647   2845263.19163
  22132971.026    -9662203.906 6  -7443471.78122
  22522225.776    -5093487.593 6  -3909152.25421
  23858371.722    -1430836.501 5  -1075033.57621
  20657634.7374   -2035249.07347  -1574419.81763
  23979628.1594   -1160547.29044   -741917.18061
 91  4 11 21 35 14.9990000  0  6G18G 2G11G16G19G 6
  21373550.019     3688385.702 7   2868459.78423
  22124978.065    -9704208.024 6  -7476202.15422
  22520095.237    -5104682.195 6  -3917875.29421
  23855287.237    -1447051.111 5  -1087668.33121
  20656665.0734   -2040345.30747  -1578390.90563
  23971764.644    -1201877.118 5   -774122.10521
 91  4 11 21 35 29.9990000  0  6G18G 2G11G16G19G 6
  21379234.105     3718251.550 7   2891731.80123
  22116998.519    -9746140.759 6  -7508876.90322
  22517995.526    -5115723.428 6  -3926478.82921
  23852223.565    -1463133.060 5  -1100199.72421
  20655707.6904   -2045389.83747  -1582321.69963
  23963900.1514   -1243203.15845   -806324.08061
 91  4 11 21 35 44.9990000  0  6G18G 2G11G16G19G 6
  21384934.745     3748213.448 7   2915078.65723
  22109032.745    -9788002.628 6  -7541496.42922
  22515923.6054   -5126611.74446  -3934963.20961
  23849192.6054   -1479082.66745  -1112627.99761
  20654754.6834   -2050383.07847  -1586212.53163
  23956034.839    -1284525.940 5   -838523.53921
 91  4 11 21 35 59.9990000  0  6G18G 2G11G16G19G 6
  21390656.386     3778275.985 7   2938503.93923
  22101081.245    -9829788.918 6  -7574057.06922
  22513883.159    -5137342.405 6  -3943324.73421
  23846181.089    -1494895.384 5  -1124949.57421
  20653816.3154   -2055320.02447  -1590059.49663
  23948172.175    -1325840.888 5   -870716.85021
 91  4 11 21 36 14.9990000  0  6G18G 2G11G16G19G 6
  21396395.019     3808432.649 7   2962002.56723
  22093142.167    -9871505.467 6  -7606563.37222
  22511868.190    -5147921.341 6  -3951568.04021
  23843197.1834   -1510577.16145  -1137169.17661
  20652886.1124   -2060206.83547  -1593867.39763
  23940314.800    -1367153.939 5   -902908.72521
 91  4 11 21 36 29.9990000  0  6G18G 2G11G16G19G 6
  21402151.034     3838685.669 7   2985576.27723
  22085217.151    -9913150.004 6  -7639013.55322
  22509884.7064   -5158345.95246  -3959691.08161
  23840237.9954   -1526125.61245  -1149284.85761
  20651965.3004   -2065040.94447  -1597634.23163
  23932450.4254   -1408462.79945   -935097.29161
 91  4 11 21 36 44.9990000  0  6G18G 2G11G16G19G 6
  21407926.808     3869036.292 7   3009226.04023
  22077306.636    -9954721.255 6  -7671406.62622
  22507930.940    -5168615.174 6  -3967693.05021
  23837305.831    -1541539.589 5  -1161295.74921
  20651056.0654   -2069821.02347  -1601358.96763
  23924590.3084   -1449766.40845   -967281.83561
 91  4 11 21 36 59.9990000  0  6G18G 2G11G16G19G 6
  21413722.409     3899488.189 7   3032954.71823
  22069410.761    -9996215.230 6  -7703739.48322
  22506004.3084   -5178724.82346  -3975570.67161
  23834398.347    -1556815.341 5  -1173198.93321
  20650157.4334   -2074543.03247  -1605038.44563
  23916731.3864   -1491060.58945   -999459.00361
 91  4 11 21 37 14.9990000  0  6G18G 2G11G16G19G 6
  21419533.933     3930030.753 7   3056754.04623
  22061527.4874  -10037642.12246  -7736020.07362
  22504112.4484   -5188685.17646  -3983331.95261
  23831515.690    -1571963.159 5  -1185002.43421
  20649266.8554   -2079217.44247  -1608680.83763
  23908873.3004   -1532355.77145  -1031636.92261
 91  4 11 21 37 29.9990000  0  6G18G 2G11G16G19G 6
  21425363.347     3960665.529 7   3080625.22623
  22053657.440   -10079000.160 6
  22502243.9094   -5198494.53146  -3990975.57561
  23828657.503    -1586981.375 5  -1196704.95221
  20648385.9954   -2083842.32047  -1612284.63663
  23901013.9484   -1573650.31545
 91  4 11 21 37 44.9990000  0  6G18G 2G11G16G19G 6
  21431212.089     3991397.945 7   3104572.49323
  22045800.2924  -10120283.56846
  22500406.253    -5208146.959 6  -3998496.91921
  23825825.987    -1601863.989 5  -1208301.79621
  20647520.0504   -2088411.69947  -1615845.18863
  23893160.0894   -1614938.52845
 91  4 11 21 37 59.9990000  0  6G18G 2G11G16G19G 6
  21437077.769     4022219.357 7   3128589.09723
  22037957.940   -10161500.854 6  -7832533.06322
  22498598.753    -5217651.019 6  -4005902.65921
  23823023.573    -1616619.817 5  -1219799.86021
  20646659.0034   -2092933.98846  -1619369.04463
  23885301.487    -1656228.965 5  -1128161.11221
 91  4 11 21 38 14.9990000  0  6G18G 2G11G16G19G 6
  21442962.0194    4053137.55747   3152681.12963
  22030129.284   -10202643.973 6  -7864592.54222
  22496821.2374   -5226998.61846  -4013186.47361
  23820238.3394   -1631240.35245  -1231192.48361
  20645806.3474   -2097401.26547  -1622850.04363
  23877443.519    -1697513.585 5  -1160330.81521
 91  4 11 21 38 29.9990000  0  6G18G 2G11G16G19G 6
  21448863.636     4084157.648 7   3176852.55623
  22022313.2844  -10243707.39146  -7896589.91362
  22495071.9724   -5236184.49646  -4020344.27161
  23817479.5034   -1645720.87845  -1242476.02961
  20644970.5194   -2101808.16947  -1626283.98763
  23869588.776    -1738787.136 5  -1192491.88321
 91  4 11 21 38 44.9990000  0  6G18G 2G11G16G19G 6
  21454783.878     4115268.985 7   3201095.08423
  22014513.3314  -10284701.87546  -7928533.56562
  22493353.7694   -5245219.02946  -4027384.13861
  23814750.440    -1660071.975 5  -1253658.70521
  20644138.9954   -2106165.18247  -1629679.06263
  23861738.636    -1780060.299 5  -1224652.67021
 91  4 11 21 38 59.9990000  0  6G18G 2G11G16G19G 6
  21460721.1674    4146474.63047   3225411.09863
  22006724.6054  -10325623.70946  -7960420.61762
  22491664.3474   -5254098.58846  -4034303.24761
  23812043.698    -1674289.940 5  -1264737.63921
  20643319.6444   -2110468.75647  -1633032.49563
  23853886.4334   -1821329.51145  -1256810.36861
 91  4 11 21 39 14.9990000  0  6G18G 2G11G16G19G 6
  21466676.542     4177771.421 7   3249798.13623
  21998952.6674  -10366475.85746  -7992253.36762
  22490003.448    -5262826.235 6  -4041103.98021
  23809362.8864   -1688377.98145  -1275715.38461
  20642510.9334   -2114721.71047  -1636346.48663
  23846029.925    -1862597.785 5  -1288967.31021
 91  4 11 21 39 29.9990000  0  6G18G 2G11G16G19G 6
  21472651.847     4209162.196 7   3274258.40123
  21991191.7924  -10407255.36346  -8024029.51562
  22488370.6284   -5271398.96546  -4047784.00161
  23806710.425    -1702333.200 5  -1286589.59021
  20641712.8704   -2118921.14247  -1639618.76763
  23838178.4174   -1903862.18845  -1321121.27261
 91  4 11 21 39 44.9990000  0  6G18G 2G11G16G19G 6
  21478641.050     4240640.783 7   3298787.09523
  21983444.3944  -10447967.87446  -8055753.46062
  22486766.425    -5279822.481 6  -4054347.75721
  23804078.980    -1716161.243 5  -1297364.70221
  20640924.3864   -2123072.49347  -1642853.58763
  23830327.4804   -1945128.59345  -1353276.76561
 91  4 11 21 39 59.9990000  0  6G18G 2G11G16G19G 6
  21484648.940     4272212.214 7   3323388.13123
  21975711.128   -10488608.414 6  -8087421.33022
  22485194.995    -5288091.794 6  -4060791.36421
  23801470.628    -1729857.088 5  -1308036.79221
  20640143.2374   -2127170.74747  -1646047.03263
  23822471.472    -1986392.067 5  -1385430.00321
 91  4 11 21 40 14.9990000  0  6G18G 2G11G16G19G 6
  21490675.995     4303878.928 7   3348063.41523
  21967991.878   -10529173.997 6  -8119030.78922
  22483651.308    -5296203.938 6  -4067112.48821
  23798888.1444   -1743418.22045  -1318603.93961
  20639372.2614   -2131212.98347  -1649196.83163
  23814620.4014   -2027649.61845  -1417578.61461
 91  4 11 21 40 29.9990000  0  6G18G 2G11G16G19G 6
  21496719.448     4335633.695 7   3372807.31523
  21960285.073   -10569671.664 6  -8150587.32622
  22482133.980    -5304165.954 6  -4073316.63721
  23796335.5264   -1756851.64145  -1329071.54361
  20638615.5584   -2135206.13047  -1652308.38163
  23806770.065    -2068908.443 5  -1449728.21521
 91  4 11 21 40 44.9990000  0  6G18G 2G11G16G19G 6
  21502779.706     4367484.952 7   3397626.40023
  21952592.800   -10610092.788 7  -8182084.22322
  22480651.987    -5311969.209 6  -4079397.06921
  23793802.1594   -1770148.59045  -1339432.80961
  20637864.2534   -2139141.54847  -1655374.93463
  23798923.198    -2110159.818 5  -1481872.00721
 91  4 11 21 40 59.9990000  0  6G18G 2G11G16G19G 6
  21508857.464     4399423.881 7   3422513.80022
  21944913.5264  -10650445.84546  -8213528.07862
  22479194.331    -5319622.313 6  -4085360.50621
  23791298.7694   -1783317.92445  -1349694.61561
  20637125.1054   -2143027.90347  -1658403.26962
  23791070.6594   -2151412.54845  -1514016.85361
 91  4 11 21 41 14.9990000  0  6G18G 2G11G16G19G 6
  21514951.417     4431448.161 7   3447467.71222
  21937246.644   -10690732.806 6  -8244920.43522
  22477767.456    -5327127.100 6  -4091208.36921
  23788815.761    -1796361.564 5  -1359858.51321
  20636395.4334   -2146867.15747  -1661394.89562
  23783224.034    -2192668.579 5  -1546164.28221
 91  4 11 21 41 29.9990000  0  6G18G 2G11G16G19G 6
  21521063.745     4463561.525 7   3472491.03722
  21929594.159   -10730949.801 7  -8276258.26522
  22476369.065    -5334479.650 6  -4096937.61121
  23786359.980    -1809275.527 5  -1369921.34421
  20635674.0894   -2150655.14646  -1664346.57463
  23775368.956    -2233923.974 5  -1578311.20621
 91  4 11 21 41 44.9990000  0  6G18G 2G11G16G19G 6
  21527191.636     4495764.825 7   3497584.43522
  21921954.355   -10771095.552 7  -8307540.59322
  22474998.167    -5341678.754 6  -4102547.28921
  23783926.9724   -1822058.71445  -1379882.30361
  20634962.7924   -2154390.62747  -1667257.34562
  23767517.276    -2275177.712 5  -1610456.85221
 91  4 11 21 41 59.9990000  0  6G18G 2G11G16G19G 6
  21533337.339     4528062.117 7   3522751.08422
  21914328.503   -10811165.792 6  -8338764.07622
  22473656.651    -5348720.091 6  -4108034.02221
  23781517.144    -1834706.919 5  -1389738.06021
  20634263.2764   -2158069.20747  -1670123.77163
  23759670.1514   -2316425.45345  -1642597.79161
 91  4 11 21 42 14.9990000  0  6G18G 2G11G16G19G 6
  21539501.089     4560447.329 7   3547986.23422
  21906716.823   -10851166.640 7  -8369933.48222
  22472346.526    -5355609.676 6  -4113402.51421
  23779132.581    -1847226.364 5  -1399493.48721
  20633572.5424   -2161696.74947  -1672950.43162
  23751817.7924   -2357673.18945  -1674738.75761
 91  4 11 21 42 29.9990000  0  6G18G 2G11G16G19G 6
  21545679.401     4592914.729 7   3573285.42922
  21899117.7694  -10891103.44447  -8401052.98662
  22471062.690    -5362353.130 6  -4118657.14321
  23776777.2694   -1859622.57345  -1409152.90661
  20632892.2304   -2165278.77847  -1675741.62562
  23743970.378    -2398926.701 5  -1706884.21621
 91  4 11 21 42 44.9990000  0  6G18G 2G11G16G19G 6
  21551875.276     4625477.311 7   3598658.79722
  21891532.097   -10930962.630 7  -8432112.00722
  22469810.644    -5368936.775 6  -4123787.24221
  23774444.9334   -1871882.16545  -1418705.84161
  20632221.3554   -2168801.88047  -1678486.90363
  23736120.917    -2440172.376 5  -1739023.57521
 91  4 11 21 42 59.9990000  0  6G18G 2G11G16G19G 6
  21558088.386     4658126.516 7   3624099.65622
  21883960.401   -10970752.426 7  -8463116.96122
  22468584.800    -5375369.008 6  -4128799.35621
  23772136.2374   -1884013.41945  -1428158.80161
  20631560.1674   -2172274.36447  -1681192.74063
  23728270.9254   -2481418.70245  -1771163.44761
 91  4 11 21 43 14.9990000  0  6G18G 2G11G16G19G 6
  21564318.034     4690864.527 7   3649609.71822
  21876402.7844  -11010470.47447  -8494066.00662
  22467390.6904   -5381647.39446  -4133691.60361
  23769850.4874   -1896013.86645  -1437509.80261
  20630910.1284   -2175693.66047  -1683857.13162
  23720422.1594   -2522663.18545  -1803301.88561
 91  4 11 21 43 29.9990000  0  6G18G 2G11G16G19G 6
  21570564.042     4723686.714 7   3675185.37022
  21868857.347   -11050121.427 7  -8524962.76922
  22466224.4174   -5387776.57446  -4138467.57861
  23767590.948    -1907888.200 5  -1446762.55821
  20630269.3084   -2179064.28547  -1686483.59963
  23712576.6594   -2563910.44445  -1835442.49261
 91  4 11 21 43 44.9990000  0  6G18G 2G11G16G19G 6
  21576825.550     4756596.789 7   3700829.50522
  21861326.0584  -11089701.35147  -8555804.17962
  22465089.4484   -5393752.29246  -4143123.97061
  23765357.1834   -1919632.71645  -1455914.14161
  20629635.3624   -2182381.91747  -1689068.76962
  23704724.128    -2605156.467 5  -1867582.10421
 91  4 11 21 43 59.9990000  0  6G18G 2G11G16G19G 6
  21583106.644     4789601.022 7   3726547.01222
  21853808.5584  -11129203.48047  -8586584.97662
  22463981.011    -5399568.135 6  -4147655.78221
  23763152.3084   -1931240.96845  -1464959.54261
  20629017.8474   -2185640.18747  -1691607.68762
  23696878.8864   -2646394.75145  -1899715.69561
 91  4 11 21 44 14.9990000  0  6G18G 2G11G16G19G 6
  21589402.800     4822686.707 7   3752327.98322
  21846302.784   -11168640.068 7  -8617314.70722
  22462903.245    -5405236.529 6  -4152072.69821
  23760966.2454   -1942725.32845  -1473908.42361
  20628405.8864   -2188851.44747  -1694109.97563
  23689030.831    -2687637.806 5  -1931853.00521
 91  4 11 21 44 29.9990000  0  6G18G 2G11G16G19G 6
  21595716.862     4855858.369 7   3778175.95222
  21838812.7224  -11208006.50347  -8647989.75762
  22461853.417    -5410752.919 6  -4156371.17221
  23758805.4724   -1954081.03445  -1482757.03461
  20627802.9954   -2192010.89547  -1696571.88563
  23681180.8234   -2728881.03245  -1963990.46761
 91  4 11 21 44 44.9990000  0  6G18G 2G11G16G19G 6
  21602046.831     4889119.367 7   3804093.53922
  21831335.7924  -11247299.25047  -8678607.40262
  22460832.9404   -5416113.72146  -4160548.41161
  23756663.972    -1965304.788 5  -1491502.85321
  20627212.9404   -2195114.72147  -1698990.45962
  23673331.987    -2770120.792 5  -1996125.24021
 91  4 11 21 44 59.9990000  0  6G18G 2G11G16G19G 6
  21608392.331     4922467.616 7   3830079.10822
  21823870.9094  -11286519.95447  -8709168.90062
  22459842.175    -5421320.516 6  -4164605.63721
  23754556.714    -1976398.285 5  -1500147.15621
  20626633.3084   -2198164.50347  -1701366.91862
  23665486.3154   -2811358.77945  -2028258.61061
 91  4 11 21 45 14.9990000  0  6G18G 2G11G16G19G 6
  21614753.433     4955899.490 7   3856129.84022
  21816421.3554  -11325672.31347  -8739677.13562
  22458881.214    -5426376.822 6  -4168545.60321
  23752471.573    -1987365.012 5  -1508692.68121
  20626060.9724   -2201163.73947  -1703703.99063
  23657637.526    -2852598.688 5  -2060393.47021
 91  4 11 21 45 29.9990000  0  6G18G 2G11G16G19G 6
  21621130.698     4989414.104 7   3882245.04522
  21808984.0734  -11364756.97147  -8770132.62462
  22457945.4874   -5431283.37646  -4172368.88961
  23750410.9644   -1998205.92845  -1517140.17661
  20625500.4334   -2204113.13247  -1706002.22362
  23649790.5654   -2893841.30645  -2092530.44761
 91  4 11 21 45 44.9990000  0  6G18G 2G11G16G19G 6
  21627525.769     5023018.624 7   3908430.30422
  21801559.917   -11403766.101 7  -8800529.26422
  22457040.7534   -5436032.50946  -4176069.50161
  23748370.230    -2008913.443 5  -1525483.70521
  20624952.3004   -2207005.20047  -1708255.78463
  23641941.792    -2935078.881 5  -2124663.49821
 91  4 11 21 45 59.9990000  0  6G18G 2G11G16G19G 6
  21633935.769     5056706.374 7   3934680.42122
  21794151.0034  -11442706.09747  -8830872.03062
  22456167.222    -5440630.699 6  -4179652.49521
  23746356.909    -2019494.194 5  -1533728.46521
  20624410.0264   -2209846.13647  -1710469.50962
  23634092.1834   -2976317.88545  -2156797.65161
 91  4 11 21 46 14.9990000  0  6G18G 2G11G16G19G 6
  21640361.480     5090480.794 7   3960998.07022
  21786754.6204  -11481573.28547  -8861158.06162
  22455322.2304   -5445074.27546  -4183115.02261
  23744365.9804   -2029944.54045  -1541871.60161
  20623880.6984   -2212632.18947  -1712640.46562
  23626247.0654   -3017554.59245  -2188930.02561
 91  4 11 21 46 29.9990000  0  6G18G 2G11G16G19G 6
  21646806.597     5124341.564 7   3987383.00422
  21779371.0264  -11520367.62447  -8891387.32762
  22454504.2304   -5449363.36946  -4186457.16661
  23742400.7694   -2040264.28345  -1549912.99161
  20623359.9254   -2215363.44247  -1714768.71762
  23618400.253    -3058789.192 5  -2221060.75321
 91  4 11 21 46 44.9990000  0  6G18G 2G11G16G19G 6
  21653263.894     5158283.808 7   4013831.42622
  21772002.6444  -11559093.84447  -8921563.51062
  22453715.8394   -5453502.61146  -4189682.54261
  23740461.862    -2050458.650 5  -1557856.67321
  20622850.3784   -2218044.54947  -1716857.89462
  23610553.3314   -3100026.46745  -2253193.54861
 91  4 11 21 46 59.9990000  0  6G18G 2G11G16G19G 6
  21659738.308     5192313.554 7   4040348.02722
  21764647.1284  -11597745.89747  -8951681.90162
  22452957.1514   -5457485.91546  -4192786.41161
  23738550.448    -2060521.368 5  -1565697.74821
  20622351.5734   -2220669.13047  -1718903.02762
  23602705.019    -3141260.219 5  -2285323.60821
 91  4 11 21 47 14.9990000  0  6G18G 2G11G16G19G 6
  21666230.839     5226424.350 7   4066927.78922
  21757304.8784  -11636329.95047  -8981747.31162
  22452229.9484   -5461319.39946  -4195773.52961
  23736657.480    -2070458.684 5  -1573441.12921
  20621862.0974   -2223243.22547  -1720908.81962
  23594858.940    -3182496.701 5  -2317455.81621
 91  4 11 21 47 29.9990000  0  6G18G 2G11G16G19G 6
  21672739.097     5260615.946 7   4093570.50822
  21749975.6284  -11674845.43847  -9011759.28962
  22451528.6204   -5465002.75146  -4198643.66861
  23734791.7694   -2080270.59745  -1581086.81461
  20621378.8154   -2225766.53547  -1722875.04662
  23587011.370    -3223735.542 5  -2349589.84121
 91  4 11 21 47 44.9990000  0  6G18G 2G11G16G19G 6
  21679261.995     5294892.816 7   4120279.68022
  21742659.8314  -11713288.14047  -9041714.55362
  22450858.6984   -5468531.53846  -4201393.36461
  23732949.230    -2089952.469 5  -1588631.16021
  20620910.6204   -2228234.45047  -1724798.09662
  23579164.136    -3264972.363 5  -2381722.31221
 91  4 11 21 47 59.9990000  0  6G18G 2G11G16G19G 6
  21685799.097     5329246.191 7   4147048.46022
  21735356.3004  -11751666.51747  -9071619.69462
  22450212.1984   -5471914.46746  -4204029.40161
  23731129.370    -2099513.086 5  -1596080.99721
  20620452.5584   -2230655.50347  -1726684.63762
  23571315.839    -3306215.795 5  -2413859.92521
 91  4 11 21 48 14.9990000  0  6G18G 2G11G16G19G 6
  21692351.940     5363681.199 7   4173880.85022
  21728067.190   -11789975.095 7  -9101470.45222
  22449600.6284   -5475146.06646  -4206547.52561
  23729333.995    -2108947.038 5  -1603432.15221
  20619997.8554   -2233024.15247  -1728530.34162
  23563469.5504   -3347460.32045  -2445998.39661
 91  4 11 21 48 29.9990000  0  6G18G 2G11G16G19G 6
  21698922.589     5398203.692 7   4200781.41622
  21720790.800   -11828207.630 7  -9131261.95422
  22449013.1124   -5478220.10746  -4208942.87361
  23727564.753    -2118248.363 5  -1610679.96521
  20619562.3314   -2235334.19047  -1730330.37462
  23555619.808    -3388699.927 5  -2478133.02721
 91  4 11 21 48 44.9990000  0  6G18G 2G11G16G19G 6
  21705507.753     5432814.237 7   4227750.59022
  21713530.3154  -11866363.56147  -9160993.75962
  22448461.4954   -5481136.07146  -4211215.05161
  23725823.9804   -2127416.21145  -1617823.76361
  20619130.6284   -2237584.70847  -1732084.02862
  23547774.026    -3429933.864 5  -2510263.27421
 91  4 11 21 48 59.9990000  0  6G18G 2G11G16G19G 6
  21712109.214     5467501.230 7   4254779.33122
  21706281.511   -11904454.009 7  -9190674.54522
  22447931.7924   -5483905.14146  -4213372.75661
  23724097.605    -2136462.031 5  -1624872.49121
  20618712.1364   -2239787.09647  -1733800.17862
  23539925.331    -3471173.487 5  -2542397.92721
 91  4 11 21 49 14.9990000  0  6G18G 2G11G16G19G 6
  21718723.675     5502268.608 7   4281870.71522
  21699046.120   -11942474.733 7  -9220300.99622
  22447433.5424   -5486523.08046  -4215412.70361
  23722399.628    -2145381.701 5  -1631822.90721
  20618304.7064   -2241936.93647  -1735475.37762
  23532076.839    -3512414.380 5  -2574533.57721
 91  4 11 21 49 29.9990000  0  6G18G 2G11G16G19G 6
  21725354.456     5537117.931 7   4309025.94322
  21691826.206   -11980423.781 7  -9249871.60022
  22446965.6204   -5488988.13646  -4217333.52461
  23720728.3154   -2154173.68845  -1638673.82061
  20617903.6124   -2244032.27947  -1737108.12162
  23524227.573    -3553654.835 5  -2606668.86621
 91  4 11 21 49 44.9990000  0  6G18G 2G11G16G19G 6
  21732001.800     5572046.315 7   4336242.77922
  21684617.5654  -12018304.09347  -9279388.64662
  22446524.050    -5491303.091 6  -4219137.37521
  23719078.237    -2162840.888 5  -1645427.51421
  20617515.6444   -2246075.97047  -1738700.60862
  23516379.136    -3594897.653 5  -2638806.03521
 91  4 11 21 49 59.9990000  0  6G18G 2G11G16G19G 6
  21738663.605     5607052.474 7   4363520.21922
  21677420.034   -12056116.758 7  -9308852.98022
  22446112.3944   -5493469.08846  -4220825.16361
  23717454.4404   -2171384.20945  -1652084.65861
  20617134.6444   -2248068.93847  -1740253.57662
  23508532.183    -3636143.970 5  -2670945.89221
 91  4 11 21 50 14.9990000  0  6G18G 2G11G16G19G 6
  21745340.073     5642133.627 7   4390856.09822
  21670237.003   -12093863.821 7  -9338266.18522
  22445728.7694   -5495488.40646
  23715851.9564   -2179806.18945  -1658647.26861
  20616766.2614   -2250013.31747
  23500683.4404   -3677396.15745  -2703090.33961
 91  4 11 21 50 29.9990000  0  6G18G 2G11G16G19G 6
  21752030.9174    5677298.00147   4418256.82062
  21663069.987   -12131537.167 7  -9367621.95522
  22445374.0264   -5497352.77846
  23714269.7924   -2188098.67145  -1665108.98561
  20616407.7454   -2251900.84446
  23492832.2454   -3718645.73445  -2735232.75761
 91  4 11 21 50 44.9990000  0  6G18G 2G11G16G19G 6
  21758737.2924    5712537.89947   4445716.39462
  21655912.636   -12169144.236 7  -9396926.08722
  22445048.4644   -5499069.72146  -4225189.27662
  23712716.4094   -2196268.82745  -1671475.34561
  20616056.7064   -2253738.73047  -1744671.60163
  23484984.440    -3759900.358 5  -2767379.09521
 91  4 11 21 50 59.9990000  0  6G18G 2G11G16G19G 6
  21765458.2374    5747856.96147   4473237.64762
  21648769.456   -12206680.983 7  -9426175.41722
  22444750.4014   -5500635.37546  -4226409.25761
  23711185.6054   -2204313.31645  -1677743.81861
  20615719.4014   -2255523.18747  -1746062.09562
  23477130.636    -3801156.100 5  -2799526.33821
 91  4 11 21 51 14.9990000  0  6G18G 2G11G16G19G 6
  21772195.0504    5783258.64147   4500823.28362
  21641641.081   -12244143.723 7  -9455367.07622
  22444479.894    -5502046.016 6  -4227508.45021
  23709677.5194   -2212228.60145  -1683911.61461
  20615390.3474   -2257250.25047  -1747407.86162
  23469279.8624   -3842409.28945  -2831671.54661
 91  4 11 21 51 29.9990000  0  6G18G 2G11G16G19G 6
  21778946.0894    5818735.02947   4528467.13362
  21634523.4874  -12281540.05347  -9484506.99062
  22444240.4724   -5503309.36446  -4228492.87561
  23708198.2454   -2220022.21245  -1689984.56861
  20615069.4724   -2258927.43147  -1748714.75662
  23461429.4954   -3883667.41245  -2863820.62761
 91  4 11 21 51 44.9990000  0  6G18G 2G11G16G19G 6
  21785713.8554    5854286.40347   4556169.40762
  21627420.722   -12318869.202 7  -9513594.55522
  22444030.0504   -5504424.72346  -4229361.97662
  23706737.503    -2227693.377 5  -1695962.12221
  20614760.5034   -2260554.05847  -1749982.26263
  23453576.3864   -3924929.91845  -2895973.10361
 91  4 11 21 51 59.9990000  0  6G18G 2G11G16G19G 6
  21792492.2454    5889918.28547   4583934.42262
  21620331.792   -12356125.399 7  -9542625.26722
  22443846.9804   -5505386.61346  -4230111.50161
  23705300.4014   -2235236.68245  -1701840.06161
  20614461.0974   -2262124.31847  -1751205.84162
  23445724.5264   -3966191.15245  -2928124.59561
 91  4 11 21 52 14.9990000  0  6G18G 2G11G16G19G 6
  21799286.8704    5925623.26247   4611756.38362
  21613253.112   -12393316.130 7  -9571604.97622
  22443690.7694   -5506202.20146  -4230747.02661
  23703891.831    -2242659.516 5  -1707624.12821
  20614172.6054   -2263645.46547  -1752391.15363
  23437871.9334   -4007458.35445  -2960280.74861
 91  4 11 21 52 29.9990000  0  6G18G 2G11G16G19G 6
  21806097.1594    5961416.98647   4639647.50062
  21606192.511   -12430425.482 7  -9600521.26922
  22443564.9564   -5506855.52746  -4231256.11161
  23702502.401    -2249946.117 5  -1713302.01621
  20613895.4174   -2265101.45947  -1753525.70063
  23430021.6904   -4048715.62345  -2992429.14761
 91  4 11 21 52 44.9990000  0  6G18G 2G11G16G19G 6
  21812923.8474    5997289.90547   4667600.32962
  21599144.3084  -12467462.60147  -9629381.27962
  22443470.1124   -5507355.90646  -4231646.01861
  23701136.9254   -2257105.67045  -1718880.93161
  20613628.3624   -2266501.46247  -1754616.61163
  23422169.1204   -4089972.13945  -3024576.95661
 91  4 11 21 52 59.9990000  0  6G18G 2G11G16G19G 6
  21819765.5734    6033243.67847   4695616.16262
  21592109.167   -12504425.431 7  -9658183.39622
  22443403.4874   -5507701.46046  -4231915.28361
  23699805.2454   -2264136.56145  -1724359.57361
  20613375.8314   -2267843.43647  -1755662.30963
  23414317.659    -4131226.026 5  -3056722.70621
 91  4 11 21 53 14.9990000  0  6G18G 2G11G16G19G 6
  21826622.1674    6069270.31147   4723688.76662
  21585089.542   -12541321.880 7  -9686933.79922
  22443366.8784   -5507900.05246
  23698487.8864   -2271046.39445  -1729743.89361
  20613128.3084   -2269135.13847  -1756668.83663
  23406470.1204   -4172485.13445  -3088872.54061
 91  4 11 21 53 29.9990000  0  6G18G 2G11G16G19G 6
  21833491.4014    6105368.99147   4751817.51062
  21578079.917   -12578152.402 7  -9715632.81922
  22443357.1364   -5507952.28946
  23697194.081    -2277835.934 5  -1735034.47921
  20612890.1054   -2270376.87947  -1757636.42662
  23398616.761    -4213749.969 5  -3121026.81221
 91  4 11 21 53 44.9990000  0  6G18G 2G11G16G19G 6
  21840377.1364    6141549.69747   4780010.17262
  21571085.917   -12614906.567 7  -9744272.34422
  22443376.0114   -5507848.02046
  23695932.4644   -2284495.29945  -1740223.63561
  20612665.9804   -2271558.38547  -1758557.08362
  23390765.6514   -4255010.29045  -3153177.57361
 91  4 11 21 53 59.9990000  0  6G18G 2G11G16G19G 6
  21847276.3394    6177805.66247   4808261.47762
  21564105.667   -12651591.199 7  -9772857.69022
  22443422.0734   -5507594.07046
  23694684.0584   -2291031.29245  -1745316.65961
  20612454.1054   -2272686.32946  -1759436.00062
  23382913.300    -4296272.797 5  -3185330.03521
 91  4 11 21 54 14.9990000  0  6G18G 2G11G16G19G 6
  21854191.8624    6214146.05147   4836578.56362
  21557138.940   -12688196.624 7  -9801381.32222
  22443500.8784   -5507180.76046
  23693468.7694   -2297434.17345  -1750305.92661
  20612249.7144   -2273750.95147  -1760265.58262
  23375063.3084   -4337527.74245  -3217476.61561
 91  4 11 21 54 29.9990000  0  6G18G 2G11G16G19G 6
  21861122.081     6250561.572 7   4864954.19222
  21550186.800   -12724732.099 7  -9829850.44222
  22443610.3554   -5506617.43346  -4231070.60661
  23692269.894    -2303713.461 5  -1755198.92921
  20612056.0344   -2274761.51547  -1761053.03262
  23367211.9724   -4378784.54745  -3249624.63361
 91  4 11 21 54 44.9990000  0  6G18G 2G11G16G19G 6
  21868066.190     6287052.805 6   4893388.81922
  21543248.011   -12761196.737 7  -9858264.36522
  22443747.1444   -5505903.19546  -4230514.05462
  23691101.7534   -2309868.39645  -1759995.00161
  20611874.4094   -2275717.00647  -1761797.57163
  23359359.378    -4420042.340 5  -3281773.41721
 91  4 11 21 54 59.9990000  0  6G18G 2G11G16G19G 6
  21875022.245     6323617.294 6   4921880.52722
  21536321.034   -12797592.432 7  -9886624.56822
  22443912.3704   -5505040.00146  -4229841.43761
  23689951.339    -2315900.984 5  -1764695.76121
  20611702.9954   -2276619.11547  -1762500.51763
  23351506.7844   -4461302.90345  -3313924.36361
 91  4 11 21 55 14.9990000  0  6G18G 2G11G16G19G 6
  21881994.815     6360258.233 6   4950431.80522
  21529410.120   -12833915.732 7  -9914928.35422
  22444104.4254   -5504024.51546  -4229050.15261
  23688826.331    -2321807.844 5  -1769298.55921
  20611541.3944   -2277464.31747  -1763159.11863
  23343654.8624   -4502562.86745  -3346074.84961
 91  4 11 21 55 29.9990000  0  6G18G 2G11G16G19G 6
  21888982.550     6396973.537 6   4979041.03022
  21522510.933   -12870168.477 7  -9943177.17822
  22444324.3154   -5502858.73646  -4228141.75461
  23687729.175    -2327591.196 5  -1773805.10421
  20611391.9404   -2278254.48447  -1763774.83863
  23335803.6364   -4543824.24845  -3378226.41961
 91  4 11 21 55 44.9990000  0  6G18G 2G11G16G19G 6
  21895982.0654    6433761.01946   5007706.49862
  21515624.925   -12906353.012 7  -9971372.83922
  22444575.7224   -5501544.85346  -4227117.95562
  23686651.0344   -2333253.03145  -1778216.96061
  20611251.5264   -2278991.77547  -1764349.35363
  23327952.4644   -4585089.13845  -3410380.73961
 91  4 11 21 55 59.9990000  0  6G18G 2G11G16G19G 6
  21902997.628     6470624.710 6   5036431.34722
  21508753.503   -12942464.889 7  -9999511.89022
  22444856.4644   -5500078.57146  -4225975.39961
  23685599.214    -2338789.212 5  -1782530.90821
  20611122.8394   -2279671.85247  -1764879.28163
  23320096.667    -4626353.240 5  -3442534.44521
 91  4 11 21 56 14.9990000  0  6G18G 2G11G16G19G 6
  21910028.386     6507566.534 6   5065217.07622
  21501895.761   -12978501.663 7 -10027592.42822
  22445162.0894   -5498457.62946  -4224712.33061
  23684567.0344   -2344197.82345  -1786745.43661
  20611005.7304   -2280291.97447  -1765362.50163
  23312247.5504   -4667614.16445  -3474685.66961
 91  4 11 21 56 29.9990000  0  6G18G 2G11G16G19G 6
  21917071.487     6544580.467 6   5094058.99922
  21495050.612   -13014469.100 7 -10055618.92222
  22445500.9014   -5496687.88746  -4223333.31461
  23683559.230    -2349484.702 5  -1790865.11521
  20610895.4174   -2280858.03747  -1765803.58663
  23304396.042    -4708877.719 5  -3506838.94021
 91  4 11 21 56 44.9990000  0  6G18G 2G11G16G19G 6
  21924130.019     6581671.883 6   5122961.29422
  21488221.6284  -13050361.83947 -10083587.21962
  22445865.5504   -5494763.86046  -4221834.07861
  23682583.425    -2354644.060 5  -1794885.43921
  20610801.6444   -2281364.39147  -1766198.13563
  23296542.4954   -4750138.30345  -3538989.90161
 91  4 11 21 56 59.9980000  0  6G18G 2G11G16G19G 6
  21931201.397     6618832.578 6   5151917.57422
  21481404.131   -13086182.897 7 -10111499.65722
  22446261.1544   -5492691.27546  -4220219.08062
  23681622.7954   -2359681.41645  -1798810.66761
  20610714.0294   -2281816.56747  -1766550.48963
  23288691.678    -4791398.808 5  -3571140.79521
 91  4 11 21 57 14.9980000  0  6G18G 2G11G16G19G 6
  21938286.740     6656067.928 6   5180932.03122
  21474600.647   -13121936.044 7 -10139359.17722
  22446684.6314   -5490469.11146  -4218487.52661
  23680685.0764   -2364596.68845  -1802640.78461
  20610636.7014   -2282213.39146  -1766859.70163
  23280838.889    -4832663.663 5  -3603295.08621
 91  4 11 21 57 29.9980000  0  6G18G 2G11G16G19G 6
  21945383.943     6693369.223 6   5209997.86722
  21467809.725   -13157624.753 7 -10167168.49022
  22447133.482    -5488103.308 6  -4216644.05221
  23679773.9754   -2369395.66545  -1806380.30561
  20610571.1474   -2282560.59746  -1767130.25463
  23272983.3894   -4873936.00445  -3635455.21461
 91  4 11 21 57 44.9980000  0  6G18G 2G11G16G19G 6
  21952497.850     6730743.588 6   5239120.64122
  21461031.592   -13193242.058 7 -10194922.15722
  22447611.5684   -5485586.95046  -4214683.25261
  23678886.3034   -2374071.36645  -1810023.73461
  20610519.5844   -2282851.15946  -1767356.66863
  23265133.092    -4915208.891 5  -3667615.76121
 91  4 11 21 57 59.9980000  0  6G18G 2G11G16G19G 6
  21959623.897     6768193.155 6   5268302.01321
  21454267.615   -13228785.498 7 -10222618.27222
  22448117.7724   -5482917.66846  -4212603.29762
  23678018.201    -2378621.479 5  -1813569.29121
  20610474.4514   -2283082.47846  -1767536.92263
  23257278.037    -4956479.802 5  -3699774.78221
 91  4 11 21 58 14.9980000  0  6G18G 2G11G16G19G 6
  21966763.834     6805713.811 6   5297538.77821
  21447517.3814  -13264259.05347 -10250259.93063
  22448655.2644   -5480099.52046  -4210407.33662
  23677174.1004   -2383049.97945  -1817020.11061
  20610439.3504   -2283258.49247  -1767674.07864
  23249422.139    -4997752.721 5  -3731935.35621
 91  4 11 21 58 29.9980000  0  6G18G 2G11G16G19G 6
  21973917.561     6843302.287 6   5326828.39321
  21440780.607   -13299665.446 7 -10277849.25022
  22449219.1154   -5477135.49246  -4208097.70961
  23676355.084    -2387359.942 5  -1820378.56921
  20610417.5764   -2283381.93346
  23241569.4044   -5039030.51445  -3764099.74661
 91  4 11 21 58 44.9980000  0  6G18G 2G11G16G19G 6
  21981083.639     6880961.564 6   5356173.17122
  21434056.107   -13335001.513 7 -10305383.77822
  22449811.9984   -5474022.29446  -4205671.84261
  23675557.514    -2391548.202 5  -1823642.18421
  20610405.9124   -2283449.36846
  23233713.2724   -5080309.86145  -3796265.34161
 91  4 11 21 58 59.9980000  0  6G18G 2G11G16G19G 6
  21988262.951     6918687.710 6   5385570.05821
  21427343.818   -13370270.791 7 -10332866.26123
  22450431.9434   -5470763.59546  -4203132.60261
  23674783.5924   -2395618.39745  -1826813.80061
  20610402.9204   -2283464.36846
  23225858.162    -5121594.306 5  -3828434.91421
 91  4 11 21 59 14.9980000  0  6G18G 2G11G16G19G 6
  21995455.897     6956481.671 6   5415019.78721
  21420644.5534  -13405472.19047 -10360295.85562
  22451080.9204   -5467358.56346  -4200479.33162
  23674031.2014   -2399569.87645  -1829892.90961
  20610409.5924   -2283426.06146
  23218001.4284   -5162882.96245  -3860607.75961
 91  4 11 21 59 29.9980000  0  6G18G 2G11G16G19G 6
  22002661.076     6994353.143 6   5444529.91421
  21413959.904   -13440595.986 7 -10387664.97222
  22451759.4904   -5463797.38846  -4197704.39161
  23673305.139    -2403392.730 5  -1832871.78021
  20610426.6474   -2283324.26146
  23210143.6154   -5204165.94845  -3892776.20261
 91  4 11 21 59 44.9980000  0  6G18G 2G11G16G19G 6
  22009879.818     7032285.691 6   5474087.62821
  21407288.873   -13475657.979 7 -10414985.93222
  22452462.5924   -5460096.01946  -4194820.21662
  23672597.1074   -2407103.23245  -1835763.13561
  20610457.311    -2283174.564 6
  23202285.4514   -5245459.03945  -3924952.51261
 91  4 11 21 59 59.9980000  0  6G18G 2G11G16G19G 6
  22017112.647     7070292.008 6   5503702.83221
  21400631.357   -13510645.214 7 -10442248.64122
  22453196.3654   -5456241.65946  -4191816.82561
  23671914.967    -2410688.595 5  -1838556.94121
  20610493.600    -2282964.123 6
  23194427.5614   -5286749.34845  -3957126.65461
 91  4 11 22  0 14.9980000  0  6G18G 2G11G16G19G 6
  22024359.639     7108372.002 6   5533375.43721
  21393987.100   -13545557.558 7 -10469452.99222
  22453960.9984   -5452234.25246  -4188694.17261
  23671257.5294   -2414148.60845  -1841253.13961
  20610543.8344   -2282692.68847  -1767233.25863
  23186570.7564   -5328036.70145  -3989298.50361
 91  4 11 22  0 29.9980000  0  6G18G 2G11G16G19G 6
  22031619.561     7146521.850 6   5563102.48021
  21387357.373   -13580398.684 7 -10496601.84522
  22454748.9674   -5448077.46846  -4185455.11861
  23670621.553    -2417487.179 5  -1843854.63321
  20610612.9204   -2282363.95946  -1766977.11663
  23178712.811    -5369324.799 5  -4021470.93321
 91  4 11 22  0 44.9980000  0  6G18G 2G11G16G19G 6
  22038890.951     7184744.004 6   5592885.86621
  21380741.584   -13615165.648 7 -10523692.91622
  22455572.1154   -5443768.60346  -4182097.56361
  23670009.131    -2420701.575 5  -1846359.40321
  20610682.006    -2281974.906 7  -1766673.97024
  23170858.1154   -5410610.81545  -4053641.73761
 91  4 11 22  0 59.9980000  0  6G18G 2G11G16G19G 6
  22046178.357     7223037.265 6   5622724.65521
  21374138.920   -13649859.334 7 -10550726.88322
  22456417.7014   -5439308.64846  -4178622.27261
  23669422.8264   -2423793.13845  -1848768.44761
  20610770.2174   -2281526.36746  -1766324.46864
  23163003.287    -5451895.575 5  -4085811.57321
 91  4 11 22  1 14.9980000  0  6G18G 2G11G16G19G 6
  22053479.904     7261398.946 6   5652616.76121
  21367550.928   -13684482.236 7 -10577705.69522
  22457296.2404   -5434700.25946  -4175031.31961
  23668856.865    -2426764.161 5  -1851083.58321
  20610864.5534   -2281020.65747  -1765930.41963
  23155146.1154   -5493181.56045  -4117982.34861
 91  4 11 22  1 29.9980000  0  6G18G 2G11G16G19G 6
  22060791.8814    7299824.80046   5682558.86861
  21360974.631   -13719038.443 7 -10604632.53422
  22458200.5144   -5429947.63746  -4171327.98261
  23668314.537    -2429618.854 5  -1853308.03921
  20610971.1544   -2280461.85746  -1765495.00264
  23147288.217    -5534472.786 5  -4150157.22621
 91  4 11 22  1 44.9980000  0  6G18G 2G11G16G19G 6
  22068115.8734    7338318.04146   5712553.48461
  21354411.6864  -13753524.52347 -10631504.73462
  22459134.8504   -5425047.42546  -4167509.63661
  23667791.8814   -2432353.89145  -1855439.26661
  20611086.287    -2279846.335 7  -1765015.38623
  23139429.3654   -5575765.85345  -4182333.52961
 91  4 11 22  1 59.9980000  0  6G18G 2G11G16G19G 6
  22075456.068     7376881.268 6   5742602.63721
  21347864.209   -13787937.603 7 -10658320.05023
  22460093.4434   -5419996.65546  -4163573.97361
  23667295.4594   -2434966.66645  -1857475.25061
  20611217.889    -2279171.010 6  -1764489.17223
  23131570.928    -5617057.691 5  -4214508.88421
 91  4 11 22  2 14.9980000  0  6G18G 2G11G16G19G 6
  22082807.107     7415512.488 6   5772704.77221
  21341328.7954  -13822279.59147 -10685079.96963
  22461083.1784   -5414797.27446  -4159522.50961
  23666820.6704   -2437459.25945  -1859417.57361
  20611354.967    -2278437.704 7  -1763917.78023
  23123715.5224   -5658350.20445  -4246684.75761
 91  4 11 22  2 29.9980000  0  6G18G 2G11G16G19G 6
  22090170.615     7454208.816 6   5802857.64321
  21334807.2324  -13856552.93047 -10711786.40063
  22462099.7644   -5409452.11546  -4155357.45161
  23666370.1004   -2439834.45245  -1861268.41061
  20611507.443    -2277648.982 7  -1763303.20223
  23115856.084    -5699645.981 5  -4278863.17821
 91  4 11 22  2 44.9980000  0  6G18G 2G11G16G19G 6
  22097546.4284    7492969.14546   5833060.37561
  21328297.5144  -13890758.21047 -10738439.79362
  22463144.0224   -5403961.89446  -4151079.36261
  23665941.5684   -2442092.63245  -1863028.05861
  20611666.662    -2276805.295 7  -1762645.79724
  23107995.3344   -5740945.67745  -4311044.63761
 91  4 11 22  2 59.9980000  0  6G18G 2G11G16G19G 6
  22104935.6704    7531793.06646   5863312.66561
  21321801.115   -13924895.852 7 -10765040.47923
  22464217.7874   -5398327.17346  -4146688.67561
  23665532.982    -2444234.539 5  -1864697.13621
  20611841.123    -2275906.942 6  -1761945.79524
  23100136.9754   -5782249.63845  -4343229.42861
 91  4 11 22  3 14.9980000  0  6G18G 2G11G16G19G 6
  22112335.764     7570684.631 6   5893617.66521
  21315319.412   -13958961.447 7 -10791585.02523
  22465317.4124   -5392543.59046  -4142181.98861
  23665149.006    -2446256.042 5  -1866272.38721
  20612019.3344   -2274949.37947  -1761199.65364
  23092275.6704   -5823553.48745  -4375414.13261
 91  4 11 22  3 29.9980000  0  5G18G 2G11G19G 6
  22119749.2724    7609644.89046   5923976.19461
  21308850.014   -13992953.612 7 -10818072.35623
  22466447.8974   -5386609.81646  -4137558.27461
  20612217.061    -2273931.183 6  -1760406.26523
  23084418.162    -5864855.779 5  -4407597.62021
 91  4 11 22  3 44.9980000  0  6G18G 2G11G16G19G 6
  22127175.7484    7648671.02246   5954386.04461
  21302394.553   -14026874.880 7 -10844504.44123
  22467604.6864   -5380528.40346  -4132819.51061
  23664447.9124         -0.45155
  20612419.998    -2272854.870 7  -1759567.59223
  23076559.131    -5906158.909 5  -4439781.76821
 91  4 11 22  3 59.9980000  0  6G18G 2G11G16G19G 6
  22134613.006     7687760.736 6   5984845.44521
  21295951.4984  -14060727.39447 -10870882.95262
  22468788.9904   -5374301.57546  -4127967.44461
  23664129.1474      -1664.44945
  20612634.0374   -2271722.41247  -1758685.17163
  23068699.3424   -5947465.02945  -4471968.23961
 91  4 11 22  4 14.9980000  0  6G18G 2G11G16G19G 6
  22142063.350     7726913.651 6   6015354.08921
  21289523.662   -14094511.166 7 -10897207.89723
  22470002.1234   -5367929.63946  -4123002.30661
  23663836.732       -3212.058 5
  20612858.959    -2270533.642 7  -1757758.86623
  23060836.9984   -5988774.21545  -4504157.09861
 91  4 11 22  4 29.9980000  0  6G18G 2G11G16G19G 6
  22149528.9364    7766138.17746   6045918.53961
  21283109.7794  -14128217.59747 -10923472.57763
  22471242.9364   -5361403.91846  -4117917.33161
  23663564.3734      -4634.66445
  20613099.1234   -2269279.82546  -1756781.87963
  23052977.029    -6030077.747 5  -4536341.56721
 91  4 11 22  4 44.9980000  0  6G18G 2G11G16G19G 6
  22157005.1784    7805427.94846   6076533.82861
  21276710.2094  -14161852.92347 -10949681.85763
  22472514.2874   -5354730.80346  -4112717.51061
  23663316.7484      -5938.73645        -0.22971
  20613348.381    -2267967.276 7  -1755759.12723
  23045116.8974   -6071381.83945  -4568526.45061
 91  4 11 22  4 59.9980000  0  6G18G 2G11G16G19G 6
  22164493.9124    7844780.97846   6107198.39861
  21270322.0454  -14195418.67547 -10975836.91863
  22473810.2484   -5347912.18046  -4107404.30061
  23663092.936       -7125.845 5      -925.31921
  20613612.0924   -2266597.44247  -1754691.73463
  23037257.443    -6112688.245 5  -4600713.15021
 91  4 11 22  5 14.9980000  0  5G18G 2G11G19G 6
  22171995.2014    7884199.78646   6137914.23661
  21263947.2174  -14228912.14147 -11001935.65663
  22475137.2794   -5340945.38446  -4101975.63561
  20613879.1934   -2265167.46447  -1753577.47663
  23029395.9284   -6153993.94045  -4632899.28161
 91  4 11 22  5 29.9980000  0  6G18G 2G11G16G19G 6
  22179507.9514    7923684.19346   6168681.18461
  21257588.4284  -14262333.16947 -11027977.94763
  22476490.6934   -5333830.26246  -4096431.39361
  23662705.6234         -0.83155
  20614168.1154   -2263677.00746  -1752416.09664
  23021534.6704   -6195298.88245  -4665084.83361
 91  4 11 22  5 44.9980000  0  6G18G 2G11G16G19G 6
  22187035.2564    7963231.22246   6199496.92761
  21251241.7094  -14295684.47047 -11053965.90663
  22477872.0534   -5326569.77946  -4090773.88162
  23662549.592        -832.778 5
  20614459.748    -2262128.787 7  -1751209.70424
  23013673.795    -6236605.887 5  -4697271.99321
 91  4 11 22  5 59.9980000  0  6G18G 2G11G16G19G 6
  22194572.3574    8002842.01846   6230362.35961
  21244909.5454  -14328964.72147 -11079898.50263
  22479282.2094   -5319162.66246  -4085002.11362
  23662415.764       -1547.246 5        -0.42031
  20614766.482    -2260521.314 7  -1749957.14223
  23005813.5224   -6277913.45645  -4729459.58861
 91  4 11 22  6 14.9980000  0  6G18G 2G11G16G19G 6
  22202122.0924    8042515.47746   6261276.61861
  21238589.2644  -14362174.57047 -11105776.24662
  22480719.9284   -5311609.56546  -4079116.59361
  23662300.693       -2144.729 5      -466.05321
  20615081.623    -2258855.096 7  -1748658.80623
  22997953.928    -6319222.114 5  -4761648.02621
 91  4 11 22  6 29.9980000  0  6G18G 2G11G16G19G 6
  22209684.2094    8082250.06046   6292238.50261
  21232282.5144  -14395315.60547 -11131600.36062
  22482186.3814   -5303912.32046  -4073118.75061
  23662209.7094      -2626.97945      -841.89861
  20615415.4514   -2257131.78046  -1747315.97263
  22990090.920    -6360533.537 5  -4793838.61421
 91  4 11 22  6 44.9980000  0  6G18G 2G11G16G19G 6
  22217256.3974    8122041.45446   6323244.66161
  21225987.7254  -14428391.62347 -11157373.81762
  22483675.225    -5296074.804 6  -4067011.61121
  23662140.8184      -2998.07445     -1131.07761
  20615747.975    -2255354.920 7  -1745931.41823
  22982229.4124   -6401851.45645  -4826034.27061
 91  4 11 22  6 59.9980000  0  6G18G 2G11G16G19G 6
  22224839.9044    8161897.04846   6354300.84261
  21219707.9514  -14461394.94847 -11183090.62663
  22485194.756    -5288089.544 6  -4060789.35021
  23662093.459       -3250.489 5     -1327.84721
  20616098.7484   -2253516.70246  -1744499.05563
  22974366.170    -6443168.270 5  -4858229.06121
 91  4 11 22  7 14.9980000  0  6G18G 2G11G16G19G 6
  22232437.8344    8201820.94146   6385410.24061
  21213443.0064  -14494321.21147 -11208747.39063
  22486743.850    -5279952.262 6  -4054448.62621
  23662065.6624      -3380.16445
  20616460.053    -2251612.684 7  -1743015.41723
  22966506.5684   -6484479.48445  -4890419.49561
 91  4 11 22  7 29.9980000  0  6G18G 2G11G16G19G 6
  22240047.8654    8241809.59846   6416570.10661
  21207190.201   -14527173.740 7 -11234346.69122
  22488321.287    -5271666.619 6  -4047992.29721
  23662064.6624      -3390.83945
  20616836.912    -2249646.410 6  -1741483.27423
  22958644.8184   -6525788.56345  -4922608.26461
 91  4 11 22  7 44.9980000  0  6G18G 2G11G16G19G 6
  22247676.9674    8281907.95946   6447815.45761
  21200961.1704  -14559907.29647 -11259853.29163
  22489934.193    -5263187.319 6  -4041385.07621
  23662093.490       -3237.346 5
  20617228.732    -2247572.294 7  -1739867.09223
  22950793.787    -6567050.156 5  -4954760.02621
 91  4 11 22  7 59.9980000  0  6G18G 2G11G16G19G 6
  22255320.545     8322072.151 6   6479112.09821
  21194746.7724  -14592565.52547 -11285301.19463
  22491576.350    -5254558.106 6  -4034661.03721
  23662147.6154      -2963.28045
  20617637.147    -2245433.808 7  -1738200.75123
  22942942.131    -6608307.808 5  -4986908.71521
 91  4 11 22  8 14.9980000  0  6G18G 2G11G16G19G 6
  22262976.2324    8362295.60146   6510454.90961
  21188545.4204  -14625154.76247 -11310695.33962
  22493244.139    -5245785.536 6  -4027825.28622
  23662217.443       -2575.285 5      -802.03921
  20618056.451    -2243237.318 7  -1736489.21823
  22935089.3184   -6649567.95145  -5019059.35261
 91  4 11 22  8 29.9980000  0  6G18G 2G11G16G19G 6
  22270641.092     8402582.280 6   6541846.99821
  21182357.9284  -14657670.64247 -11336032.32363
  22494943.061    -5236865.389 6  -4020874.54921
  23662315.100       -2069.147 5      -407.73721
  20618488.045    -2240978.201 6  -1734728.88323
  22927237.8264   -6690826.00745  -5051208.35661
 91  4 11 22  8 44.9980000  0  6G18G 2G11G16G19G 6
  22278317.506     8442923.736 6   6573281.76721
  21176182.9754  -14690121.41047 -11361318.56963
  22496665.764    -5227806.057 6  -4013815.34521
  23662432.928       -1453.344 5        72.08121
  20618924.990    -2238664.897 7  -1732926.32423
  22919384.959    -6732090.259 5  -5083362.19721
 91  4 11 22  8 59.9980000  0  6G18G 2G11G16G19G 6
  22286006.795     8483325.230 6   6604763.31721
  21170020.2014  -14722501.60147 -11386549.82262
  22498418.295    -5218602.292 6  -4006643.60021
  23662572.4204       -722.69845       641.32461
  20619378.967    -2236291.794 7  -1731077.16523
  22911533.6394   -6773355.38745  -5115516.71661
 91  4 11 22  9 14.9980000  0  6G18G 2G11G16G19G 6
  22293706.936     8523784.991 6   6636290.27221
  21163871.4044  -14754812.70347 -11411727.23963
  22500196.475    -5209255.575 6  -3999360.45621
  23662732.943         121.263 5      1298.90721
  20619839.373    -2233859.998 7  -1729182.27223
  22903680.412    -6814622.639 5  -5147672.89721
 91  4 11 22  9 29.9980000  0  6G18G 2G11G16G19G 6
  22301416.779     8564305.216 6   6667864.33521
  21157736.1474  -14787052.20547 -11436848.86063
  22502005.217    -5199763.568 6  -3991964.11521
  23662914.7644       1080.71245      2046.48761
  20620315.256    -2231367.056 7  -1727239.73623
  22895828.0064   -6855889.57345  -5179828.81661
 91  4 11 22  9 44.9980000  0  6G18G 2G11G16G19G 6
  22309138.4984    8604881.68746   6699482.23061
  21151614.7254  -14819224.04847 -11461917.76063
  22503835.623    -5190130.177 6  -3984457.59121
  23663116.5144       2152.03445      2881.21261
  20620799.068    -2228816.903 7  -1725252.61823
  22887974.1704   -6897159.87046  -5211987.37261
 91  4 11 22  9 59.9980000  0  6G18G 2G11G16G19G 6
  22316871.6544    8645515.21646   6731144.59161
  21145505.912   -14851327.108 7 -11486933.05923
  22505696.490    -5180354.658 6  -3976840.32321
  23663344.139        3335.710 5      3803.49021
  20621296.365    -2226208.491 7  -1723220.10123
  22880121.1784   -6938432.62545  -5244147.83661
 91  4 11 22 10 14.9980000  0  6G18G 2G11G16G19G 6
  22324613.764     8686207.429 6   6762852.66521
  21139410.162   -14883359.596 7 -11511893.36923
  22507583.623    -5170435.197 6  -3969110.89021
  23663589.9754       4633.52145      4814.71461
  20621802.795    -2223539.540 7  -1721140.41523
  22872266.053    -6979705.794 5  -5276308.62521
 91  4 11 22 10 29.9980000  0  6G18G 2G11G16G19G 6
  22332369.232     8726958.659 6   6794606.73721
  21133327.498   -14915320.923 7 -11536798.22423
  22509498.186    -5160371.360 6  -3961268.96321
  23663859.2874       6045.98345      5915.27061
  20622325.186    -2220809.466 7  -1719013.09523
  22864412.3654   -7020978.74045  -5308469.24261
 91  4 11 22 10 44.9980000  0  6G18G 2G11G16G19G 6
  22340132.561     8767760.010 6   6826399.85521
  21127257.615   -14947219.837 7 -11561654.45023
  22511438.842    -5150172.091 6  -3953321.49521
  23664150.162        7563.884 5      7097.99421
  20622852.811    -2218026.846 7  -1716844.83123
  22856555.2794   -7062260.27445  -5340636.54861
 91  4 11 22 10 59.9980000  0  6G18G 2G11G16G19G 6
  22347909.131     8808620.411 6   6858238.99621
  21121200.0764  -14979047.03147 -11586454.78863
  22513409.443    -5139828.361 6  -3945261.46721
  23664458.9044       9196.43745      8370.04361
  20623394.842    -2215182.361 7  -1714628.36423
  22848700.7484   -7103541.02745  -5372803.24361
 91  4 11 22 11 14.9980000  0  6G18G 2G11G16G19G 6
  22355694.311     8849537.852 6   6890122.57221
  21115157.5924  -15010804.24847 -11611200.60363
  22515403.178    -5129342.008 6  -3937090.30121
  23664791.123       10941.750 5      9729.96321
  20623945.272    -2212277.603 7  -1712364.92823
  22840844.6474   -7144822.73045  -5404970.68961
 91  4 11 22 11 29.9980000  0  6G18G 2G11G16G19G 6
  22363492.029     8890513.170 6   6922051.26021
  21109128.006   -15042490.425 7 -11635891.05823
  22517428.022    -5118711.980 6  -3928807.17721
  23665144.061       12800.755 5     11178.46821
  20624511.857    -2209311.550 7  -1710053.72923
  22832989.022    -7186104.245 5  -5437137.97621
 91  4 11 22 11 44.9980000  0  6G18G 2G11G16G19G 6
  22371299.764     8931543.949 6   6954023.15321
  21103112.522   -15074107.499 7 -11660527.66323
  22519476.568    -5107940.402 6  -3920413.75521
  23665515.3504      14771.10944     12713.74961
  20625086.107    -2206285.862 7  -1707696.06623
  22825132.2954   -7227387.48245  -5469306.61561
 91  4 11 22 11 59.9980000  0  6G18G 2G11G16G19G 6
  22379120.068     8972632.403 6   6986039.99221
  21097108.7254  -15105653.14147 -11685108.61463
  22521553.264    -5097025.087 6  -3911908.33721
  23665919.678       16855.165 5     14337.60521
  20625676.326    -2203198.173 7  -1705290.09023
  22817276.9824   -7268669.98645  -5501474.67961
 91  4 11 22 12 14.9980000  0  6G18G 2G11G16G19G 6
  22386949.2724    9013774.74646   7018098.82461
  21091118.1394  -15137130.87747 -11709636.65463
  22523658.998    -5085969.691 6  -3903293.75921
  23666334.818       19049.242 5     16047.20721
  20626272.7644   -2200051.75947  -1702838.35063
  22809420.115    -7309955.176 5  -5533644.83121
 91  4 11 22 12 29.9980000  0  6G18G 2G11G16G19G 6
  22394789.6474    9054971.49846   7050200.04261
  21085140.904   -15168540.013 7 -11734111.22923
  22525786.889    -5074773.846 6  -3894569.74321
  23666772.014       21353.498 4     17842.67521
  20626884.600    -2196845.952 7  -1700340.33223
  22801563.928    -7351242.607 5  -5565816.74021
 91  4 11 22 12 44.9980000  0  6G18G 2G11G16G19G 6
  22402638.115     9096221.423 6   7082342.70421
  21079177.506   -15199881.483 7 -11758533.08423
  22527944.123    -5063438.605 6  -3885737.10921
  23667233.522       23766.727 5     19723.01821
  20627503.537    -2193581.455 7  -1697796.58523
  22793706.795    -7392532.917 5  -5597990.89721
 91  4 11 22 12 59.9980000  0  6G18G 2G11G16G19G 6
  22410496.990     9137522.442 6   7114525.17621
  21073226.1474  -15231156.82047 -11782903.40663
  22530127.295    -5051965.779 6  -3876797.26721
  23667712.592       26287.345 4     21687.07221
  20628138.8574   -2190259.90546  -1695208.37363
  22785847.889    -7433827.686 5  -5630168.52221
 91  4 11 22 13 14.9980000  0  6G18G 2G11G16G19G 6
  22418368.881     9178882.273 6   7146753.47421
  21067288.7564  -15262358.37847 -11807216.24663
  22532339.264    -5040347.735 6  -3867744.27021
  23668213.3814      28923.24644     23740.93661
  20628781.397    -2186873.543 7  -1692569.66023
  22777991.2014   -7475119.31145  -5662343.69861
 91  4 11 22 13 29.9980000  0  6G18G 2G11G16G19G 6
  22426248.553     9220289.172 6   7179018.44621
  21061363.3034  -15293497.45747 -11831480.39963
  22534574.029    -5028595.812 6  -3858586.94621
  23668734.272       31662.800 4     25875.58821
  20629436.9824   -2183433.46546  -1689889.09363
  22770132.115    -7516418.749 5  -5694524.97221
 91  4 11 22 13 44.9980000  0  6G18G 2G11G16G19G 6
  22434136.3654    9261748.13546   7211323.98861
  21055450.2254  -15324568.82347 -11855691.78963
  22536839.045    -5016704.841 6  -3849321.26721
  23669277.967       34510.835 4     28094.75921
  20630101.365    -2179934.107 7  -1687162.33123
  22762272.772    -7557720.812 5  -5726708.27921
 91  4 11 22 13 59.9980000  0  6G18G 2G11G16G19G 6
  22442036.725     9303263.453 6   7243673.44421
  21049551.6154  -15355567.99447 -11879846.92463
  22539128.107    -5004670.721 6  -3839944.05721
  23669840.537       37471.536 4     30401.73021
  20630780.147    -2176371.375 7  -1684386.19223
  22754412.3974   -7599021.11445  -5758890.22061
 91  4 11 22 14 14.9980000  0  6G18G 2G11G16G19G 6
  22449949.1784    9344829.43546   7276062.37761
  21043664.3654  -15386500.36947 -11903950.01463
  22541443.115    -4992499.054 6  -3830459.66221
  23670426.764       40539.522 4     32792.28621
  20631469.123    -2172750.308 7  -1681564.59623
  22746552.4284   -7640324.87145  -5791074.84861
 91  4 11 22 14 29.9980000  0  6G18G 2G11G16G19G 6
  22457869.912     9386454.418 6   7308497.28721
  21037793.2174  -15417357.41347 -11927994.39863
  22543789.170    -4980181.334 6  -3820861.46221
  23671026.889       43722.749 4     35272.63421
  20632171.451    -2169062.359 7  -1678690.88423
  22738695.0844   -7681623.56345  -5823255.52761
 91  4 11 22 14 44.9980000  0  6G18G 2G11G16G19G 6
  22465799.2174    9428133.29846   7340974.18561
  21031934.9674  -15448143.91647 -11951983.82063
  22546160.498    -4967722.631 6  -3811153.41021
  23671656.522       47016.344 4     37838.99821
  20632884.412    -2165312.248 7  -1675768.73323
  22730835.9674   -7722921.92345  -5855435.94561
 91  4 11 22 14 59.9980000  0  6G18G 2G11G16G19G 6
  22473740.5374    9469856.28946   7373485.46061
  21026088.0294  -15478869.54047 -11975925.80163
  22548555.3654   -4955132.52346  -3801342.96161
  23672303.5844      50410.98044     40484.09861
  20633607.787    -2161509.157 7  -1672805.30323
  22722975.412    -7764229.392 5  -5887623.47721
 91  4 11 22 15 14.9980000  0  6G18G 2G11G16G19G 6
  22481689.061     9511631.304 6   7406037.28021
  21020253.7254  -15509526.11547 -11999813.97563
  22550977.904    -4942403.103 6  -3791423.95821
  23672968.272       53914.348 4     43213.91021
  20634342.998    -2157644.660 7  -1669794.02323
  22715113.1784   -7805537.69845  -5919811.64461
 91  4 11 22 15 29.9980000  0  6G18G 2G11G16G19G 6
  22489649.240     9553462.134 6   7438632.58721
  21014433.2324  -15540109.30147 -12023644.96863
  22553426.6704   -4929530.35846  -3781393.27361
  23673659.3734      57530.49845     46031.61661
  20635095.318    -2153714.820 6  -1666731.82523
  22707253.5924   -7846842.58845  -5951997.15261
 91  4 11 22 15 44.9980000  0  6G18G 2G11G16G19G 6
  22497622.6864    9595348.82646   7471271.41461
  21008627.3574  -15570618.83847 -12047418.57363
  22555902.576    -4916514.303 6  -3771250.92021
  23674368.951       61259.191 5     48937.02321
  20635851.732    -2149719.209 7  -1663618.37723
  22699394.3034   -7888143.84845  -5984179.83261
 91  4 11 22 15 59.9980000  0  6G18G 2G11G16G19G 6
  22505602.928     9637294.559 6   7503956.25521
  21002836.6624  -15601051.16147 -12071132.01063
  22558409.912    -4903351.525 6  -3760994.24021
  23675099.607       65103.857 5     51932.79121
  20636629.0684   -2145654.22146  -1660450.86763
  22691536.709    -7929437.943 6  -6016356.92921
 91  4 11 22 16 14.9980000  0  6G18G 2G11G16G19G 6
  22513594.022     9679287.787 6   7536678.11321
  20997057.9514  -15631417.77147 -12094794.24763
  22560937.7564   -4890053.50846  -3750632.17161
  23675850.975       69052.943 5     55009.92721
  20637408.154    -2141531.256 7  -1657238.17923
  22683677.3344   -7970736.15445  -6048537.23061
 91  4 11 22 16 29.9980000  0  6G18G 2G11G16G19G 6
  22521592.5294    9721319.66646   7569430.07761
  20991290.5924  -15661727.20947 -12118411.93063
  22563494.467    -4876628.788 6  -3740171.37921
  23676621.318       73097.979 5     58161.83221
  20638204.522    -2137358.373 6  -1653986.60023
  22675815.3574   -8012046.75145  -6080727.18761
 91  4 11 22 16 44.9980000  0  6G18G 2G11G16G19G 6
  22529601.0924    9763405.86346   7602224.35761
  20985537.0064  -15691963.73547 -12141972.79863
  22566076.022    -4863061.858 6  -3729599.76321
  23677412.5844      77254.67545
  20639009.553    -2133119.887 7
  22667956.5924   -8053354.00846  -6112914.54561
 91  4 11 22 16 59.9980000  0  6G18G 2G11G16G19G 6
  22537620.350     9805543.451 6   7635058.69721
  20979795.6154  -15722129.72647 -12165478.70263
  22568683.678    -4849355.456 6  -3718919.47621
  23678223.5924      81519.90545
  20639830.584    -2128818.251 6
  22660094.0224   -8094660.38946  -6145101.20561
 91  4 11 22 17 14.9980000  0  6G18G 2G11G16G19G 6
  22545646.3264    9847727.08846   7667928.91461
  20974068.5224  -15752230.26547 -12188933.60663
  22571316.334    -4835514.841 6  -3708134.60821
  23679055.1624      85888.62445
  20640657.350    -2124458.249 7
  22652232.865    -8135970.966 6  -6177291.14121
 91  4 11 22 17 29.9980000  0  6G18G 2G11G16G19G 6
  22553682.7324    9889958.42846   7700836.29961
  20968352.6074  -15782263.50747 -12212336.07963
  22573978.272    -4821538.291 6  -3697243.81521
  23679908.6624      90362.28945
  20641499.576    -2120038.079 6
  22644372.5374   -8177283.68346  -6209482.74661
 91  4 11 22 17 44.9980000  0  6G18G 2G11G16G19G 6
  22561728.6544    9932235.25746   7733779.14261
  20962650.022   -15812231.669 7 -12235687.83823
  22576663.272    -4807428.086 6  -3686248.87421
  23680777.9904      94938.69145     75180.19861
  20642350.022    -2115559.617 7  -1637000.62823
  22636508.8654   -8218600.67145  -6241677.68261
 91  4 11 22 17 59.9980000  0  6G18G 2G11G16G19G 6
  22569783.0844    9974561.59046   7766760.54661
  20956960.381   -15842130.189 7 -12258985.32923
  22579374.1394   -4793179.96146  -3675146.46761
  23681668.7174      99622.10445     78829.53061
  20643218.967    -2111018.217 6  -1633461.88623
  22628647.2954   -8259917.26246  -6273872.30061
 91  4 11 22 18 14.9980000  0  5G18G 2G11G19G 6
  22577846.6314   10016936.86346   7799780.08861
  20951284.1544  -15871959.54347 -12282228.91863
  22582112.428    -4778794.506 6  -3663937.04621
  20644091.482    -2106414.250 7  -1629874.39523
  22620783.5224   -8301233.89546  -6306066.95961
 91  4 11 22 18 29.9980000  0  5G18G 2G11G19G 6
  22585921.0764   10059363.41046   7832839.59061
  20945621.2094  -15901717.20447 -12305416.64863
  22584876.7794   -4764269.29446  -3652618.72561
  20644981.772    -2101745.139 6  -1626236.14323
  22612922.4434   -8342547.87346  -6338259.53861
 91  4 11 22 18 44.9980000  0  5G18G 2G11G19G 6
  22594002.0764   10101834.18446   7865933.54361
  20939970.8184  -15931409.73947 -12328553.62963
  22587665.303    -4749611.151 6  -3641196.82121
  20645879.006    -2097017.273 7  -1622552.10723
  22605059.4204   -8383865.75346  -6370455.17061
 91  4 11 22 18 59.9980000  0  5G18G 2G11G19G 6
  22602092.8504   10144351.54346   7899063.80161
  20934333.9044  -15961034.30847 -12351637.64663
  22590478.5684   -4734817.51346  -3629669.34561
  20646795.490    -2092227.871 6  -1618820.11923
  22597196.4044   -8425184.78946  -6402651.69561
 91  4 11 22 19 14.9980000  0  5G18G 2G11G19G 6
  22610193.459    10186913.188 6   7932228.57121
  20928708.0844  -15990593.49247 -12374670.71463
  22593321.1074   -4719891.05746  -3618038.37461
  20647712.451    -2087379.276 6  -1615042.00723
  22589332.2564   -8466507.33346  -6434850.95861
 91  4 11 22 19 29.9980000  0  5G18G 2G11G19G 6
  22618303.9204   10229523.77646   7965431.46061
  20923097.3184  -16020082.16047 -12397648.83163
  22596185.068    -4704826.881 6  -3606300.07721
  20648649.662    -2082466.308 6  -1611213.73623
  22581470.3264   -8507828.20346  -6467048.91961
 91  4 11 22 19 44.9980000  0  5G18G 2G11G19G 6
  22626418.0454   10272180.06546   7998669.97861
  20917498.0374  -16049503.30447 -12420574.33863
  22599079.2874   -4689628.00246  -3594456.82661
  20649595.506    -2077491.713 6  -1607337.44123
  22573607.342    -8549150.205 6  -6499247.76321
 91  4 11 22 19 59.9980000  0  5G18G 2G11G19G 6
  22634544.459    10314880.303 6   8031942.73421
  20911911.6234  -16078858.17747 -12443448.20363
  22601996.053    -4674296.004 6  -3582509.84421
  20650556.232    -2072456.750 6  -1603414.10523
  22565742.7174   -8590474.75246  -6531448.58861
 91  4 11 22 20 14.9980000  0  5G18G 2G11G19G 6
  22642681.0924   10357632.56946   8065256.04161
  20906340.3114  -16108138.85147 -12466264.24863
  22604941.3894   -4658822.97446  -3570452.96861
  20651524.068    -2067353.462 6  -1599437.53223
  22557879.3814   -8631793.51646  -6563644.90861
 91  4 11 22 20 29.9980000  0  5G18G 2G11G19G 6
  22650822.1934   10400422.38246   8098598.59761
  20900780.3574  -16137358.97747 -12489033.11363
  22607909.3894   -4643223.03246  -3558297.19661
  20652507.951    -2062195.401 6  -1595418.28023
  22550016.514    -8673120.468 6  -6595847.61521
 91  4 11 22 20 44.9980000  0  5G18G 2G11G19G 6
  22658973.8034   10443256.59246   8131975.74561
  20895231.8504  -16166511.70947 -12511749.46663
  22610904.2564   -4627489.39646  -3546037.25162
  20653499.639    -2056975.490 6  -1591350.82623
  22542151.4514   -8714448.63546  -6628051.26161
 91  4 11 22 20 59.9980000  0  5G18G 2G11G19G 6
  22667133.6314   10486136.24746   8165388.30361
  20889697.5454  -16195595.95447 -12534412.45163
  22613923.1394   -4611620.95346  -3533672.26761
  20654507.490    -2051692.297 6  -1587234.07123
  22534286.3344   -8755776.48046  -6660254.66061
 91  4 11 22 21 14.9980000  0  5G18G 2G11G19G 6
  22675301.889    10529063.224 6   8198837.74021
  20884177.2724  -16224609.51147 -12557020.35763
  22616969.3184   -4595616.02346  -3521200.92861
  20655522.068    -2046343.882 6  -1583066.49023
  22526421.6074   -8797102.03746  -6692456.27361
 91  4 11 22 21 29.9980000  0  5G18G 2G11G19G 6
  22683481.131    10572036.307 6   8232323.09521
  20878667.8734  -16253553.44647 -12579574.00863
  22620041.4594   -4579475.73446  -3508624.11561
  20656554.756    -2040931.004 6  -1578848.67823
  22518559.2254   -8838426.15746  -6724656.77161
 91  4 11 22 21 44.9980000  0  5G18G 2G11G19G 6
  22691664.193    10615051.402 6   8265841.19021
  20873172.6624  -16282431.12847 -12602076.03763
  22623137.3344   -4563203.63946  -3495944.59361
  20657593.818    -2035457.006 6  -1574583.24023
  22510694.998    -8879752.089 6  -6756858.68021
 91  4 11 22 21 59.9980000  0  5G18G 2G11G19G 6
  22699860.0224   10658109.66346   8299392.92661
  20867690.7564  -16311241.38947 -12624525.53363
  22626257.8504   -4546798.84746  -3483161.67561
  20658647.818    -2029920.748 6  -1570269.28923
  22502830.1074   -8921078.73546  -6789061.15161
 91  4 11 22 22 14.9980000  0  5G18G 2G11G19G 6
  22708061.147    10701205.211 6   8332973.71121
  20862220.2174  -16339989.79847 -12646926.83463
  22629404.7404   -4530267.02046  -3470279.76961
  20659710.990    -2024327.301 6  -1565910.77523
  22494965.6704   -8962411.41546  -6821268.31861
 91  4 11 22 22 29.9980000  0  5G18G 2G11G19G 6
  22716270.0844   10744343.16746   8366587.54861
  20856762.029   -16368671.382 7 -12669276.06523
  22632577.2874   -4513603.26246  -3457295.05661
  20660789.740    -2018671.521 6  -1561503.68723
  22487099.053    -9003744.995 6  -6853476.19321
 91  4 11 22 22 44.9980000  0  5G18G 2G11G19G 6
  22724487.9984   10787526.69846   8400236.89361
  20851317.881   -16397282.532 7 -12691570.41423
  22635771.5614   -4496804.23046  -3444204.94461
  20661876.553    -2012949.927 6  -1557045.31523
  22479233.615    -9045075.843 6  -6885681.93721
 91  4 11 22 22 59.9980000  0  5G18G 2G11G19G 6
  22732712.365    10830747.073 6   8433914.94621
  20845885.014   -16425831.644 7 -12713816.42623
  22638991.8184   -4479878.59146  -3431016.16861
  20662978.014    -2007170.965 6  -1552542.24423
  22471367.4674   -9086412.40746  -6917892.14361
 91  4 11 22 23 14.9980000  0  5G18G 2G11G19G 6
  22740944.7794   10874009.99446   8467626.14961
  20840464.936   -16454312.577 7 -12736009.30623
  22642240.0144   -4462820.16746  -3417723.92761
  20664089.678    -2001328.148 6  -1547989.41423
  22463501.709    -9127748.286 6  -6950101.80821
 91  4 11 22 23 29.9980000  0  5G18G 2G11G19G 6
  22749185.600    10917313.087 6   8501368.65721
  20835057.764   -16482727.528 7 -12758150.77123
  22645510.6864   -4445631.44946  -3404330.16361
  20665213.3734   -1995423.51646  -1543388.41863
  22455635.561    -9169085.532 6  -6982312.54621
 91  4 11 22 23 44.9980000  0  5G18G 2G11G19G 6
  22757433.389    10960656.083 6   8535142.25721
  20829663.1474  -16511076.71147 -12780240.98763
  22648807.3734   -4428312.95146  -3390835.26561
  20666347.600    -1989457.310 7  -1538739.44123
  22447769.998    -9210424.348 6  -7014524.50021
 91  4 11 22 23 59.9980000  0  5G18G 2G11G19G 6
  22765689.123    11004039.847 6   8568947.61621
  20824281.7724  -16539358.73247 -12802278.86663
  22652128.7254   -4410863.62246  -3377238.42861
  20667497.303    -1983428.014 6  -1534041.30423
  22439901.311    -9251763.514 6  -7046736.72921
 91  4 11 22 24 14.9980000  0  5G18G 2G11G19G 6
  22773952.6394   11047458.27546   8602779.99761
  20818910.7874  -16567579.42247 -12824268.95163
  22655474.8734   -4393289.45446  -3363544.30161
  20668653.420    -1977341.370 7  -1529298.47823
  22432035.920    -9293108.547 6  -7078953.52821
 91  4 11 22 24 29.9980000  0  5G18G 2G11G19G 6
  22782223.506    11090916.165 6   8636643.11721
  20813553.4364  -16595734.02947 -12846207.54763
  22658848.537    -4375585.681 6  -3349749.19421
  20669826.982    -1971192.453 6  -1524507.12923
  22424167.897    -9334454.495 6  -7111171.04021
 91  4 11 22 24 44.9980000  0  5G18G 2G11G19G 6
  22790502.404    11134426.853 6   8670547.38921
  20808211.4594  -16623808.72447 -12868083.87663
  22662238.1004   -4357738.82146  -3335842.58461
  20671007.803    -1964967.274 7  -1519656.36223
  22416301.272    -9375787.536 6  -7143378.49521
 91  4 11 22 24 59.9980000  0  5G18G 2G11G19G 6
  22798787.795    11177976.995 6   8704482.39321
  20802881.037   -16651816.647 7 -12889908.17423
  22665658.7254   -4339762.21846  -3321834.87461
  20672206.147    -1958678.976 6  -1514756.40723
  22408436.053    -9417120.747 6  -7175586.08021
 91  4 11 22 25 14.9980000  0  5G18G 2G11G19G 6
  22807083.9284   11221564.29746   8738446.35961
  20797563.451   -16679759.855 7 -12911682.04823
  22669103.1004   -4321658.08546  -3307727.79661
  20673413.912    -1952329.349 7  -1509808.66323
  22400571.068    -9458456.017 6  -7207795.27521
 91  4 11 22 25 29.9980000  0  5G18G 2G11G19G 6
  22815385.264    11265190.318 6   8772440.48321
  20792259.123   -16707636.581 7 -12933404.11823
  22672570.9904   -4303424.87646  -3293520.14161
  20674637.076    -1945916.528 6  -1504811.67823
  22392705.076    -9499791.452 6  -7240004.59321
 91  4 11 22 25 44.9980000  0  5G18G 2G11G19G 6
  22823695.482    11308850.097 6   8806460.92421
  20786966.123   -16735451.277 7 -12955077.85323
  22676065.8734   -4285067.26046  -3279215.54261
  20675864.436    -1939444.965 7  -1499768.92023
  22384837.639    -9541131.456 6  -7272217.47121
 91  4 11 22 25 59.9980000  0  5G18G 2G11G19G 6
  22832009.881    11352548.002 6   8840511.07521
  20781685.584   -16763199.641 7 -12976699.90023
  22679583.592    -4266581.031 6  -3264810.73021
  20677112.186    -1932910.193 6  -1494676.90823
  22376970.256    -9582471.730 6  -7304430.55621
 91  4 11 22 26 14.9980000  0  5G18G 2G11G19G 6
  22840331.3114   11396283.35946   8874590.39361
  20776417.514   -16790882.196 7 -12998270.67323
  22683123.5374   -4247967.01146  -3250306.34361
  20678363.889    -1926312.722 7  -1489536.04123
  22369102.920    -9623812.482 6  -7336644.02921
 91  4 11 22 26 29.9980000  0  5G18G 2G11G19G 6
  22848662.2794   11440055.39046   8908698.29761
  20771162.779   -16818499.244 7 -13019790.39523
  22686692.818    -4229225.565 6  -3235702.66821
  20679631.857    -1919652.439 6  -1484346.23023
  22361236.303    -9665154.011 6  -7368858.08821
 91  4 11 22 26 44.9980000  0  5G18G 2G11G19G 6
  22856997.498    11483853.949 6   8942826.87121
  20765917.592   -16846060.695 7 -13041266.80123
  22690279.943    -4210367.031 6  -3221007.74921
  20680908.389    -1912939.354 7  -1479115.27523
  22353368.522    -9706506.243 6  -7401080.50521
 91  4 11 22 26 59.9980000  0  5G18G 2G11G19G 6
  22865340.7724   11527691.24746   8976985.63761
  20760684.428   -16873553.890 7 -13062690.02223
  22693894.2324   -4191378.88446  -3206211.82961
  20682200.982    -1906160.632 6  -1473833.17623
  22345498.498    -9747856.325 6  -7433301.23821
 91  4 11 22 27 14.9980000  0  5G18G 2G11G19G 6
  22873688.3574   11571560.55446   9011169.33961
  20755465.592   -16900985.576 7 -13084065.31423
  22697530.412    -4172267.930 6  -3191320.22721
  20683500.201    -1899322.817 7  -1468505.03123
  22337628.147    -9789210.652 6  -7465525.28321
 91  4 11 22 27 29.9980000  0  5G18G 2G11G19G 6
  22882043.147    11615464.016 6   9045379.65421
  20750257.873   -16928353.413 7 -13105390.84823
  22701190.670    -4153032.160 6  -3176331.36121
  20684814.240    -1892423.599 6  -1463129.03823
  22329759.4824   -9830566.89146  -7497750.80161
 91  4 11 22 27 44.9980000  0  5G18G 2G11G19G 6
  22890403.5064   11659404.74346   9079619.00361
  20745062.443   -16955653.876 7 -13126663.88923
  22704876.373    -4133668.323 6  -3161242.70121
  20686138.147    -1885459.390 7  -1457702.40823
  22321888.764    -9871921.509 6  -7529975.07621
 91  4 11 22 27 59.9980000  0  5G18G 2G11G19G 6
  22898770.670    11703377.665 6   9113883.44921
  20739878.826   -16982891.728 7 -13147888.14023
  22708584.615    -4114181.310 6  -3146058.06921
  20687479.193    -1878434.804 6  -1452228.73023
  22314019.240    -9913279.127 6  -7562201.67621
 91  4 11 22 28 14.9980000  0  5G18G 2G11G19G 6
  22907144.873    11747381.960 6   9148172.34121
  20734707.607   -17010067.332 7 -13169063.88423
  22712315.295    -4094571.787 6  -3130777.97021
  20688823.920    -1871350.060 7  -1446708.17423
  22306148.3814   -9954640.32646  -7594431.06561
 91  4 11 22 28 29.9980000  0  5G18G 2G11G19G 6
  22915525.7644   11791420.48346   9182487.89961
  20729548.693   -17037177.990 7 -13190189.02323
  22716071.209    -4074837.165 6  -3115400.38921
  20690186.756    -1864202.346 6  -1441138.55223
  22298278.139    -9996001.975 6  -7626660.81521
 91  4 11 22 28 44.9980000  0  5G18G 2G11G19G 6
  22923910.264    11835488.191 6   9216826.21121
  20724402.1704  -17064228.08747 -13211266.96163
  22719849.732    -4054982.231 6  -3099929.05821
  20691554.014    -1856996.038 7  -1435523.27023
  22290405.701   -10037368.318 6  -7658894.22121
 91  4 11 22 28 59.9980000  0  5G18G 2G11G19G 6
  22932302.139    11879593.695 6   9251193.95121
  20719267.014   -17091208.974 7 -13232290.97623
  22723653.373    -4034998.311 6  -3084357.22221
  20692940.2014   -1849722.12346  -1429855.31363
  22282534.732   -10078730.564 6  -7691124.44721
 91  4 11 22 29 14.9980000  0  5G18G 2G11G19G 6
  22940703.436    11923724.710 6   9285581.58521
  20714143.264   -17118132.909 7 -13253270.61523
  22727477.131    -4014897.867 6  -3068694.58521
  20694333.678    -1842392.731 7  -1424144.12223
  22274660.959   -10120100.955 6  -7723361.00821
 91  4 11 22 29 29.9980000  0  5G18G 2G11G19G 6
  22949106.6934   11967882.94346   9319990.42861
  20709031.154   -17144998.108 7 -13274204.48223
  22731325.498    -3994679.463 6  -3052940.02821
  20695740.678    -1835006.197 6  -1418388.40123
  22266787.3344  -10161477.59546  -7755602.44361
 91  4 11 22 29 44.9980000  0  5G18G 2G11G19G 6
  22957517.084    12012076.340 5   9354426.65421
  20703931.107   -17171796.024 7 -13295085.92123
  22735197.170    -3974334.571 6  -3037086.91721
  20697157.4594   -1827553.56847  -1412581.18763
  22258915.568   -10202851.710 6  -7787841.90121
 91  4 11 22 29 59.9980000  0  5G18G 2G11G19G 6
  22965932.475    12056302.129 5   9388888.12921
  20698844.982   -17198529.156 7 -13315916.88623
  22739090.162    -3953866.062 6  -3021137.47721
  20698590.217    -1820037.300 6  -1406724.38023
  22251041.873   -10244225.544 6  -7820081.14721
 91  4 11 22 30 14.9980000  0  5G18G 2G11G19G 6
  22974355.436    12100560.525 6   9423374.99921
  20693768.826   -17225197.223 7 -13336697.15323
  22743010.928    -3933273.891 6  -3005091.68321
  20700029.772    -1812456.967 7  -1400817.65423
  22243170.053   -10285598.908 6  -7852320.02421
 91  4 11 22 30 29.9980000  0  5G18G 2G11G19G 6
  22982781.5764   12144855.80645   9457890.62061
  20688707.365   -17251795.539 7 -13357423.06923
  22746953.022    -3912553.486 6  -2988945.95621
  20701489.022    -1804807.844 6  -1394857.32223
  22235296.225   -10326967.102 6  -7884554.88021
 91  4 11 22 30 44.9980000  0  5G18G 2G11G19G 6
  22991217.943    12189184.012 5   9492431.90321
  20683659.357   -17278327.633 7 -13378097.38223
  22750920.826    -3891708.715 6  -2972703.32921
  20702953.7794   -1797093.43047  -1388846.12063
  22227423.561   -10368333.455 6  -7916788.29121
 91  4 11 22 30 59.9980000  0  5G18G 2G11G19G 6
  22999659.2094   12233535.24645   9526991.13761
  20678620.623   -17304803.530 7 -13398727.90423
  22754908.9984   -3870749.73846  -2956371.70661
  20704435.4594   -1789323.52546  -1382791.68063
  22219551.5224  -10409707.74046  -7949027.89261
 91  4 11 22 31 14.9980000  0  5G18G 2G11G19G 6
  23008105.0924   12277918.18545   9561575.06161
  20673594.795   -17331214.073 7 -13419307.50023
  22758920.795    -3849667.669 6  -2939944.16121
  20705923.0684   -1781488.79947  -1376686.72463
  22211676.7484  -10451080.77446  -7981266.52461
 91  4 11 22 31 29.9980000  0  5G18G 2G11G19G 6
  23016555.2254   12322334.09245   9596184.66061
  20668581.936   -17357557.749 7 -13439834.99423
  22762954.287    -3828461.161 6  -2923419.65821
  20707432.467    -1773587.728 6  -1370530.07323
  22203805.3034  -10492450.78546  -8013502.80061
 91  4 11 22 31 44.9980000  0  5G18G 2G11G19G 6
  23025014.1704   12366780.20445   9630817.80561
  20663580.982   -17383837.042 7 -13460312.31823
  22767015.123    -3807133.022 6  -2906800.36921
  20708941.561    -1765622.701 7  -1364323.58523
  22195932.8814  -10533820.36246  -8045738.73961
 91  4 11 22 31 59.9980000  0  5G18G 2G11G19G 6
  23033477.3344   12411255.59345   9665473.77161
  20658591.756   -17410052.699 7 -13480740.05223
  22771095.6004   -3785684.24046  -2890087.07561
  20710471.2564   -1757594.49346  -1358067.86463
  22188059.3504  -10575190.21646  -8077974.89161
 91  4 11 22 32 14.9980000  0  5G18G 2G11G19G 6
  23041950.1004   12455769.94445   9700160.09361
  20653616.811   -17436194.660 7 -13501110.36923
  22775203.787    -3764104.880 6  -2873272.04121
  20712013.3344   -1749492.74047  -1351754.83763
  22180190.1934  -10616549.94046  -8110203.15161
 91  4 11 22 32 29.9980000  0  5G18G 2G11G19G 6
  23050424.076    12500314.809 5   9734870.19621
  20648654.779   -17462271.433 7 -13521429.89423
  22779331.162    -3742403.621 6  -2856362.02321
  20713569.225    -1741325.666 6  -1345390.90923
  22172320.2644  -10657907.87946  -8142430.02361
 91  4 11 22 32 44.9980000  0  5G18G 2G11G19G 6
  23058909.1314   12544892.60945   9769605.94661
  20643706.092   -17488280.116 7 -13541696.35123
  22783483.967    -3720577.917 6  -2839355.02721
  20715133.561    -1733090.377 6  -1338973.82423
  22164451.272   -10699260.971 6  -8174653.11321
 91  4 11 22 32 59.9980000  0  5G18G 2G11G19G 6
  23067396.1864   12589494.24745   9804360.29561
  20638768.326   -17514229.674 7 -13561916.74223
  22787661.443    -3698636.853 6  -2822258.14621
  20716713.3974   -1724795.62046  -1332510.40363
  22156579.5684  -10740618.13746  -8206879.37561
 91  4 11 22 33 14.9980000  0  5G18G 2G11G19G 6
  23075888.3654   12634122.54445   9839135.40961
  20633841.3424  -17540117.04847 -13582088.68463
  22791858.373    -3676577.688 6  -2805069.24221
  20718302.5614   -1716438.38546  -1325998.30063
  22148709.8424  -10781976.22146  -8239106.36561
 91  4 11 22 33 29.9980000  0  5G18G 2G11G19G 6
  23084388.4434   12678785.45345   9873937.49361
  20628928.717   -17565933.772 7 -13602205.56423
  22796079.342    -3654392.122 6  -2787781.84021
  20719910.647    -1708009.994 6  -1319430.75023
  22140840.7094  -10823326.59046  -8271327.33761
 91  4 11 22 33 44.9980000  0  5G18G 2G11G19G 6
  23092892.9364   12723482.05845   9908765.83361
  20624029.772   -17591680.986 7 -13622268.27823
  22800325.295    -3632081.503 6  -2770396.99521
  20721522.2794   -1699511.56446  -1312808.62463
  22132972.9124  -10864669.98946  -8303542.88261
 91  4 11 22 33 59.9980000  0  5G18G 2G11G19G 6
  23101405.3894   12768205.60545   9943615.17461
  20619141.865   -17617365.055 7 -13642281.79723
  22804594.279    -3609652.561 6  -2752919.94721
  20723155.1474   -1690949.40846  -1306136.84563
  22125105.8344  -10906013.09646  -8335758.18861
 91  4 11 22 34 14.9980000  0  5G18G 2G11G19G 6
  23109922.2564   12812956.04245   9978485.45361
  20614265.717   -17642985.517 7 -13662245.75023
  22808885.029    -3587105.011 6  -2735350.47421
  20724794.131    -1682322.811 7  -1299414.84523
  22117239.1474  -10947355.33846  -8367972.82761
 91  4 11 22 34 29.9980000  0  5G18G 2G11G19G 6
  23118444.8504   12857741.01745  10013382.65461
  20609404.186   -17668534.719 7 -13682154.17223
  22813198.936    -3564431.239 6  -2717682.64221
  20726451.475    -1673623.929 6  -1292636.52023
  22109373.8734  -10988688.44546  -8400180.34961
 91  4 11 22 34 44.9980000  0  5G18G 2G11G19G 6
  23126973.131    12902554.178 5  10048301.80321
  20604555.100   -17694018.361 7 -13702011.51323
  22817535.795    -3541637.497 6  -2699921.33721
  20728116.7644   -1664858.72446  -1285806.51763
  22101507.7954  -11030018.66446  -8432385.61461
 91  4 11 22 34 59.9980000  0  5G18G 2G11G19G 6
  23135505.404    12947402.844 5  10083248.62621
  20599719.459   -17719429.120 7 -13721812.05623
  22821898.967    -3518716.564 6  -2682060.92321
  20729800.3344   -1656019.53246  -1278918.86563
  22093646.2874  -11071338.03646  -8464582.42861
 91  4 11 22 35 14.9980000  0  5G18G 2G11G19G 6
  23144047.311    12992278.065 5  10118216.13421
  20594895.959   -17744775.921 7 -13741562.76423
  22826282.678    -3495677.490 6  -2664108.43921
  20731493.4754   -1647114.95346  -1271980.26663
  22085783.5534  -11112655.23046  -8496777.55061
 91  4 11 22 35 29.9980000  0  5G18G 2G11G19G 6
  23152588.8814   13037181.91645  10153205.96461
  20590085.139   -17770056.074 7 -13761261.53123
  22830688.647    -3472518.108 6  -2646062.21221
  20733204.318    -1638142.471 6  -1264988.73123
  22077921.5454  -11153967.96546  -8528969.19561
 91  4 11 22 35 44.9980000  0  5G18G 2G11G19G 6
  23161138.1154   13082115.29945  10188218.78861
  20585287.381   -17795268.622 7 -13780907.62223
  22835117.842    -3449237.521 6  -2627921.54721
  20734921.3814   -1629100.82646  -1257943.33663
  22070061.6934  -11195274.73746  -8561156.18961
 91  4 11 22 35 59.9980000  0  5G18G 2G11G19G 6
  23169696.693    13127077.227 5  10223253.86821
  20580503.053   -17820414.457 7 -13800501.72423
  22839573.529    -3425836.833 6  -2609687.29321
  20736656.5764   -1619990.85446  -1250844.68563
  22062202.1864  -11236576.34546  -8593339.16661
 91  4 11 22 36 14.9980000  0  5G18G 2G11G19G 6
  23178258.0374   13172063.79045  10258308.14761
  20575729.256   -17845497.043 7 -13820046.54723
  22844046.834    -3402319.716 6  -2591362.31621
  20738401.6624   -1610815.82646  -1243695.34063
  22054342.4594  -11277876.00246  -8625520.61561
 91  4 11 22 36 29.9980000  0  5G18G 2G11G19G 6
  23186825.037    13217081.853 5  10293386.95621
  20570969.100   -17870509.040 7 -13839536.36323
  22848546.639    -3378679.104 6  -2572941.10721
  20740163.0844   -1601568.32646  -1236489.52563
  22046484.8574  -11319166.48046  -8657694.91861
 91  4 11 22 36 44.9980000  0  5G18G 2G11G19G 6
  23195395.725    13262126.803 5  10328486.72221
  20566222.670   -17895455.228 7 -13858974.90023
  22853066.647    -3354919.822 6  -2554427.43521
  20741933.6704   -1592252.98046  -1229230.84563
  22038628.9594  -11360452.27046  -8689865.57261
 91  4 11 22 36 59.9980000  0  5G18G 2G11G19G 6
  23203972.662    13307199.840 5  10363608.37721
  20561487.889   -17920333.996 7 -13878360.90223
  22857612.084    -3331040.707 6  -2535820.39421
  20743722.8894   -1582868.10146  -1221917.97763
  22030774.2724  -11401731.62246  -8722031.19961
 91  4 11 22 37 14.9980000  0  5G18G 2G11G19G 6
  23212555.9434   13352302.87545  10398753.38661
  20556766.709   -17945143.252 7 -13897692.73423
  22862178.584    -3307039.778 6  -2517118.41021
  20745519.9124   -1573411.28146  -1214549.05863
  22022919.8034  -11443002.36246  -8754190.12561
 91  4 11 22 37 29.9980000  0  5G18G 2G11G19G 6
  23221142.553    13397431.264 5  10433918.17521
  20552058.397   -17969887.369 7 -13916973.81124
  22866770.014    -3282921.680 6  -2498325.14521
  20747332.9364   -1563886.90246  -1207127.49263
  22015066.0454  -11484268.79246  -8786345.68461
 91  4 11 22 37 44.9980000  0  5G18G 2G11G19G 6
  23229736.068    13442585.234 5  10469102.88621
  20547361.397   -17994565.835 7 -13936203.73424
  22871382.389    -3258686.149 6  -2479440.36621
  20749157.584    -1554294.411 6  -1199652.84623
  22007213.764   -11525529.937 6  -8818497.12621
 91  4 11 22 37 59.9970000  0  5G18G 2G11G19G 6
  23238335.298    13487763.043 5  10504306.19921
  20542679.306   -18019175.651 7 -13955380.16024
  22876014.228    -3234333.748 6  -2460464.51621
  20750998.907    -1544632.898 6  -1192124.42223
  21999365.7124  -11566781.72546  -8850641.27561
 91  4 11 22 38 14.9970000  0  5G18G 2G11G19G 6
  23246937.0714   13532970.58745  10539532.65261
  20538007.767   -18043719.907 7 -13974505.50723
  22880672.985    -3209861.131 6  -2441394.98921
  20752847.1894   -1534900.90146  -1184541.07763
  21991516.9154  -11608029.25146  -8882782.10461
 91  4 11 22 38 29.9970000  0  5G18G 2G11G19G 6
  23255544.1344   13578205.46545  10574780.39561
  20533350.751   -18068196.140 7 -13993577.84424
  22885352.243    -3185269.563 6  -2422232.78221
  20754716.118    -1525098.130 6  -1176902.58423
  21983667.5954  -11649269.09546  -8914916.95461
 91  4 11 22 38 44.9970000  0  5G18G 2G11G19G 6
  23264159.704    13623469.297 5  10610050.72421
  20528706.173   -18092602.323 7 -14012595.60024
  22890055.642    -3160557.205 6  -2402976.44721
  20756592.431    -1515222.336 6  -1169207.17923
  21975821.3144  -11690498.71946  -8947043.83761
 91  4 11 22 38 59.9970000  0  5G18G 2G11G19G 6
  23272777.7744   13668759.24745  10645341.41761
  20524074.759   -18116941.140 7 -14031560.86423
  22894776.954    -3135726.879 6  -2383628.18821
  20758487.524    -1505275.918 6  -1161456.75023
  21967976.7824  -11731720.65246  -8979164.73061
 91  4 11 22 39 14.9970000  0  5G18G 2G11G19G 6
  23281400.696    13714071.497 5  10680649.47021
  20519455.853   -18141216.363 7 -14050476.57823
  22899526.4464   -3110782.72746  -2364191.24561
  20760390.4784   -1495262.82346  -1153654.36663
  21960133.3064  -11772938.77446  -9011282.65761
 91  4 11 22 39 29.9970000  0  5G18G 2G11G19G 6
  23290026.337    13759405.936 5  10715974.79921
  20514847.657   -18165427.694 7 -14069342.50424
  22904294.9544   -3085724.63446  -2344665.52061
  20762310.493    -1485182.610 6  -1145799.67823
  21952290.9234  -11814152.54346  -9043397.18461
 91  4 11 22 39 44.9970000  0  5G18G 2G11G19G 6
  23298658.204    13804776.289 5  10751328.13221
  20510255.196   -18189561.037 7 -14088147.65823
  22909088.2044   -3060538.79646  -2325040.24561
  20764242.1734   -1475021.06846  -1137881.62563
  21944451.9234  -11855347.56846  -9075497.11161
 91  4 11 22 39 59.9970000  0  5G18G 2G11G19G 6
  23307299.290    13850173.348 5  10786702.27421
  20505675.845   -18213625.409 7 -14106899.06623
  22913902.970    -3035234.518 6  -2305322.68521
  20766191.1344   -1464786.85146  -1129906.93863
  21936614.7984  -11896532.83046  -9107589.43361
 91  4 11 22 40 14.9970000  0  5G18G 2G11G19G 6
  23315941.1344   13895588.07345  10822090.17861
  20501107.548   -18237629.663 7 -14125603.63523
  22918738.728    -3009820.737 6  -2285519.78921
  20768150.017    -1454488.710 6  -1121882.43923
  21928777.5244  -11937717.08446  -9139680.96861
 91  4 11 22 40 29.9970000  0  5G18G 2G11G19G 6
  23324591.095    13941030.383 5  10857499.57421
  20496553.610   -18261563.751 7 -14144253.52823
  22923596.939    -2984287.617 6  -2265623.90721
  20770126.493    -1444116.628 6  -1113800.32123
  21920941.8604  -11978889.93846  -9171763.62061
 91  4 11 22 40 44.9970000  0  5G18G 2G11G19G 6
  23333242.079    13986498.440 5  10892929.03321
  20492012.493   -18285429.395 7 -14162850.09123
  22928478.454    -2958637.322 6  -2245636.72321
  20772110.9934   -1433672.38946  -1105661.98463
  21913109.6894  -12020053.07446  -9203838.69861
 91  4 11 22 40 59.9970000  0  5G18G 2G11G19G 6
  23341899.923    14031994.915 5  10928380.61921
  20487484.1814  -18309223.39347 -14181390.83463
  22933382.4704   -2932866.92846  -2225555.94961
  20774117.407    -1423152.556 6  -1097464.74223
  21905278.7904  -12061203.27646  -9235903.70061
 91  4 11 22 41 14.9970000  0  5G18G 2G11G19G 6
  23350560.8764   14077515.04945  10963850.65661
  20482969.743   -18332949.999 7 -14199879.05423
  22938307.173    -2906980.856 6  -2205385.03621
  20776128.321    -1412561.260 6  -1089211.80723
  21897449.6424  -12102344.65146  -9267961.82461
 91  4 11 22 41 29.9970000  0  5G18G 2G11G19G 6
  23359225.5484   14123063.47645  10999342.75361
  20478467.7744  -18356604.69747 -14218311.24963
  22943255.2594   -2880974.80846  -2185120.64861
  20778159.0874   -1401893.69046  -1080899.44363
  21889622.4544  -12143472.18546  -9300009.16161
 91  4 11 22 41 44.9970000  0  5G18G 2G11G19G 6
  23367902.9624   14168636.46445  11034853.98561
  20473979.681   -18380191.111 7 -14236690.23024
  22948227.1654   -2854852.42046  -2164765.58961
  20780201.884    -1391153.348 6  -1072530.37323
  21881799.1654  -12184589.43946  -9332048.47761
 91  4 11 22 41 59.9970000  0  5G18G 2G11G19G 6
  23376578.8924   14214231.61245  11070382.50161
  20469503.8454  -18403710.95247 -14255017.33763
  22953219.7514   -2828615.76946  -2144321.51261
  20782260.9624   -1380341.94346  -1064105.92863
  21873977.243   -12225698.042 6  -9364081.07121
 91  4 11 22 42 14.9970000  0  5G18G 2G11G19G 6
  23385261.6184   14259852.57645  11105931.10561
  20465041.6814  -18427160.78647 -14273289.89563
  22958234.6104   -2802261.83246  -2123786.03761
  20784332.3764   -1369456.02046  -1055623.42163
  21866155.6344  -12266794.44446  -9396104.15361
 91  4 11 22 42 29.9970000  0  5G18G 2G11G19G 6
  23393949.9154   14305501.01045  11141501.10161
  20460592.579   -18450538.618 7 -14291506.34323
  22963273.196    -2775788.904 6  -2103157.83421
  20786419.134    -1358493.546 6  -1047081.25823
  21858339.282   -12307876.450 6  -9428116.02521
 91  4 11 22 42 44.9970000  0  5G18G 2G11G19G 6
  23402637.2354   14351169.56045  11177086.81461
  20456156.2904  -18473851.40647 -14309672.11464
  22968331.4934   -2749204.12846  -2082442.48461
  20788515.9154   -1347461.38446  -1038484.79963
  21850521.970   -12348950.870 6  -9460121.98421
 91  4 11 22 42 59.9970000  0  5G18G 2G11G19G 6
  23411331.6344   14396860.89745  11212690.25661
  20451732.806   -18497096.422 7 -14327785.07323
  22973413.3924   -2722505.04346  -2061638.06861
  20790632.439    -1336356.580 6  -1029831.73323
  21842707.532   -12390014.771 6  -9492119.74321
 91  4 11 22 43 14.9970000  0  5G18G 2G11G19G 6
  23420031.415    14442576.216 5  11248312.39121
  20447323.1574  -18520272.05347 -14345843.96563
  22978516.9934   -2695690.40546  -2040743.60061
  20792756.5484   -1325177.30646  -1021120.63463
  21834895.118   -12431066.545 6  -9524108.05621
 91  4 11 22 43 29.9970000  0  5G18G 2G11G19G 6
  23428734.6264   14488312.65545  11283950.95961
  20442925.3844  -18543380.95947 -14363850.86864
  22983640.7354   -2668762.97046  -2019761.24561
  20794899.0484   -1313926.18346  -1012353.55463
  21827085.681   -12472108.438 6  -9556088.67121
 91  4 11 22 43 44.9970000  0  5G18G 2G11G19G 6
  23437445.829    14534075.798 5  11319610.34221
  20438542.056   -18566417.313 7 -14381801.23323
  22988786.6034   -2641717.12046  -1998686.62161
  20797054.9074   -1302597.17146  -1003525.78163
  21819278.4704  -12513134.48046  -9588056.92961
 91  4 11 22 43 59.9970000  0  5G18G 2G11G19G 6
  23446160.579    14579863.168 5  11355288.61721
  20434171.181   -18589383.653 7 -14399697.04023
  22993956.7594   -2614555.52746  -1977521.80961
  20799229.1814   -1291192.64146   -994639.16263
  21811474.173   -12554147.023 6  -9620014.67021
 91  4 11 22 44 14.9970000  0  5G18G 2G11G19G 6
  23454877.782    14625673.756 5  11390984.98221
  20429813.3374  -18612280.21247 -14417538.47763
  22999145.1964   -2587278.99946  -1956267.43561
  20801407.7904   -1279712.95946   -985693.98463
  21803670.306   -12595146.264 6  -9651962.04221
 91  4 11 22 44 29.9970000  0  5G18G 2G11G19G 6
  23463597.6264   14671504.73345  11426697.23961
  20425469.720   -18635109.882 7 -14435327.78724
  23004356.2824   -2559890.50846  -1934925.82061
  20803607.884    -1268160.867 6   -976692.37523
  21795872.181   -12636134.886 6  -9683901.15021
 91  4 11 22 44 44.9970000  0  5G18G 2G11G19G 6
  23472324.345    14717360.804 5  11462429.04521
  20421138.3764  -18657867.74947 -14453061.15364
  23009591.1034   -2532385.31846  -1913493.26661
  20805819.5244   -1256531.02946   -967630.19163
  21788074.993   -12677107.736 6  -9715827.96421
 91  4 11 22 44 59.9970000  0  5G18G 2G11G19G 6
  23481054.2904   14763233.06045  11498173.45961
  20416820.9074  -18680562.45447 -14470745.30364
  23014846.0564   -2504772.43746  -1891976.80461
  20808048.8684   -1244832.30046   -958514.32763
  21780279.493   -12718073.436 6  -9747749.21021
 91  4 11 22 45 14.9970000  0  5G18G 2G11G19G 6
  23489785.235    14809127.645 5  11533935.30321
  20412514.196   -18703187.513 8 -14488375.17724
  23020122.5174   -2477045.69446  -1870371.60961
  20810286.728    -1233058.143 6   -949339.68123
  21772487.681   -12759025.200 6  -9779659.58921
 91  4 11 22 45 29.9970000  0  5G18G 2G11G19G 6
  23498520.853    14855042.136 5  11569712.62321
  20408221.6814  -18725745.21148 -14505952.56363
  23025420.6894   -2449207.63346  -1848679.68061
  20812542.5794   -1221210.61646   -940107.87063
  21764696.290   -12799965.229 6  -9811560.83521
 91  4 11 22 45 44.9970000  0  5G18G 2G11G19G 6
  23507263.954    14900973.501 5  11605503.10521
  20403941.5324  -18748238.51747 -14523479.77864
  23030740.4464   -2421261.48046  -1826903.53361
  20814809.564    -1209292.497 6   -930821.04823
  21756907.376   -12840896.100 6  -9843454.94121
 91  4 11 22 45 59.9970000  0  5G18G 2G11G19G 6
  23516008.485    14946923.236 5  11641307.90421
  20399673.6814  -18770665.54948 -14540955.35063
  23036076.4234   -2393205.49546  -1805041.78361
  20817095.0014   -1197301.65646   -921477.56563
  21749120.509   -12881815.927 6  -9875340.43921
 91  4 11 22 46 14.9970000  0  5G18G 2G11G19G 6
  23524755.2124   14992889.75144  11677125.76261
  20395418.7744  -18793027.57947 -14558380.27264
  23041436.4464   -2365041.16646  -1783095.62661
  20819386.8214   -1185239.34946   -912078.39463
  21741335.470   -12922725.667 6  -9907218.08321
 91  4 11 22 46 29.9970000  0  5G18G 2G11G19G 6
  23533502.3844   15038871.52744  11712955.50161
  20391174.5094  -18815325.87348 -14575755.52764
  23046815.9394   -2336770.23946  -1761066.39361
  20821696.3684   -1173106.91546   -902624.57763
  21733552.142   -12963626.561 6  -9939088.82421
 91  4 11 22 46 44.9970000  0  5G18G 2G11G19G 6
  23542257.4234   15084868.38345  11748796.99061
  20386944.6814  -18837560.36248 -14593081.06564
  23052217.2284   -2308392.82946  -1738954.20061
  20824018.1424   -1160904.11046   -893115.93263
  21725770.087   -13004518.380 6  -9970952.50021
 91  4 11 22 46 59.9970000  0  5G18G 2G11G19G 6
  23551014.9394   15130883.09245  11784652.40661
  20382726.3994  -18859728.01747 -14610354.52564
  23057637.9234   -2279906.20146  -1716756.89661
  20826355.0174   -1148627.81146   -883550.01463
  21717991.384   -13045397.931 6 -10002806.61421
 91  4 11 22 47 14.9970000  0  5G18G 2G11G19G 6
  23559772.8454   15176912.50345  11820519.29361
  20378519.6424  -18881831.88347 -14627578.28264
  23063080.4234   -2251313.52546  -1694476.95361
  20828702.2744   -1136280.69246   -873928.91363
  21710212.946   -13086267.903 6 -10034653.26421
 91  4 11 22 47 29.9970000  0  5G18G 2G11G19G 6
  23568536.149    15222954.793 5  11856396.21821
  20374325.4854  -18903873.72047 -14644753.70563
  23068541.2744   -2222616.74246  -1672115.89461
  20831067.6344   -1123864.57546   -864254.04663
  21702438.704   -13127129.930 6 -10066493.72921
 91  4 11 22 47 44.9970000  0  5G18G 2G11G19G 6
  23577301.196    15269012.650 5  11892285.25221
  20370143.0794  -18925850.38447 -14661878.34364
  23074022.1104   -2193813.12746  -1649671.58361
  20833443.1184   -1111376.40446   -854523.03463
  21694665.509   -13167980.792 6 -10098325.48721
 91  4 11 22 47 59.9970000  0  5G18G 2G11G19G 6
  23586067.767    15315090.933 5  11928190.17621
  20365974.2124  -18947756.73247 -14678948.18863
  23079525.1184   -2164897.69646  -1627140.15061
  20835835.8764   -1098810.73346   -844731.63663
  21686893.446   -13208815.057 6 -10130144.31121
 91  4 11 22 48 14.9970000  0  5G18G 2G11G19G 6
  23594839.5954   15361180.74345  11964104.14361
  20361817.8374  -18969601.40147 -14695969.97263
  23085045.9464   -2135879.42346  -1604528.57561
  20838238.0244   -1086176.01646   -834886.42963
  21679123.329   -13249641.249 6 -10161956.84721
 91  4 11 22 48 29.9970000  0  5G18G 2G11G19G 6
  23603612.946    15407281.218 5  12000026.41521
  20357671.6424  -18991385.26747 -14712944.37864
  23090585.8144   -2106759.39546  -1581837.70561
  20840656.8214   -1073472.88646   -824987.92162
  21671357.6344  -13290459.92446 -10193763.52161
 91  4 11 22 48 44.9970000  0  5G18G 2G11G19G 6
  23612385.376    15453390.079 5  12035955.21221
  20353538.2984  -19013110.21047 -14729872.87364
  23096146.1184   -2077539.77946  -1559069.24261
  20843087.1424   -1060703.27646   -815037.60763
  21663590.384   -13331272.891 6 -10225565.74921
 91  4 11 22 48 59.9970000  0  5G18G 2G11G19G 6
  23621164.618    15499514.046 4  12071895.76721
  20349416.7594  -19034769.44947 -14746750.16663
  23101727.1574   -2048214.03946  -1536218.07861
  20845530.1104   -1047860.27946   -805030.11063
  21655826.564   -13372073.019 6 -10257357.97021
 91  4 11 22 49 14.9970000  0  5G18G 2G11G19G 6
  23629946.4624   15545655.51745  12107849.94761
  20345307.8454  -19056360.24247 -14763574.12464
  23107330.165    -2018779.715 6  -1513282.31121
  20847988.1734   -1034941.09746   -794963.24763
  21648065.134   -13412857.524 6 -10289138.02721
 91  4 11 22 49 29.9970000  0  5G18G 2G11G19G 6
  23638727.0174   15591808.68645  12143813.27161
  20341211.3214  -19077887.89047 -14780348.88263
  23112949.103    -1989242.501 6  -1490266.37321
  20850463.6424   -1021951.16846   -784841.26063
  21640306.5954  -13453631.70546 -10320910.03061
 91  4 11 22 49 44.9970000  0  5G18G 2G11G19G 6
  23647512.3454   15637972.09245  12179784.56461
  20337126.2984  -19099354.10747 -14797075.77264
  23118590.4704   -1959604.21446  -1467171.66361
  20852945.3374   -1008891.91946   -774665.25763
  21632549.4154  -13494396.75046 -10352674.91761
 91  4 11 22 49 59.9970000  0  5G18G 2G11G19G 6
  23656295.298    15684141.833 5  12215760.81721
  20333051.8144  -19120762.18247 -14813757.35764
  23124248.1964   -1929868.57446  -1444001.10961
  20855444.1184    -995766.59046   -764437.76363
  21624792.4464  -13535155.97046 -10384435.25461
 91  4 11 22 50 14.9970000  0  5G18G 2G11G19G 6
  23665087.1964   15730323.69845  12251746.44561
  20328990.743   -19142106.383 7 -14830389.17624
  23129926.6894   -1900029.86546  -1420750.22561
  20857953.6964    -982568.99846   -754153.96163
  21617038.4464  -13575903.23746 -10416186.28462
 91  4 11 22 50 29.9970000  0  4G 2G11G19G 6
  20324940.7594  -19163386.63647 -14846971.15664
  23135625.884    -1870088.449 6  -1397419.32321
  20860483.6264    -969299.06146   -743813.78463
  21609287.4854  -13616638.41146 -10447927.88462
 91  4 11 22 50 44.9970000  0  4G 2G11G19G 6
  20320904.7354  -19184600.83947 -14863501.67464
  23141341.2514   -1840042.52246  -1374006.97461
  20863018.6654    -955954.74246   -733415.64962
  21601538.9704  -13657359.16846 -10479658.26461
 91  4 11 22 50 59.9970000  0  4G 2G11G19G 6
  20316878.7124  -19205756.00547 -14879986.19064
  23147077.7354   -1809899.37846  -1350518.88061
  20865575.4074    -942542.94246   -722964.93163
  21593790.220   -13698072.364 6 -10511382.74322
 91  4 11 22 51 14.9970000  0  4G 2G11G19G 6
  20312864.7044  -19226848.49147 -14896421.85964
  23152832.1424   -1779655.51346  -1326952.30561
  20868137.1814    -929059.80246   -712458.62063
  21586043.8844  -13738774.18746 -10543098.35761
 91  4 11 22 51 29.9970000  0  4G 2G11G19G 6
  20308863.1654  -19247878.23247 -14912808.64464
  23158607.7674   -1749311.18646  -1303307.45061
  20870717.2824    -915505.01046   -701896.48162
  21578303.571   -13779464.315 6 -10574804.86721
 91  4 11 22 51 44.9970000  0  4G 2G11G19G 6
  20304872.3924  -19268847.76947 -14929148.50964
  23164400.8994   -1718869.26946  -1279586.53661
  20873308.2674    -901881.17146   -691280.54462
  21570560.071   -13820145.197 6 -10606504.17021
 91  4 11 22 51 59.9970000  0  4G 2G11G19G 6
  20300894.7904  -19289751.11847 -14945436.80464
  23170212.564    -1688323.997 6  -1255785.10521
  20875917.6964    -888182.27346   -680606.11063
  21562820.9464  -13860810.70946 -10638191.49061
 91  4 11 22 52 14.9970000  0  4G 2G11G19G 6
  20296928.7984  -19310593.65347 -14961677.70964
  23176043.2204   -1657681.07946  -1231907.57761
  20878534.5874    -874413.57346   -669877.28563
  21555085.774   -13901465.889 6 -10669870.77122
 91  4 11 22 52 29.9970000  0  4G 2G11G19G 6
  20292973.4074  -19331375.01647 -14977870.94864
  23181894.915    -1626940.367 6  -1207953.85121
  20881170.1894    -860574.61746   -659093.72162
  21547350.7204  -13942110.21346 -10701541.58662
 91  4 11 22 52 44.9970000  0  4G 2G11G19G 6
  20289030.4234  -19352097.19547 -14994018.06664
  23187763.306    -1596104.182 6  -1183925.73321
  20883815.9704    -846667.29446   -648256.88163
  21539618.4934  -13982745.54246 -10733205.38862
 91  4 11 22 52 59.9970000  0  4G 2G11G19G 6
  20285098.2824  -19372760.24247 -15010119.11164
  23193650.290    -1565172.760 6  -1159823.40121
  20886477.7354    -832691.57146   -637366.74163
  21531887.384   -14023371.573 6 -10764861.95522
 91  4 11 22 53 14.9970000  0  4G 2G11G19G 6
  20281179.4464  -19393357.49048 -15026168.88664
  23199553.7824   -1534139.77846  -1135641.92661
  20889149.5014    -818640.54546   -626417.92363
  21524158.157   -14063981.427 6 -10796505.91421
 91  4 11 22 53 29.9970000  0  4G 2G11G19G 6
  20277271.5244  -19413892.85847 -15042170.44364
  23205478.6424   -1503009.39946  -1111384.56661
  20891841.1814    -804518.19446   -615413.52763
  21516433.298   -14104578.975 6 -10828140.28021
 91  4 11 22 53 44.9970000  0  4G 2G11G19G 6
  20273374.1814  -19434371.79047 -15058128.02364
  23211419.024    -1471787.382 6  -1087055.79821
  20894535.4464    -790329.88946   -604357.74163
  21508709.470   -14145169.506 6 -10859769.18722
 91  4 11 22 53 59.9970000  0  4G 2G11G19G 6
  20269488.4074  -19454791.62347 -15074039.55064
  23217377.9624   -1440471.35646  -1062653.76861
  20897250.9464    -776072.86746   -593248.41363
  21500986.735   -14185749.963 6 -10891390.24222
 91  4 11 22 54 14.9970000  0  4G 2G11G19G 6
  20265615.0874  -19475149.89947 -15089903.11064
  23223355.626    -1409059.193 6  -1038176.83421
  20899976.524     -761744.524 6   -582083.51123
  21493267.243   -14226317.964 6 -10923001.59322
 91  4 11 22 54 29.9970000  0  4G 2G11G19G 6
  20261753.0644  -19495441.51048 -15105714.72564
  23229352.814    -1377545.856 6  -1013621.06221
  20902718.4464    -747339.50546   -570858.85863
  21485551.2984  -14266867.90346 -10954598.85762
 91  4 11 22 54 44.9970000  0  4G 2G11G19G 6
  20257904.1424  -19515666.66147 -15121474.55564
  23235368.5644   -1345931.92746   -988986.90661
  20905472.5564    -732857.94046   -559574.55963
  21477839.274   -14307399.945 6 -10986182.18322
 91  4 11 22 54 59.9970000  0  4G 2G11G19G 6
  20254066.6264  -19535831.31247 -15137187.24064
  23241402.548    -1314223.538 6   -964279.14521
  20908244.5174    -718305.52046   -548235.04463
  21470128.337   -14347919.635 6 -11017755.89121
 91  4 11 22 55 14.9970000  0  4G 2G11G19G 6
  20250240.9704  -19555938.12647 -15152854.86064
  23247454.993    -1282423.672 6   -939500.10521
  20911024.1184    -703685.05246   -536842.50863
  21462419.290   -14388429.536 6 -11049321.97022
 91  4 11 22 55 29.9970000  0  4G 2G11G19G 6
  20246425.5174  -19575987.15547 -15168477.44464
  23253524.3534   -1250532.56046   -914649.95461
  20913824.2204    -688996.47946   -525396.90763
  21454711.243   -14428929.544 6 -11080880.34722
 91  4 11 22 55 44.9970000  0  4G 2G11G19G 6
  20242620.6034  -19595979.52247 -15184055.88364
  23259609.181    -1218551.759 6   -889729.93321
  20916627.7984    -674240.78946   -513899.00663
  21447006.274   -14469420.591 6 -11112431.74222
 91  4 11 22 55 59.9970000  0  4G 2G11G19G 6
  20238828.6034  -19615910.18148 -15199586.22964
  23265712.8064   -1186476.65046   -864736.40661
  20919451.4704    -659412.85246   -502344.80963
  21439303.767   -14509897.407 6 -11143972.04322
 91  4 11 22 56 14.9970000  0  4G 2G11G19G 6
  20235047.3924  -19635780.82747 -15215069.82664
  23271833.720    -1154309.012 6   -839670.78721
  20922284.4154    -644514.25146   -490735.54762
  21431603.993   -14550361.444 6 -11175502.38622
 91  4 11 22 56 29.9970000  0  4G 2G11G19G 6
  20231277.6264  -19655587.79247 -15230503.79364
  23277973.821    -1122045.556 6   -814530.50521
  20925138.6574    -629541.12546   -479068.21063
  21423907.493   -14590808.838 6 -11207019.76222
 91  4 11 22 56 44.9970000  0  4G 2G11G19G 6
  20227520.2674  -19675335.47347 -15245891.56964
  23284128.657    -1089690.657 6   -789318.96021
  20927996.0874    -614497.53346   -467345.97462
  21416212.821   -14631243.630 6 -11238527.32022
 91  4 11 22 56 59.9970000  0  4G 2G11G19G 6
  20223774.1894  -19695018.57847 -15261229.02664
  23290306.267    -1057239.520 6   -764032.44421
  20930874.6894    -599378.46646   -455564.91862
  21408521.915   -14671660.462 6 -11270020.88422
 91  4 11 22 57 14.9970000  0  4G 2G11G19G 6
  20220040.9464  -19714643.68147 -15276521.29064
  23296499.235    -1024698.980 6   -738676.25021
  20933763.790     -584190.248 6   -443729.98122
  21400831.5484  -14712065.65446 -11301505.37962
 91  4 11 22 57 29.9970000  0  4G 2G11G19G 6
  20216315.9074  -19734215.15647 -15291771.76064
  23302708.267     -992073.761 6   -713254.07621
  20936668.642     -568937.323 6   -431844.62822
  21393145.384   -14752463.509 6 -11332984.15322
 91  4 11 22 57 44.9970000  0  4G 2G11G19G 6
  20212603.9234  -19753723.69147 -15306973.18964
  23308932.759     -959354.754 6   -687758.82621
  20939582.5014    -553610.27246   -419901.51163
  21385459.735   -14792844.352 6 -11364449.67222
 91  4 11 22 57 59.9970000  0  4G 2G11G19G 6
  20208901.978   -19773172.936 7 -15322128.41824
  23315177.196     -926546.003 6   -662193.65021
  20942514.9934    -538212.66246   -407903.41162
  21377780.2984  -14833211.71446 -11395904.69062
 91  4 11 22 58 14.9970000  0  4G 2G11G19G 6
  20205211.689   -19792566.428 7 -15337240.20624
  23321436.087     -893651.301 6   -636561.49221
  20945456.2594    -522747.86746   -395852.96363
  21370098.3214  -14873568.90746 -11427351.78662
 91  4 11 22 58 29.9970000  0  4G 2G11G19G 6
  20201532.8764  -19811898.32747 -15352303.99364
  23327712.251     -860664.962 6   -610857.93021
  20948417.0174    -507210.08046   -383745.63562
  21362422.5484  -14913909.85146 -11458786.21962
 91  4 11 22 58 44.9970000  0  4G 2G11G19G 6
  20197865.2204  -19831169.48547 -15367320.45164
  23334006.751     -827588.170 6   -585083.87921
  20951383.392     -491599.970 6   -371581.95622
  21354749.9074  -14954235.21346 -11490208.51062
 91  4 11 22 58 59.9970000  0  4G 2G11G19G 6
  20194209.2824  -19850382.36747 -15382291.49864
  23340318.6104    -794423.55446   -559241.40161
  20954370.9464    -475919.75646   -359363.64662
  21347077.337   -14994546.955 6 -11521620.18222
 91  4 11 22 59 14.9970000  0  4G 2G11G19G 6
  20190564.2824  -19869538.61247 -15397218.41264
  23346645.345     -761173.179 6   -533332.09121
  20957363.6264    -460171.07246   -347091.98162
  21339408.6654  -15034846.71946 -11553022.52462
 91  4 11 22 59 29.9970000  0  4G 2G11G19G 6
  20186931.0564  -19888629.27247 -15412094.22164
  23352992.001     -727828.359 6   -507349.18721
  20960377.0794    -444344.85346   -334759.90362
  21331743.8844  -15075125.36947 -11584408.42962
 91  4 11 22 59 44.9970000  0  4G 2G11G19G 6
  20183309.1344  -19907663.89747 -15426926.36564
  23359351.7594    -694398.73246   -481300.20261
  20963400.978     -428450.306 6   -322374.58222
  21324081.9394  -15115391.97946 -11615784.93762
 91  4 11 22 59 59.9970000  0  4G 2G11G19G 6
  20179698.3454  -19926640.28147 -15441713.12664
  23365729.0714    -660882.49246   -455183.73861
  20966439.845     -412485.387 6   -309934.42822
  21316422.0644  -15155644.32246 -11647150.33162
 91  4 11 23  0 14.9970000  0  4G 2G11G19G 6
  20176098.4544  -19945557.15847 -15456453.52064
  23372124.868     -627278.916 6   -428999.20321
  20969491.649     -396448.826 6   -297438.44822
  21308763.8764  -15195880.96246 -11678503.49362
 91  4 11 23  0 29.9970000  0  4G 2G11G19G 6
  20172509.1734  -19964418.29547 -15471150.48264
  23378537.939     -593591.877 6   -402749.64021
  20972557.4854    -380344.28246   -284889.49562
  21301109.2124  -15236105.50346 -11709847.22462
 91  4 11 23  0 44.9970000  0  4G 2G11G19G 6
  20168930.860   -19983222.641 7 -15485803.19524
  23384962.017     -559820.371 6   -376434.26021
  20975632.868     -364170.335 6   -272286.46322
  21293457.8844  -15276316.33746 -11741180.27962
 91  4 11 23  0 59.9970000  0  4G 2G11G19G 6
  20165364.0954  -20001969.25847 -15500410.92264
  23391406.353     -525964.013 6   -350052.75521
  20978726.001     -347926.285 6   -259628.80722
  21285808.1494  -15316512.67246 -11772502.03062
 91  4 11 23  1 14.9970000  0  4G 2G11G19G 6
  20161806.7984  -20020657.26347 -15514972.97364
  23397864.4464    -492022.19546   -323604.67561
  20981828.3534    -331611.08146   -246915.70362
  21278162.173   -15356693.232 6 -11803811.48522
 91  4 11 23  1 29.9970000  0  4G 2G11G19G 6
  20158263.1264  -20039286.05447 -15529488.88164
  23404339.353     -457994.615 6   -297089.75821
  20984948.423     -315224.005 6   -234146.59822
  21270520.7124  -15396857.32446 -11835108.11162
 91  4 11 23  1 44.9970000  0  4G 2G11G19G 6
  20154729.2744  -20057852.57847 -15543956.27564
  23410829.4784    -423878.59545   -270505.91861
  20988079.353     -298762.086 6   -221319.18022
  21262879.8684  -15437001.74946 -11866389.42262
 91  4 11 23  1 59.9970000  0  4G 2G11G19G 6
  20151206.5324  -20076367.83547 -15558383.71564
  23417337.485     -389685.194 5   -243861.78721
  20991227.579     -282235.978 6   -208441.73922
  21255243.1034  -15477137.00447 -11897663.58362
 91  4 11 23  2 14.9970000  0  4G 2G11G19G 6
  20147693.8684  -20094821.22247 -15572762.94864
  23423862.134     -355404.179 5   -217149.38721
  20994384.048     -265635.131 6   -195506.06022
  21247608.9544  -15517252.30147 -11928922.19262
 91  4 11 23  2 29.9970000  0  4G 2G11G19G 6
  20144194.1814  -20113217.49247 -15587097.67364
  23430401.9464    -321040.70245   -190372.74261
  20997557.157     -248964.206 6   -182515.77622
  21239979.2984  -15557352.36547 -11960168.93162
 91  4 11 23  2 44.9970000  0  4G 2G11G19G 6
  20140703.8844  -20131555.89447 -15601387.30264
  23436955.439     -286594.236 5   -163531.41921
  21000741.103     -232222.266 6   -169470.15422
  21232351.0404  -15597436.13547 -11991402.96962
 91  4 11 23  2 59.9970000  0  4G 2G11G19G 6
  20137225.5954  -20149834.71147 -15615630.50764
  23443527.0564    -252063.25845   -136624.23361
  21003946.478     -215407.557 6   -156367.83322
  21224727.2124  -15637501.63547 -12022622.77262
 91  4 11 23  3 14.9970000  0  4G 2G11G19G 6
  20133758.4784  -20168055.30747 -15629828.34764
  23450115.5794    -217449.15045   -109652.28861
  21007156.509     -198521.226 6   -143209.70322
  21217107.1264  -15677549.78547 -12053829.06262
 91  4 11 23  3 29.9970000  0  4G 2G11G19G 6
  20130300.8844  -20186221.45648 -15643983.76064
  23456716.009     -182756.192 5    -82618.88521
  21010385.267     -181566.898 6   -129998.58222
  21209487.1894  -15717584.24947 -12085024.68762
 91  4 11 23  3 44.9970000  0  4G 2G11G19G 6
  20126855.9544  -20204327.33647 -15658092.21064
  23463334.2434    -147978.93745    -55519.80461
  21013621.431     -164538.728 6   -116729.92622
  21201871.9234  -15757599.00147 -12116204.94562
 91  4 11 23  3 59.9970000  0  4G 2G11G19G 6
  20123421.5794  -20222378.70848 -15672158.18764
  23469967.6104    -113123.33845    -28359.67261
  21016876.517     -147442.317 6   -103408.09622
  21194260.7674  -15797599.45647 -12147374.05862
 91  4 11 23  4 14.9970000  0  4G 2G11G19G 6
  20119996.759   -20240372.481 7 -15686179.28224
  23476615.790      -78186.832 5     -1136.49521
  21020141.204     -130274.831 6    -90030.88022
  21186653.0244  -15837582.57147 -12178529.67362
 91  4 11 23  4 29.9970000  0  4G 2G11G19G 6
  20116582.4074  -20258316.97448 -15700161.97864
  23483277.774      -43177.858 5     26143.14121
  21023423.243     -113044.479 6    -76604.68222
  21179046.1104  -15877556.15147 -12209677.84962
 91  4 11 23  4 44.9970000  0  4G 2G11G19G 6
  20113178.735   -20276201.349 8 -15714097.82724
  23489954.782       -8085.872 5     53487.48521
  21026714.446      -95740.250 6    -63120.91522
  21171443.0564  -15917509.24146 -12240810.06262
 91  4 11 23  4 59.9970000  0  4G 2G11G19G 6
  20109785.853   -20294032.127 8 -15727991.91624
  23496648.4934      27082.37545     80891.22761
  21030020.970      -78368.432 6    -49584.48422
  21163841.9154  -15957448.16247 -12271931.23562
 91  4 11 23  5 14.9970000  0  4G 2G11G19G 6
  20106403.392   -20311801.435 7 -15741838.10424
  23503356.407       62334.330 5    108360.20321
  21033338.993      -60921.170 6    -35989.26222
  21156246.2744  -15997364.79947 -12303035.04362
 91  4 11 23  5 29.9970000  0  4G 2G11G19G 6
  20103034.1184  -20329514.10348 -15755640.15764
  23510078.821       97664.908 5    135890.47221
  21036678.267      -43403.263 6    -22338.99022
  21148654.9624  -16037263.77347 -12334125.08462
 91  4 11 23  5 44.9970000  0  4G 2G11G19G 6
  20099672.9934  -20347173.39748 -15769400.61964
  23516817.618      133070.566 5    163479.20621
  21040019.626      -25817.910 6     -8636.16722
  21141063.4544  -16077148.14247 -12365203.74862
 91  4 11 23  5 59.9970000  0  4G 2G11G19G 6
  20096324.493   -20364772.186 8 -15783113.93324
  23523569.423      168558.256 5    191131.86021
  21043385.228       -8157.781 6      5124.92722
  21133478.0404  -16117010.34047 -12396265.13662
 91  4 11 23  6 14.9970000  0  4G 2G11G19G 6
  20092984.931   -20382319.200 8 -15796786.90524
  23530337.189      204118.910 5    218841.39521
  21046751.610        9568.537 6     18937.59522
  21125896.6654  -16156859.05047 -12427316.00862
 91  4 11 23  6 29.9970000  0  5G15G 2G11G19G 6
  23385862.3684         -0.41455
  20089656.368   -20399810.995 8 -15810416.85224
  23537118.0714     239755.54745    246610.12361
  21050141.048       27364.343 6     32804.40822
  21118316.1494  -16196690.69347 -12458353.58762
 91  4 11 23  6 44.9970000  0  5G15G 2G11G19G 6
  23378618.1814     -38056.73145
  20086338.298   -20417247.381 8 -15824003.62324
  23543914.3764     275468.29145    274438.15761
  21053539.548       45230.142 6     46725.76322
  21110739.3684  -16236504.52847 -12489377.29462
 91  4 11 23  6 59.9970000  0  5G15G 2G11G19G 6
  23371391.360      -76039.574 5
  20083031.657   -20434623.826 8 -15837543.68724
  23550725.103      311261.422 5    302328.84021
  21056954.860       63170.483 6     60705.19722
  21103167.384   -16276295.741 7 -12520383.35922
 91  4 11 23  7 14.9970000  0  5G15G 2G11G19G 6
  23364177.4854    -113950.33045        -0.18371
  20079735.548   -20451941.893 7 -15851038.25924
  23557550.829      347132.888 5    330280.55021
  21060381.993       81183.753 6     74741.46622
  21095598.9784  -16316065.86547 -12551372.99562
 91  4 11 23  7 29.9970000  0  5G15G 2G11G19G 6
  23356975.1814    -151794.43645    -29489.01761
  20076450.392   -20469207.578 7 -15864492.02124
  23564394.118      383076.533 5    358288.50521
  21063825.064       99264.074 6     88829.98422
  21088034.1894  -16355820.53447 -12582350.58962
 91  4 11 23  7 44.9970000  0  5G15G 2G11G19G 6
  23349787.9544    -189569.75545    -58924.21161
  20073175.228   -20486418.920 7 -15877903.43524
  23571246.642      419093.872 5    386353.89121
  21067277.009      117413.607 6    102972.42822
  21080472.8604  -16395557.76047 -12613314.60262
 91  4 11 23  7 59.9970000  0  5G15G 2G11G19G 6
  23342610.7744    -227273.50845    -88303.66561
  20069911.454   -20503573.603 7 -15891270.70124
  23578111.329      455187.106 5    414478.40921
  21070746.751      135634.843 6    117170.74722
  21072914.8684  -16435274.77547 -12644262.86462
 91  4 11 23  8 14.9970000  0  5G15G 2G11G19G 6
  23335453.345     -264900.652 5   -117623.38321
  20066658.509   -20520667.001 7 -15904590.20724
  23584997.6814     491360.58845    442665.46061
  21074225.282      153932.347 6    131428.49522
  21065362.0324  -16474966.71247 -12675191.58362
 91  4 11 23  8 29.9970000  0  5G15G 2G11G19G 6
  23328306.774     -302451.448 5   -146883.63221
  20063417.470   -20537700.072 7 -15917862.70624
  23591894.5484     527613.01045    470914.00961
  21077723.689      172305.274 6    145745.01422
  21057813.056   -16514634.273 7 -12706101.30022
 91  4 11 23  8 44.9970000  0  5G15G 2G11G19G 6
  23321171.337     -339936.946 4   -176093.00521
  20060184.993   -20554683.941 7 -15931096.86724
  23598806.8604     563932.94045    499215.15361
  21081229.837      190742.532 6    160111.66022
  21050266.470   -16554288.372 7 -12737000.52622
 91  4 11 23  8 59.9970000  0  5G15G 2G11G19G 6
  23314057.181     -377348.719 5   -205244.88521
  20056962.735   -20571610.937 7 -15944286.71124
  23605731.814      600327.632 5    527574.58521
  21084758.704      209251.552 6    174534.22022
  21042725.892   -16593921.192 7 -12767883.16922
 91  4 11 23  9 14.9970000  0  5G15G 2G11G19G 6
  23306947.603     -414687.425 5   -234339.91221
  20053753.267   -20588482.202 7 -15957433.12724
  23612672.329      636795.828 5    555991.27521
  21088289.048      227831.722 6    189012.22522
  21035187.2744  -16633533.47647 -12798749.81862
 91  4 11 23  9 29.9970000  0  5G15G 2G11G19G 6
  23299855.8604    -451952.86645   -263377.81061
  20050553.728   -20605297.699 7 -15970536.08924
  23619626.1814     673337.24745    584465.01961
  21091839.259      246483.079 6    203545.70022
  21027652.564   -16673125.029 7 -12829600.32422
 91  4 11 23  9 44.9970000  0  4G15G 2G19G 6
  23292781.173     -489141.921 5   -292356.19021
  20047364.337   -20622054.810 7 -15983593.55824
  21095401.126      265208.230 6    218136.67922
  21020122.1104  -16712692.90847 -12860432.37562
 91  4 11 23  9 59.9970000  0  4G15G 2G19G 6
  23285714.696     -526262.395 5   -321281.14121
  20044185.306   -20638761.694 7 -15996611.88624
  21098980.251      283999.052 6    232778.82522
  21012596.376   -16752245.147 7 -12891252.22422
 91  4 11 23 10 14.9970000  0  4G15G 2G19G 6
  23278667.939     -563300.229 5   -350141.69221
  20041017.110   -20655404.636 7 -16009580.38924
  21102567.868      302869.231 6    247482.81022
  21005075.9784  -16791767.83347 -12922049.05962
 91  4 11 23 10 29.9970000  0  4G15G 2G19G 6
  23271634.8994    -600265.32845   -378945.59061
  20037860.876   -20671994.128 7 -16022507.24324
  21106171.853      321808.426 6    262240.57922
  20997558.0174  -16831271.05447 -12952830.72862
 91  4 11 23 10 44.9970000  0  4G15G 2G19G 6
  23264613.923     -637152.887 5   -407689.05021
  20034715.103   -20688525.910 7 -16035389.12724
  21109789.267      340820.960 6    277055.48922
  20990044.6654  -16870750.36647 -12983593.76662
 91  4 11 23 10 59.9970000  0  4G15G 2G19G 6
  23257610.149     -673963.845 5   -436372.80521
  20031580.064   -20705001.273 7 -16048227.05524
  21113424.110      359905.552 6    291926.55122
  20982537.2984  -16910206.85247 -13014339.01962
 91  4 11 23 11 14.9970000  0  4G15G 2G19G 6
  23250621.087     -710697.927 5   -464996.63821
  20028455.423   -20721420.519 7 -16061021.24924
  21117065.751      379062.128 6    306853.70022
  20975033.2824  -16949640.45147 -13045066.43862
 91  4 11 23 11 29.9970000  0  4G15G 2G19G 6
  23243642.9074    -747353.20045   -493559.10161
  20025342.189   -20737782.019 7 -16073770.44824
  21120727.423      398292.292 6    321838.19322
  20967533.6104  -16989049.20647 -13075774.49862
 91  4 11 23 11 44.9970000  0  4G15G 2G19G 6
  23236682.532     -783931.370 5   -522061.47921
  20022239.110   -20754087.648 8 -16086476.11124
  21124398.618      417594.232 6    336878.61522
  20960039.2124  -17028434.97547 -13106464.63862
 91  4 11 23 11 59.9970000  0  4G15G 2G19G 6
  23229737.634     -820430.124 5   -550501.95421
  20019146.790   -20770335.746 7 -16099136.94824
  21128087.681      436969.827 6    351976.43222
  20952548.1034  -17067795.79247 -13137135.34462
 91  4 11 23 12 14.9970000  0  4G15G 2G19G 6
  23222808.1264    -856850.50245   -578881.36761
  20016066.220   -20786527.735 7 -16111754.05824
  21131787.907      456417.600 6    367130.49122
  20945063.7674  -17107132.60647 -13167787.33862
 91  4 11 23 12 29.9970000  0  4G15G 2G19G 6
  23215891.798     -893198.393 5   -607204.28921
  20012994.478   -20802669.901 8 -16124332.35124
  21135502.212      475931.472 6    382336.05822
  20937580.8294  -17146451.63147 -13198425.47162
 91  4 11 23 12 44.9970000  0  4G15G 2G19G 6
  23208986.142     -929471.040 5   -635468.60921
  20009932.962   -20818760.346 7 -16136870.34224
  21139226.759      495513.376 6    397594.63822
  20930102.3604  -17185750.67047 -13229048.03662
 91  4 11 23 12 59.9970000  0  4G15G 2G19G 6
  23202098.048     -965663.618 5   -663670.50521
  20006881.368   -20834794.418 7 -16149364.40424
  21142970.040      515168.126 6    412909.98522
  20922628.1424  -17225024.85147 -13259651.23162
 91  4 11 23 13 14.9970000  0  4G15G 2G19G 6
  23195230.345    -1001771.794 5   -691806.67221
  20003841.876   -20850767.863 7 -16161811.22624
  21146722.040      534900.034 6    428285.45122
  20915160.4394  -17264269.54147 -13290231.45462
 91  4 11 23 13 29.9970000  0  4G15G 2G19G 6
  23188371.5644   -1037806.47745   -719885.57061
  20000811.470   -20866692.225 7 -16174219.80124
  21150490.993      554697.477 6    443711.97822
  20907696.4394  -17303496.14347 -13320797.57462
 91  4 11 23 13 44.9970000  0  4G15G 2G19G 6
  23181528.5874   -1073760.85645   -747901.87061
  19997791.665   -20882561.253 8 -16186585.25924
  21154270.915      574566.664 6    459194.41722
  20900236.3684  -17342698.10847 -13351344.49562
 91  4 11 23 13 59.9970000  0  4G15G 2G19G 6
  23174703.556    -1109634.201 5   -775855.03421
  19994782.251   -20898374.343 8 -16198907.12724
  21158066.478      594508.179 6    474733.21222
  20892781.6424  -17381874.58247 -13381871.55262
 91  4 11 23 14 14.9970000  0  4G15G 2G19G 6
  23167892.5874   -1145425.06445   -803743.93661
  19991784.212   -20914130.672 7 -16211184.76724
  21161873.673      614523.082 6    490329.19122
  20885331.3844  -17421024.46947 -13412377.89662
 91  4 11 23 14 29.9970000  0  4G15G 2G19G 6
  23161095.0954   -1181137.87745   -831572.02661
  19988795.884   -20929835.000 7 -16223421.88424
  21165698.298      634606.784 6    505978.77822
  20877885.9154  -17460152.21547 -13442866.99262
 91  4 11 23 14 44.9970000  0  4G15G 2G19G 6
  23154315.079    -1216769.914 5   -859337.15021
  19985817.290   -20945485.071 7 -16235616.72524
  21169530.923      654761.194 6    521683.46422
  20870444.4544  -17499255.54847 -13473337.06962
 91  4 11 23 14 59.9970000  0  4G15G 2G19G 6
  23147550.3454   -1252324.00945   -887041.52261
  19982848.446   -20961084.448 7 -16247772.06824
  21173380.728      674983.105 6    537440.74522
  20863007.4704  -17538337.57647 -13503790.53562
 91  4 11 23 15 14.9970000  0  4G15G 2G19G 6
  23140800.017    -1287797.713 5   -914683.29921
  19979891.103   -20976630.881 7 -16259886.15024
  21177240.048      695275.102 6    553252.63922
  20855574.7744  -17577395.71047 -13534225.38662
 91  4 11 23 15 29.9970000  0  4G15G 2G19G 6
  23134064.8454   -1323192.02745   -942263.18461
  19976941.524   -20992125.415 7 -16271959.79524
  21181120.649      715635.769 6    569118.04522
  20848146.3534  -17616430.82047 -13564642.29662
 91  4 11 23 15 44.9970000  0  4G15G 2G19G 6
  23127340.970    -1358509.040 5   -969782.85721
  19974002.782   -21007570.898 7 -16283995.22024
  21185002.329      736062.623 6    585035.02522
  20840722.4314  -17655445.40547 -13595043.21262
 91  4 11 23 15 59.9970000  0  4G15G 2G19G 6
  23120639.603    -1393741.896 5   -997236.92621
  19971074.798   -21022960.718 7 -16295987.27124
  21188907.423      756562.036 6    601008.54322
  20833303.329   -17694432.845 7 -13625422.98122
 91  4 11 23 16 14.9970000  0  4G15G 2G19G 6
  23113948.3214   -1428889.25745  -1024624.38961
  19968156.345   -21038293.992 7 -16307935.25824
  21192818.728      777135.244 6    617039.55922
  20825889.759   -17733391.736 7 -13655780.50522
 91  4 11 23 16 29.9970000  0  4G15G 2G19G 6
  23107278.470    -1463955.251 5  -1051948.45121
  19965248.165   -21053575.651 7 -16319843.02424
  21196747.306      797777.402 6    633124.30522
  20818479.9154  -17772326.72547 -13686119.39662
 91  4 11 23 16 44.9970000  0  4G15G 2G19G 6
  23100618.978    -1498936.091 5  -1079206.15221
  19962351.165   -21068802.114 7 -16331707.78124
  21200688.931      818491.997 6    649265.49322
  20811075.915   -17811234.114 7 -13716436.77922
 91  4 11 23 16 59.9970000  0  4G15G 2G19G 6
  23093979.7044   -1533836.79045  -1106401.42361
  19959462.735   -21083978.554 7 -16343533.56024
  21204645.001      839273.743 6    665459.00822
  20803677.415   -17850118.898 7 -13746736.55722
 91  4 11 23 17 14.9970000  0  4G15G 2G19G 6
  23087350.9544   -1568658.38945  -1133535.05461
  19956584.329   -21099106.362 7 -16355321.44624
  21208609.9544     860121.45346    681703.92262
  20796280.657   -17888982.140 7 -13777019.55022
 91  4 11 23 17 29.9970000  0  4G15G 2G19G 6
  23080744.532    -1603388.366 5  -1160597.28921
  19953716.790   -21114173.438 7 -16367062.00624
  21212592.946      881047.141 6    698009.59722
  20788892.368   -17927811.422 7 -13807276.07722
 91  4 11 23 17 44.9970000  0  4G15G 2G19G 6
  23074153.7744   -1638036.31645  -1187595.61161
  19950858.720   -21129190.138 7 -16378763.31624
  21216587.423      902040.640 6    714368.11522
  20781508.0244  -17966616.80147 -13837513.97862
 91  4 11 23 17 59.9970000  0  4G15G 2G19G 6
  23067573.2204   -1672601.25445  -1214529.24161
  19948012.634   -21144155.898 7 -16390424.92424
  21220601.189      923102.725 6    730780.07622
  20774127.298   -18005397.325 7 -13867732.51522
 91  4 11 23 18 14.9970000  0  4G15G 2G19G 6
  23061010.087    -1707081.318 5  -1241396.73221
  19945173.821   -21159069.150 7 -16402045.62024
  21224614.782      944235.009 6    747246.73422
  20766753.4784  -18044151.27247 -13897930.33662
 91  4 11 23 18 29.9970000  0  4G15G 2G19G 6
  23054465.142    -1741472.428 5  -1268194.93321
  19942346.712   -21173926.139 7 -16413622.47724
  21228657.212      965441.193 6    763770.97822
  20759384.939   -18082874.552 7 -13928104.27222
 91  4 11 23 18 44.9970000  0  4G15G 2G19G 6
  23047938.548    -1775776.915 5  -1294925.62521
  19939528.985   -21188729.758 7 -16425157.75024
  21232700.649      986718.386 6    780350.55622
  20752020.9854  -18121569.93547 -13958256.46262
 91  4 11 23 18 59.9970000  0  4G15G 2G19G 6
  23041427.204    -1809998.756 5  -1321591.89721
  19936721.290   -21203484.131 7 -16436654.64524
  21236763.907     1008062.347 6    796982.15722
  20744662.2354  -18160241.27947 -13988389.91462
 91  4 11 23 19 14.9970000  0  4G15G 2G19G 6
  23034932.6264   -1844136.53545  -1348192.66661
  19933923.399   -21218188.535 7 -16448112.60524
  21240838.7124    1029474.19046    813666.64762
  20737307.4314  -18198887.35847 -14018503.68862
 91  4 11 23 19 29.9960000  0  4G15G 2G19G 6
  23028454.340    -1878182.339 5  -1374721.79621
  19931135.496   -21232836.619 7 -16459526.67624
  21244926.793     1050957.810 6    830407.07822
  20729960.902   -18237500.119 7 -14048591.50022
 91  4 11 23 19 44.9960000  0  4G15G 2G19G 6
  23021989.0904   -1912143.54545  -1401184.98961
  19928358.121   -21247433.563 7 -16470900.90424
  21249027.660     1072512.793 6    847203.11222
  20722616.535   -18276087.608 7 -14078659.61922
 91  4 11 23 19 59.9960000  0  4G15G 2G19G 6
  23015543.488    -1946017.037 5  -1427579.83621
  19925591.004   -21261977.969 7 -16482234.19224
  21253142.7384    1094138.08246    864053.92662
  20715280.2074  -18314646.57047 -14108705.50462
 91  4 11 23 20 14.9960000  0  5G15G 2G13G19G 6
  23009114.8874   -1979800.24445  -1453904.33061
  19922833.090   -21276467.378 7 -16493524.62824
  23065964.5594     -69106.72344
  21257272.082     1115836.152 6    880961.46022
  20707948.3324  -18353174.43647 -14138727.15962
 91  4 11 23 20 29.9960000  0  5G15G 2G13G19G 6
  23002701.316    -2013494.510 5  -1480159.51621
  19920085.973   -21290904.007 7 -16504773.93224
  23052816.8324    -138183.88244
  21261418.2854    1137605.01046    897924.14562
  20700621.6604  -18391673.03247 -14168726.00763
 91  4 11 23 20 44.9960000  0  5G15G 2G13G19G 6
  22996307.582    -2047102.678 5  -1506347.61921
  19917347.660   -21305291.032 7 -16515984.58424
  23039677.6064    -207234.98744
  21265569.5124    1159441.73946    914939.71762
  20693301.4104  -18430145.26447 -14198704.30462
 91  4 11 23 20 59.9960000  0  5G15G 2G13G19G 6
  22989928.8014   -2080618.71445  -1532463.91861
  19914621.535   -21319622.737 7 -16527152.13224
  23026544.9344    -276253.96244
  21269740.2544    1181351.95746    932012.55662
  20685986.0594  -18468585.14147 -14228657.39562
 91  4 11 23 21 14.9960000  0  5G15G 2G13G19G 6
  22983569.316    -2114043.601 5  -1558509.19121
  19911903.715   -21333900.310 7 -16538277.49924
  23013414.7624    -345241.49144
  21273920.465     1203334.201 6    949141.52222
  20678676.668   -18506993.621 7 -14258586.02522
 91  4 11 23 21 29.9960000  0  5G15G 2G13G19G 6
  22977225.1454   -2147383.79045  -1584488.47961
  19909196.270   -21348130.745 7 -16549366.13024
  23000295.848     -414203.803 4
  21278124.6454    1225381.82246    966321.41962
  20671373.371   -18545377.311 7 -14288495.34523
 91  4 11 23 21 44.9960000  0  5G15G 2G13G19G 6
  22970899.8094   -2180624.63145  -1610390.34361
  19906499.379   -21362299.927 7 -16560407.03724
  22987175.6524    -483126.55244        -0.35571
  21282329.2934    1247508.93546    983563.26362
  20664075.6914  -18583721.91547 -14318374.19663
 91  4 11 23 21 59.9960000  0  5G15G 2G13G19G 6
  22964588.4184   -2213779.17345  -1636224.96661
  19903812.441   -21376421.309 7 -16571410.69524
  22974066.566     -552022.514 5    -53685.21921
  21286553.8014    1269702.06346   1000856.54362
  20656784.8634  -18622040.46047 -14348232.73562
 91  4 11 23 22 14.9960000  0  5G15G 2G13G19G 6
  22958297.0124   -2246849.04145  -1661993.60161
  19901134.473   -21390496.848 7 -16582378.63224
  22960960.059     -620893.645 5   -107350.82521
  21290786.9264    1291959.44446   1018199.89762
  20649498.0824  -18660334.68047 -14378072.32662
 91  4 11 23 22 29.9960000  0  5G15G 2G13G19G 6
  22952019.481    -2279830.215 5  -1687693.14121
  19898464.481   -21404522.877 7 -16593307.99124
  22947860.3954    -689735.83045   -160993.82761
  21295036.6994    1314284.46746   1035595.95662
  20642216.074   -18698600.804 7 -14407890.03022
 91  4 11 23 22 44.9960000  0  5G15G 2G13G19G 6
  22945760.770    -2312718.206 5  -1713320.06821
  19895806.606   -21418495.111 7 -16604195.42924
  22934767.051     -758544.293 5   -214610.57521
  21299297.0594    1336681.55146   1053048.16562
  20634939.2934  -18736834.10547 -14437682.15763
 91  4 11 23 22 59.9960000  0  5G15G 2G13G19G 6
  22939517.160    -2345511.573 5  -1738873.25721
  19893157.832   -21432412.619 7 -16615040.22724
  22921679.418     -827317.568 5   -268199.87821
  21303575.6684    1359152.01846   1070557.55462
  20627670.1134  -18775033.30147 -14467447.70463
 91  4 11 23 23 14.9960000  0  5G15G 2G13G19G 6
  22933300.4574   -2378208.37745  -1764351.21661
  19890519.621   -21446273.955 7 -16625841.25224
  22908597.926     -896053.665 4   -321760.21521
  21307863.3324    1381697.29046   1088125.23562
  20620407.1844  -18813196.77647 -14497185.41363
 91  4 11 23 23 29.9960000  0  5G15G 2G13G19G 6
  22927092.9884   -2410813.60045  -1789757.82061
  19887892.152   -21460084.567 7 -16636602.75024
  22895524.754     -964757.536 4   -375295.44021
  21312169.4964    1404311.78946   1105746.85862
  20613152.731   -18851329.652 7 -14526899.28623
 91  4 11 23 23 44.9960000  0  5G15G 2G13G19G 6
  22920906.8564   -2443323.67645  -1815090.26461
  19885273.957   -21473841.456 7 -16647322.38824
  22882458.1914   -1033425.61345   -428802.71961
  21316484.1294    1426998.57646   1123424.80562
  20605902.0744  -18889428.55447 -14556586.68963
 91  4 11 23 23 59.9960000  0  5G15G 2G13G19G 6
  22914742.0984   -2475740.95445  -1840350.40161
  19882665.535   -21487546.880 7 -16658001.92824
  22869398.8404   -1102060.07344   -482283.91661
  21320817.6294    1449755.32146   1141157.27362
  20598656.723   -18927495.723 7 -14586249.35923
 91  4 11 23 24 14.9960000  0  5G15G 2G13G19G 6
  22908589.1684   -2508066.12845  -1865538.77661
  19880068.098   -21501201.966 7 -16668642.23924
  22856340.4814   -1170661.68045   -535739.39861
  21325158.9414    1472580.92646   1158943.39562
  20591419.145   -18965532.038 7 -14615887.99123
 91  4 11 23 24 29.9960000  0  5G15G 2G13G19G 6
  22902453.184    -2540296.847 5  -1890653.55821
  19877479.301   -21514804.964 7 -16679241.96324
  22843294.465    -1239227.934 5   -589167.47721
  21329516.8794    1495477.23746   1176784.61462
  20584188.418   -19003535.202 7 -14645500.79123
 91  4 11 23 24 44.9960000  0  5G15G 2G13G19G 6
  22896340.1214   -2572424.70945  -1915688.17961
  19874901.871   -21528347.761 7 -16689794.77424
  22830254.801    -1307750.721 5   -642561.61221
  21333887.7154    1518452.44246   1194687.31862
  20576964.723   -19041496.998 7 -14675081.35923
 91  4 11 23 24 59.9960000  0  5G15G 2G13G19G 6
  22890245.004    -2604466.033 5  -1940655.37721
  19872333.356   -21541847.131 8 -16700313.74624
  22817219.8564   -1376246.11445   -695934.39661
  21338274.2314    1541489.80746   1212638.44462
  20569744.934   -19079433.798 7 -14704642.44923
 91  4 11 23 25 14.9960000  0  5G15G 2G13G19G 6
  22884164.3954   -2636406.47445  -1965543.94061
  19869774.895   -21555289.308 8 -16710788.15624
  22804196.5434   -1444699.71044   -749274.59161
  21342670.6684    1564603.09246   1230648.72962
  20562532.0204  -19117331.62247 -14734173.16563
 91  4 11 23 25 29.9960000  0  5G15G 2G13G19G 6
  22878107.285    -2668247.550 5  -1990355.08921
  19867227.879   -21568676.047 8 -16721219.36524
  22791173.223    -1513112.754 4   -802583.18521
  21347085.6604    1587790.64446   1248716.88862
  20555328.2774  -19155191.81847 -14763674.55463
 91  4 11 23 25 44.9960000  0  5G15G 2G13G19G 6
  22872063.9734   -2699994.08245  -2015092.58161
  19864689.613   -21582012.385 8 -16731611.30124
  22778162.0514   -1581490.13645   -855863.97061
  21351508.684     1611047.347 6   1266838.93522
  20548129.988   -19193019.309 7 -14793150.47423
 91  4 11 23 25 59.9960000  0  5G15G 2G13G19G 6
  22866042.488    -2731651.588 5  -2039760.68421
  19862160.926   -21595304.201 8 -16741968.54524
  22765155.559    -1649837.450 5   -909121.33721
  21355948.8874    1634367.38246   1285010.32562
  20540936.9104  -19230819.66347 -14822605.23963
 91  4 11 23 26 14.9960000  0  5G15G 2G13G19G 6
  22860036.496    -2763215.255 5  -2064355.68421
  19859640.285   -21608547.291 8 -16752287.82124
  22752158.2544   -1718150.06645   -962351.77961
  21360396.6684    1657754.98646   1303234.37262
  20533749.277   -19268588.325 7 -14852035.31023
 91  4 11 23 26 29.9960000  0  5G15G 2G13G19G 6
  22854048.0124   -2794677.99745  -2088872.04061
  19857130.738   -21621734.777 8 -16762563.76824
  22739166.6214   -1786420.46145  -1015549.24761
  21364862.6454    1681217.13746   1321516.50962
  20526569.4184  -19306318.14547 -14881435.11263
 91  4 11 23 26 44.9960000  0  5G15G 2G13G19G 6
  22848079.7934   -2826047.94445  -2113316.09561
  19854631.160   -21634875.401 8 -16772803.19924
  22726182.7624   -1854656.72945  -1068720.09461
  21369339.2234    1704745.20046   1339850.00561
  20519396.145   -19344017.521 7 -14910811.19923
 91  4 11 23 26 59.9960000  0  5G15G 2G13G19G 6
  22842128.8484   -2857314.74245  -2137679.75261
  19852140.902   -21647958.921 8 -16782998.13324
  22713203.2314   -1922848.29345  -1121856.18661
  21373834.8564    1728349.26046   1358242.71262
  20512229.340   -19381676.065 7 -14940155.47023
 91  4 11 23 27 14.9960000  0  5G15G 2G13G19G 6
  22836195.5124   -2888483.20245  -2161966.79161
  19849661.012   -21660990.976 8 -16793152.96724
  22700234.168    -1991000.347 5  -1174961.38421
  21378335.5904    1752023.94246   1376690.45262
  20505069.809   -19419298.839 7 -14969471.86523
 91  4 11 23 27 29.9960000  0  5G15G 2G13G19G 6
  22830282.6604   -2919551.42745  -2186175.72561
  19847191.223   -21673969.788 8 -16803266.31324
  22687273.6844   -2059110.70545  -1228034.10161
  21382856.4574    1775771.04246   1395194.62262
  20497918.816   -19456883.945 7 -14998758.91123
 91  4 11 23 27 44.9960000  0  5G15G 2G13G19G 6
  22824392.207    -2950520.102 5  -2210307.08521
  19844731.199   -21686896.099 8 -16813338.74524
  22674323.0594   -2127179.79345  -1281074.68761
  21387387.5434    1799589.55546   1413754.43861
  20490772.840   -19494431.959 7 -15028017.06023
 91  4 11 23 27 59.9960000  0  5G15G 2G13G19G 6
  22818517.770    -2981390.144 5  -2234361.59121
  19842280.465   -21699771.190 8 -16823371.27024
  22661376.106    -2195208.388 5  -1334083.70921
  21391938.1844    1823478.38246   1432369.04062
  20483634.738   -19531943.854 7 -15057247.06123
 91  4 11 23 28 14.9960000  0  5G15G 2G13G19G 6
  22812658.895    -3012164.813 5  -2258341.77121
  19839839.957   -21712598.986 8 -16833366.93924
  22648436.676    -2263200.134 5  -1387064.03021
  21396491.6454    1847433.64746   1451035.42161
  20476502.309   -19569423.273 7 -15086451.74923
 91  4 11 23 28 29.9960000  0  5G15G 2G13G19G 6
  22806825.0664   -3042837.52445  -2282242.51661
  19837409.246   -21725373.255 8 -16843320.90124
  22635505.098    -2331148.187 5  -1440010.30421
  21401067.4024    1871461.34746   1469758.23661
  20469377.145   -19606863.533 7 -15115625.92823
 91  4 11 23 28 44.9960000  0  5G15G 2G13G19G 6
  22801005.285    -3073408.615 5  -2306064.05721
  19834988.231   -21738094.813 8 -16853233.78724
  22622582.379    -2399052.728 5  -1492922.69521
  21405650.2234    1895560.93146   1488537.06661
  20462260.973   -19644265.245 7 -15144770.07823
 91  4 11 23 28 59.9960000  0  5G15G 2G13G19G 6
  22795209.254    -3103872.642 5  -2329802.21721
  19832578.527   -21750758.511 8 -16863101.58824
  22609671.340    -2466908.238 5  -1545796.88821
  21410251.6374    1919737.54246   1507375.91561
  20455151.145   -19681622.968 7 -15173879.94623
 91  4 11 23 29 14.9960000  0  5G15G 2G13G19G 6
  22789430.3714   -3134243.43445  -2353467.69661
  19830175.949   -21763378.431 8 -16872935.27824
  22596766.277    -2534728.774 5  -1598643.77021
  21414864.2464    1943976.87946   1526263.65361
  20448048.457   -19718950.689 7 -15202966.43823
 91  4 11 23 29 29.9960000  0  5G15G 2G13G19G 6
  22783670.754    -3164510.511 5  -2377052.35221
  19827786.1524  -21775944.53648 -16882727.04064
  22583867.4654   -2602503.74745  -1651455.16261
  21419490.9884    1968289.18746   1545208.24061
  20440951.965   -19756237.980 7 -15232021.42523
 91  4 11 23 29 44.9960000  0  5G15G 2G13G19G 6
  22777924.8324   -3194680.75345  -2400561.55861
  19825403.645   -21788464.010 8 -16892482.46124
  22570973.098    -2670239.645 5  -1704236.10921
  21424130.059     1992667.363 6   1564204.14921
  20433864.1454  -19793491.62947 -15261050.20063
 91  4 11 23 29 59.9960000  0  5G15G 2G13G19G 6
  22772205.645    -3224748.981 5  -2423991.28221
  19823030.465   -21800932.276 8 -16902197.97624
  22558094.027    -2737931.404 4  -1756982.64421
  21428783.6844    2017115.95846   1583254.92961
  20426782.4344  -19830706.73947 -15290048.94963
 91  4 11 23 30 14.9960000  0  5G15G 2G13G19G 6
  22766505.6994   -3254713.97545  -2447340.55561
  19820667.637   -21813348.194 8 -16911872.70324
  22545225.777    -2805577.655 5  -1809693.71921
  21433446.4884    2041636.39146   1602361.69961
  20419706.590   -19867881.863 7 -15319016.53523
 91  4 11 23 30 29.9960000  0  5G15G 2G13G19G 6
  22760823.5744   -3284572.21745  -2470606.66361
  19818315.176   -21825708.910 8 -16921504.41624
  22532361.0124   -2873175.12145  -1862366.84561
  21438132.2544    2066231.42046   1621526.58261
  20412641.285   -19905013.860 7 -15347950.51123
 91  4 11 23 30 44.9960000  0  5G15G 2G13G19G 6
  22755160.941    -3314325.634 5  -2493791.07821
  19815973.348   -21838016.431 8 -16931094.67824
  22519505.1684   -2940725.43745  -1915003.26661
  21442822.137     2090898.896 6   1640747.92022
  20405583.1064  -19942104.48247 -15376852.25663
 91  4 11 23 30 59.9960000  0  5G15G 2G13G19G 6
  22749517.4104   -3343980.73045  -2516898.86761
  19813640.988   -21850277.735 8 -16940648.92524
  22506658.6294   -3008234.93545  -1967607.82061
  21447531.871     2115631.782 6   1660020.22321
  20398531.7074  -19979160.47347 -15405727.01663
 91  4 11 23 31 14.9960000  0  5G15G 2G13G19G 6
  22743892.8954   -3373532.18745  -2539925.91361
  19811316.691   -21862487.937 8 -16950163.35524
  22493818.981    -3075698.510 5  -2020176.60121
  21452250.2774    2140435.17946   1679347.47261
  20391487.223   -20016176.576 7 -15434570.68923
 91  4 11 23 31 29.9960000  0  5G15G 2G13G19G 6
  22738292.543    -3402976.060 5  -2562869.11721
  19809003.496   -21874643.099 8 -16959634.89324
  22480992.301    -3143111.803 5  -2072706.15521
  21456983.004     2165312.833 6   1698732.58221
  20384452.9344  -20053148.71047 -15463380.10363
 91  4 11 23 31 44.9960000  0  5G15G 2G13G19G 6
  22732707.5824   -3432318.72845  -2585733.47061
  19806699.973   -21886750.354 8 -16969069.10324
  22468170.3324   -3210481.35045  -2125201.63761
  21461731.363     2190257.780 6   1718170.13021
  20377423.9814  -20090083.58147 -15492160.48463
 91  4 11 23 31 59.9960000  0  5G15G 2G13G19G 6
  22727145.598    -3461553.016 5  -2608513.36621
  19804406.629   -21898802.783 8 -16978460.59024
  22455361.027    -3277799.830 5  -2177657.38321
  21466492.7384    2215276.94946   1737665.51261
  20370402.926   -20126974.017 7 -15520906.23623
 91  4 11 23 32 14.9960000  0  5G15G 2G13G19G 6
  22721601.2384   -3490679.18645  -2631209.00561
  19802123.199   -21910800.985 8 -16987809.82924
  22442559.348    -3345067.639 5  -2230073.64621
  21471264.512     2240369.616 6   1757218.16821
  20363392.6134  -20163820.37847 -15549617.64463
 91  4 11 23 32 29.9960000  0  5G15G 2G13G19G 6
  22716079.4494   -3519701.94145  -2653824.06161
  19799849.371   -21922750.006 8 -16997120.73924
  22429769.270    -3412289.064 5  -2282453.77621
  21476055.715     2265530.828 6   1776824.22921
  20356386.770   -20200627.306 7 -15578298.32923
 91  4 11 23 32 44.9960000  0  5G15G 2G13G19G 6
  22710574.2234   -3548618.57845  -2676356.45361
  19797584.395   -21934647.529 8 -17006391.52324
  22416986.699    -3479461.351 5  -2334795.60621
  21480854.152     2290762.827 6   1796485.45321
  20349391.0984  -20237392.26247 -15606946.30563
 91  4 11 23 32 59.9960000  0  5G15G 2G13G19G 6
  22705094.5664   -3577427.01145  -2698804.51661
  19795331.941   -21946491.765 8 -17015620.78124
  22404211.191    -3546582.300 5  -2387097.36721
  21485675.723     2316067.311 6   1816203.15521
  20342403.6604  -20274113.23947 -15635560.01463
 91  4 11 23 33 14.9960000  0  5G15G 2G13G19G 6
  22699630.254    -3606136.194 5  -2721175.25121
  19793086.652   -21958291.846 8 -17024815.63624
  22391447.574    -3613660.905 5  -2439366.16021
  21490495.324     2341435.357 6   1835970.39021
  20335422.816   -20310799.107 7 -15664146.36223
 91  4 11 23 33 29.9960000  0  5G15G 2G13G19G 6
  22694186.848    -3634734.029 5  -2743459.21521
  19790851.379   -21970036.228 8 -17033967.08824
  22378692.9184   -3680685.07845  -2491592.53761
  21495337.754     2366878.602 6   1855796.21221
  20328450.3404  -20347437.67047 -15692695.85263
 91  4 11 23 33 44.9960000  0  5G15G 2G13G19G 6
  22688763.684    -3663229.042 5  -2765663.03521
  19788625.324   -21981733.822 8 -17043082.07924
  22365946.7314   -3747663.17745  -2543783.05361
  21500191.824     2392388.174 6   1875673.72921
  20321486.3324  -20384037.62847 -15721215.26063
 91  4 11 23 33 59.9960000  0  5G15G 2G13G19G 6
  22683363.2624   -3691616.79545  -2787783.29761
  19786409.504   -21993380.453 8 -17052157.36624
  22353210.723    -3814590.645 5  -2595934.11221
  21505064.3564    2417968.02145   1895606.00161
  20314528.645   -20420594.727 7 -15749701.26523
 91  4 11 23 34 14.9960000  0  5G15G 2G13G19G 6
  22677981.168    -3719897.545 5  -2809820.17621
  19784201.965   -22004976.791 8 -17061193.45424
  22340484.8634   -3881467.70445  -2648045.87161
  21509944.027     2443617.609 6   1915592.61922
  20307582.4414  -20457109.29547 -15778154.13763
 91  4 11 23 34 29.9960000  0  5G15G 2G13G19G 6
  22672622.7074   -3748072.87945  -2831774.92861
  19782004.059   -22016524.899 8 -17070191.96824
  22327767.8404   -3948295.98845  -2700119.62761
  21514837.926     2469334.857 5   1935631.95021
  20300640.215   -20493582.930 7 -15806575.10923
 91  4 11 23 34 44.9960000  0  5G15G 2G13G19G 6
  22667282.059    -3776138.046 5  -2853643.79621
  19779816.731   -22028020.406 8 -17079149.49024
  22315061.582    -4015070.618 5  -2752151.56221
  21519742.973     2495124.106 6   1955727.39021
  20293707.238   -20530011.099 7 -15834960.64923
 91  4 11 23 34 59.9960000  0  5G15G 2G13G19G 6
  22661960.449    -3804089.570 5  -2875424.14321
  19777639.988   -22039460.106 8 -17088063.52924
  22302365.3564   -4081787.94445  -2804138.85361
  21524669.543     2520988.698 5   1975881.53721
  20286785.8794  -20566390.22347 -15863307.97563
 91  4 11 23 35 14.9960000  0  5G15G 2G13G19G 6
  22656662.5824   -3831936.87945  -2897123.27161
  19775471.590   -22050853.619 8 -17096941.57624
  22289677.223    -4148457.440 5  -2856088.85321
  21529598.520     2546918.941 6   1996086.84521
  20279869.8014  -20602729.66847 -15891624.38463
 91  4 11 23 35 29.9960000  0  5G15G 2G13G19G 6
  22651382.2934   -3859676.30645  -2918738.34261
  19773312.840   -22062197.734 8 -17105781.13424
  22277001.3714   -4215075.29545  -2907998.63361
  21534549.262     2572918.118 5   2016345.86121
  20272962.918   -20639025.885 7 -15919907.10223
 91  4 11 23 35 44.9960000  0  5G15G 2G13G19G 6
  22646121.8484   -3887307.38545  -2940268.96461
  19771164.160   -22073492.280 8 -17114582.06424
  22264331.934    -4281640.829 5  -2959867.65921
  21539509.168     2598986.407 6   2036658.73521
  20266064.566   -20675278.388 7 -15948155.76223
 91  4 11 23 35 59.9960000  0  5G15G 2G13G19G 6
  22640889.8794   -3914827.96845  -2961713.51661
  19769024.371   -22084735.291 8 -17123342.83824
  22251676.895    -4348151.854 5  -3011694.21521
  21544484.012     2625125.670 5   2057026.91821
  20259174.949   -20711485.043 7 -15976368.69323
 91  4 11 23 36 14.9960000  0  5G15G 2G13G19G 6
  22635670.356    -3942237.634 5  -2983071.61721
  19766896.027   -22095926.660 8 -17132063.37224
  22239030.7314   -4414607.59145  -3063477.69661
  21549470.348     2651335.909 6   2077450.40821
  20252292.816   -20747645.328 7 -16004545.49723
 91  4 11 23 36 29.9960000  0  5G15G 2G13G19G 6
  22630474.488    -3969537.496 5  -3004344.16921
  19764774.449   -22107068.054 8 -17140744.96624
  22226393.770    -4481009.431 5  -3115219.16721
  21554473.559     2677615.489 5   2097927.92621
  20245420.824   -20783760.749 7 -16032687.33723
 91  4 11 23 36 44.9960000  0  5G15G 2G13G19G 6
  22625302.8484   -3996725.12045  -3025529.23261
  19762664.9104  -22118157.53048 -17149386.10564
  22213770.1604   -4547355.12045  -3166916.85761
  21559488.504     2703966.631 6   2118461.20521
  20238557.246   -20819828.823 7 -16060792.28223
 91  4 11 23 36 59.9960000  0  5G15G 2G13G19G 6
  22620150.9964   -4023806.71545  -3046631.70461
  19760562.668   -22129201.437 8 -17157991.73524
  22201153.481    -4613650.401 5  -3218575.30721
  21564514.121     2730382.834 5   2139045.17921
  20231700.676   -20855855.773 7 -16088865.17823
 91  4 11 23 37 14.9960000  0  5G15G 2G13G19G 6
  22615015.3634   -4050777.82145  -3067648.06961
  19758470.356   -22140195.589 8 -17166558.59424
  22188548.1374   -4679890.71945  -3270190.90461
  21569551.856     2756868.014 5   2159682.90621
  20224853.910   -20891837.214 7 -16116902.62023
 91  4 11 23 37 29.9960000  0  5G15G 2G13G19G 6
  22609905.6764   -4077640.57845  -3088580.02461
  19756387.793   -22151142.521 8 -17175088.65924
  22175952.340    -4746078.281 5  -3321765.41121
  21574607.481     2783419.763 5   2180372.49821
  20218015.082   -20927775.280 7 -16144906.26023
 91  4 11 23 37 44.9960000  0  5G15G 2G13G19G 6
  22604816.809    -4104390.941 5  -3109424.38721
  19754313.9024  -22162038.62548 -17183579.11764
  22163368.356    -4812208.926 5  -3373295.58321
  21579672.848     2810041.744 6   2201116.82221
  20211185.527   -20963665.935 7 -16172872.95623
 91  4 11 23 37 59.9960000  0  5G15G 2G13G19G 6
  22599744.9884   -4131029.96845  -3130182.00561
  19752249.9734  -22172885.25148 -17192031.02264
  22150795.6994   -4878283.41145  -3424781.97661
  21584754.0984    2836732.71245   2221914.89861
  20204365.496   -20999510.235 7 -16200803.52823
 91  4 11 23 38 14.9960000  0  5G15G 2G13G19G 6
  22594697.527    -4157560.208 5  -3150854.84721
  19750194.941   -22183685.108 8 -17200446.48125
  22138231.238    -4944304.337 5  -3476226.63321
  21589843.1914    2863489.93846   2242764.59461
  20197551.949   -21035310.784 7 -16228700.01723
 91  4 11 23 38 29.9960000  0  5G15G 2G13G19G 6
  22589669.215    -4183975.689 5  -3171438.25521
  19748149.629   -22194432.727 8 -17208821.23924
  22125678.8794   -5010265.60245  -3527624.80661
  21594950.176     2890318.803 6   2263670.12221
  20190749.316   -21071061.579 7 -16256557.72323
 91  4 11 23 38 44.9960000  0  5G15G 2G13G19G 6
  22584663.6994   -4210282.71945  -3191937.18361
  19746113.816   -22205134.494 8 -17217160.26525
  22113137.160    -5076173.386 5  -3578981.30821
  21600066.457     2917212.770 6   2284626.38921
  20183954.582   -21106768.842 7 -16284381.51723
 91  4 11 23 38 59.9960000  0  5G15G 2G13G19G 6
  22579679.238    -4236479.530 5  -3212350.20121
  19744085.7774  -22215789.07148 -17225462.52365
  22100604.3634   -5142025.72345  -3630294.58361
  21605197.332     2944173.297 5   2305634.51121
  20177167.090   -21142430.909 7 -16312170.09623
 91  4 11 23 39 14.9960000  0  5G15G 2G13G19G 6
  22574713.5204   -4262560.62345  -3232673.06261
  19742068.379   -22226391.321 8 -17233724.00225
  22088085.8954   -5207817.09645  -3681560.37361
  21610340.973     2971205.716 6   2326698.65421
  20170391.465   -21178042.376 7 -16339919.23823
 91  4 11 23 39 29.9960000  0  5G15G 2G13G19G 6
  22569776.4884   -4288520.49145  -3252901.46361
  19740061.1524  -22236935.89248 -17241940.54065
  22075578.184    -5273541.970 5  -3732774.33821
  21615502.160     2998314.891 5   2347822.60921
  20163624.918   -21213597.708 7 -16367624.64923
 91  4 11 23 39 44.9960000  0  5G15G 2G13G19G 6
  22564857.246    -4314372.407 5  -3273045.74221
  19738063.3404  -22247436.51348 -17250122.83365
  22063080.512    -5339213.359 5  -3783946.63521
  21620670.918     3025487.333 6   2368995.86021
  20156867.184   -21249110.166 7 -16395296.64823
 91  4 11 23 39 59.9960000  0  5G15G 2G13G19G 6
  22559958.512    -4340110.777 5  -3293101.53521
  19736074.3564  -22257887.89448 -17258266.75464
  22050596.4344   -5404825.72145  -3835072.93861
  21625856.207     3052728.281 5   2390222.50021
  20150118.231   -21284574.178 7 -16422930.89223
 91  4 11 23 40 14.9960000  0  5G15G 2G13G19G 6
  22555080.926    -4365737.435 5  -3313070.28821
  19734094.7074  -22268292.40648 -17266374.16065
  22038121.7624   -5470380.90245  -3886154.67861
  21631049.4814    3080035.37145   2411500.66761
  20143378.090   -21319991.879 7 -16450529.05523
 91  4 11 23 40 29.9960000  0  5G15G 2G13G19G 6
  22550228.1844   -4391256.73445  -3332955.39061
  19732122.3484  -22278654.60448 -17274448.58565
  22025657.895    -5535882.908 5  -3937194.99121
  21636262.426     3107404.165 5   2432826.92121
  20136646.777   -21355367.339 7 -16478094.29823
 91  4 11 23 40 44.9960000  0  5G15G 2G13G19G 6
  22545392.2934   -4416662.37545  -3352751.93261
  19730159.9814  -22288968.47848 -17282485.36664
  22013201.5984   -5601325.58645  -3988189.08161
  21641480.246     3134840.612 6   2454205.89221
  20129925.387   -21390694.357 7 -16505621.79923
 91  4 11 23 40 59.9960000  0  5G15G 2G13G19G 6
  22540580.887    -4441947.073 5  -3372454.21121
  19728207.8484  -22299227.04448 -17290479.04664
  22000761.762    -5666701.528 5  -4039131.15521
  21646717.941     3162351.535 5   2475642.88821
  20123211.902   -21425965.598 7 -16533105.83623
 91  4 11 23 41 14.9960000  0  5G15G 2G13G19G 6
  22535790.473    -4467118.581 5  -3392068.30921
  19726264.3404  -22309438.27848 -17298435.84465
  21988333.902    -5732018.265 5  -4090027.10421
  21651962.5904    3189928.96546   2497131.70961
  20116510.152   -21461188.801 7 -16560552.44123
 91  4 11 23 41 29.9960000  0  5G15G 2G13G19G 6
  22531017.949    -4492181.564 5  -3411597.82521
  19724329.5594  -22319607.15448 -17306359.63864
  21975911.637    -5797280.310 5  -4140880.41221
  21657224.293     3217567.829 6   2518668.41321
  20109814.863   -21496368.679 7 -16587965.28723
 91  4 11 23 41 44.9960000  0  5G15G 2G13G19G 6
  22526272.465    -4517128.059 5  -3431036.59121
  19722403.5044  -22329726.28848 -17314244.67264
  21963506.941    -5862479.675 5  -4191684.93021
  21662495.184     3245275.726 6   2540258.90921
  20103130.285   -21531497.446 7 -16615338.30523
 91  4 11 23 41 59.9960000  0  5G15G 2G13G19G 6
  22521547.8634   -4541958.29045  -3450384.75661
  19720488.0354  -22339795.90248 -17322091.11664
  21951110.8484   -5927616.33945  -4242440.55661
  21667781.832     3273052.439 5   2561903.01321
  20096455.145   -21566574.964 7 -16642671.39223
 91  4 11 23 42 14.9960000  0  5G15G 2G13G19G 6
  22516840.4734   -4566677.22545  -3469646.20961
  19718579.5514  -22349821.13848 -17329902.98364
  21938724.402    -5992695.004 5  -4293150.97521
  21673078.4654    3300892.79645   2583596.71461
  20089789.434   -21601606.230 7 -16669968.43723
 91  4 11 23 42 29.9960000  0  5G15G 2G13G19G 6
  22512160.7234   -4591280.50845  -3488817.53061
  19716681.3714  -22359798.30848 -17337677.39264
  21926356.1914   -6057711.92045  -4343813.27761
  21678391.1374    3328800.19845   2605342.65661
  20083131.434   -21636587.284 7 -16697226.35423
 91  4 11 23 42 44.9960000  0  5G15G 2G13G19G 6
  22507502.1844   -4615767.16545  -3507897.98661
  19714792.2074  -22369726.71648 -17345413.80964
  21913995.5274   -6122665.64246  -4394426.37761
  21683711.246     3356775.485 5   2627141.50521
  20076486.293   -21671516.918 7 -16724444.20823
 91  4 11 23 42 59.9960000  0  5G15G 2G13G19G 6
  22502865.2074   -4640131.76045  -3526883.32461
  19712912.9414  -22379601.24348 -17353108.23864
  21901647.4814   -6187550.55546  -4444985.86361
  21689055.5984    3384823.76045   2648997.21661
  20069848.434   -21706389.712 7 -16751617.76923
 91  4 11 23 43 14.9960000  0  5G15G 2G13G19G 6
  22498248.6764   -4664380.61245  -3545778.47961
  19711042.5274  -22389428.21848 -17360765.61864
  21889311.762    -6252372.806 5  -4495496.49721
  21694402.2314    3412938.75445   2670904.90861
  20063223.1604  -21741211.73947 -16778751.77563
 91  4 11 23 43 29.9960000  0  5G15G 2G13G19G 6
  22493657.481    -4688516.270 5  -3564585.43521
  19709181.5984  -22399210.86248 -17368388.45264
  21876985.0354   -6317134.95645  -4545960.25861
  21699767.0904    3441117.17445   2692862.02761
  20056605.8564  -21775985.77447 -16805848.38663
 91  4 11 23 43 44.9960000  0  5G15G 2G13G19G 6
  22489085.9104   -4712533.23645  -3583299.90161
  19707329.8564  -22408943.76948 -17375972.52964
  21864674.9024   -6381831.32246  -4596372.78061
  21705137.496     3469364.130 5   2714872.55721
  20049998.410   -21810706.418 7 -16832903.38823
 91  4 11 23 43 59.9960000  0  5G15G 2G13G19G 6
  22484539.7934   -4736431.93445  -3601922.21961
  19705486.5824  -22418627.78748 -17383518.51264
  21852376.8404   -6446462.22246  -4646734.31461
  21710525.793     3497678.900 5   2736935.93221
  20043401.5354  -21845374.04747 -16859917.08763
 91  4 11 23 44 14.9960000  0  5G15G 2G13G19G 6
  22480013.957    -4760214.018 5  -3620453.65121
  19703653.1524  -22428264.54248 -17391027.67064
  21840090.856    -6511029.132 6  -4697046.01021
  21715926.231     3526059.830 5   2759050.86421
  20036814.5434  -21879990.03847 -16886890.55163
 91  4 11 23 44 29.9960000  0  5G15G 2G13G19G 6
  22475511.129    -4783875.285 5  -3638890.96121
  19701828.7544  -22437850.41348 -17398497.17664
  21827812.973    -6575527.869 5  -4747304.58121
  21721340.6604    3554510.45345   2781220.08861
  20030237.0664  -21914550.53947 -16913820.77063
 91  4 11 23 44 44.9960000  0  5G15G 2G13G19G 6
  22471031.012    -4807419.792 5  -3657237.28921
  19700013.2234  -22447389.49548 -17405930.22364
  21815554.395    -6639962.175 5  -4797512.90221
  21726768.629     3583026.531 5   2803440.32721
  20023670.1994  -21949059.37247 -16940710.73263
 91  4 11 23 44 59.9960000  0  5G15G 2G13G19G 6
  22466575.8094   -4830847.24145  -3675492.37661
  19698207.1214  -22456881.86048 -17413326.86564
  21803306.6064   -6704331.67846  -4847670.74261
  21732207.5744    3611608.14945   2825711.63061
  20017113.0204  -21983516.26147 -16967560.21463
 91  4 11 23 45 14.9960000  0  5G15G 2G13G19G 6
  22462138.332    -4854159.250 5  -3693657.52221
  19696409.0044  -22466329.60547 -17420688.73864
  21791066.4494   -6768638.10846  -4897779.43061
  21737657.0984    3640253.25845   2848032.40261
  20010565.5984  -22017922.89147 -16994370.53963
 91  4 11 23 45 29.9960000  0  5G15G 2G13G19G 6
  22457722.1374   -4877350.58345  -3711728.63261
  19694620.8794  -22475727.66648 -17428011.89764
  21778842.8634   -6832876.00445  -4947834.72761
  21743123.379     3668966.953 5   2870406.61421
  20004029.4414  -22052273.86047 -17021137.48863
 91  4 11 23 45 44.9960000  0  5G15G 2G13G19G 6
  22453332.5514   -4900418.37245  -3729703.48161
  19692841.9494  -22485073.50048 -17435294.35664
  21766632.949    -6897042.441 6  -4997834.34521
  21748599.7154    3697751.59745   2892836.12061
  19997503.3244  -22086566.41447 -17047858.91963
 91  4 11 23 45 59.9960000  0  5G15G 2G13G19G 6
  22448967.934    -4923367.868 5  -3747586.14621
  19691072.8634  -22494372.64048 -17442540.43064
  21754434.9104   -6961142.45746  -5047782.21161
  21754091.1524    3726601.54945   2915316.51061
  19990988.2704  -22120805.59047 -17074538.76263
 91  4 11 23 46 14.9960000  0  5G15G 2G13G19G 6
  22444620.887    -4946200.570 5  -3765377.81721
  19689311.7934  -22503626.73748 -17449751.40464
  21742249.3714   -7025177.27146  -5097679.28761
  21759592.6604    3755515.25445   2937846.57861
  19984482.4654  -22154992.85947 -17101178.15963
 91  4 11 23 46 29.9960000  0  5G15G 2G13G19G 6
  22440297.1604   -4968916.80545  -3783078.72461
  19687559.6134  -22512836.57448 -17456927.89464
  21730075.0204   -7089147.40446  -5147525.94161
  21765107.5744    3784492.12945   2960425.86361
  19977986.2154  -22189128.69047 -17127777.47164
 91  4 11 23 46 44.9960000  0  5G15G 2G13G19G 6
  22435998.887    -4991514.182 5  -3800687.00721
  19685815.6604  -22521999.94048 -17464068.17064
  21717913.824    -7153050.228 5  -5197320.11521
  21770629.9414    3813534.14445   2983055.91861
  19971501.4734  -22223210.57547 -17154334.75363
 91  4 11 23 46 59.9960000  0  5G15G 2G13G19G 6
  22431722.746    -5013987.537 5  -3818198.67521
  19684081.2934  -22531111.84148 -17471168.34664
  21705768.5664   -7216880.31346  -5247057.64261
  21776173.879     3842646.141 5   3005740.50021
  19965026.3874  -22257233.27547 -17180845.91564
 91  4 11 23 47 14.9960000  0  5G15G 2G13G19G 6
  22427470.754    -5036337.597 5  -3835614.25721
  19682356.1914  -22540173.69948 -17478229.52764
  21693637.473    -7280638.489 6  -5296739.19321
  21781724.1524    3871826.73645   3028478.53861
  19958563.8164  -22291197.73447 -17207311.69464
 91  4 11 23 47 29.9960000  0  5G15G 2G13G19G 6
  22423236.6374   -5058565.65045  -3852934.75961
  19680641.5984  -22549186.79547 -17485252.71164
  21681518.285    -7344325.691 6  -5346365.40621
  21787294.7624    3901074.62645   3051269.00961
  19952110.9884  -22325104.97247 -17233732.88764
 91  4 11 23 47 44.9960000  0  5G15G 2G13G19G 6
  22419036.363    -5080670.297 5  -3870159.09521
  19678936.3094  -22558150.10248 -17492237.10264
  21669410.676    -7407940.599 6  -5395935.24921
  21792870.5984    3930390.79045   3074112.67361
  19945669.4574  -22358953.66547 -17260108.46464
 91  4 11 23 47 59.9960000  0  5G15G 2G13G19G 6
  22414850.285    -5102654.467 5  -3887289.55621
  19677239.3484  -22567066.68547 -17499185.08064
  21657316.762    -7471485.706 6  -5445450.68921
  21798462.0274    3959772.40545   3097007.34361
  19939239.7464  -22392746.37447 -17286440.41464
 91  4 11 23 48 14.9960000  0  5G15G 2G13G19G 6
  22410689.715    -5124515.732 5  -3904324.26521
  19675551.1454  -22575934.62747 -17506095.15865
  21645240.856    -7534958.831 6  -5494910.07321
  21804065.3404    3989221.15045   3119954.32861
  19932819.8014  -22426481.06947 -17312727.16264
 91  4 11 23 48 29.9960000  0  5G15G 2G13G19G 6
  22406550.606    -5146249.188 5  -3921259.37821
  19673874.9344  -22584748.99848 -17512963.49264
  21633177.0514   -7598354.97546  -5544309.50061
  21809686.527     4018741.640 5   3142957.21821
  19926412.5984  -22460152.72747 -17338964.78664
 91  4 11 23 48 44.9960000  0  5G15G 2G13G19G 6
  22402439.543    -5167861.265 5  -3938099.90521
  19672205.5824  -22593516.48547 -17519795.29165
  21621125.4264   -7661680.10246  -5593653.60061
  21815313.9884    4048327.21145   3166010.81961
  19920015.0354  -22493767.47347 -17365158.06663
 91  4 11 23 48 59.9960000  0  5G15G 2G13G19G 6
  22398350.9734   -5189352.68045  -3954846.42061
  19670545.8954  -22602238.45447 -17526591.62465
  21609086.231    -7724935.169 6  -5642943.07021
  21820957.965     4077976.523 5   3189114.06721
  19913629.6294  -22527326.48447 -17391307.91464
 91  4 11 23 49 14.9960000  0  5G15G 2G13G19G 6
  22394288.6604   -5210721.19546  -3971497.15661
  19668895.4574  -22610912.62847 -17533350.71364
  21597066.449    -7788117.449 6  -5692175.78821
  21826610.5904    4107691.75045   3212268.69561
  19907254.2234  -22560827.11947 -17417412.27764
 91  4 11 23 49 29.9960000  0  5G15G 2G13G19G 6
  22390241.1684   -5231962.20445  -3988048.54061
  19667254.8404  -22619534.64647 -17540069.16465
  21585056.348    -7851222.323 6  -5741348.21821
  21832276.6684    4137477.28945   3235478.11561
  19900891.9884  -22594264.76847 -17443467.55264
 91  4 11 23 49 44.9960000  0  5G15G 2G13G19G 6
  22386225.863    -5253085.847 6  -4004508.48021
  19665623.0664  -22628114.86347 -17546755.04264
  21573060.2074   -7914259.73346  -5790468.08961
  21837957.316     4167322.808 5   3258734.26321
  19894539.1064  -22627649.49547 -17469481.59764
 91  4 11 23 49 59.9960000  0  5G15G 2G13G19G 6
  22382225.8014   -5274090.69546  -4020875.84561
  19663997.4414  -22636652.44747 -17553407.69764
  21561078.6134   -7977228.19146  -5839534.25861
  21843649.9814    4197229.24745   3282037.87761
  19888196.3244  -22660979.82747 -17495453.25664
 91  4 11 23 50 14.9960000  0  5G15G 2G13G19G 6
  22378251.676    -5294977.616 6  -4037151.33121
  19662380.9024  -22645148.26847 -17560027.81164
  21549110.9104   -8040128.55346  -5888547.34661
  21849351.0664    4227195.28845   3305387.94161
  19881863.3634  -22694256.68447 -17521383.23164
 91  4 11 23 50 29.9960000  0  5G15G 2G13G19G 6
  22374299.824    -5315733.405 5  -4053324.63321
  19660773.5044  -22653589.62347 -17566605.48164
  21537154.5904   -8102947.83546  -5937497.26361
  21855067.738     4257233.614 5   3328794.32821
  19875544.1604  -22727466.98847 -17547261.36064
 91  4 11 23 50 44.9960000  0  5G15G 2G13G19G 6
  22370375.6064   -5336364.64345  -4069400.87561
  19659176.6134  -22661983.08847 -17573145.84164
  21525215.3014   -8165691.81646  -5986388.48061
  21860795.738     4287337.830 5   3352252.06421
  19869235.2074  -22760617.05247 -17573092.54764
 91  4 11 23 50 59.9960000  0  5G15G 2G13G19G 6
  22366472.231    -5356872.550 5  -4085381.00921
  19657588.0204  -22670330.31647 -17579650.16865
  21513289.293    -8228361.748 6  -6035221.99621
  21866539.043     4317506.143 5   3375759.72721
  19862939.0744  -22793708.02447 -17598877.68164
 91  4 11 23 51 14.9960000  0  5G15G 2G13G19G 6
  22362595.7074   -5377253.81846  -4101262.46061
  19656009.8484  -22678628.02047 -17586115.90464
  21501378.1214   -8290954.20146  -6083995.15461
  21872290.035     4347741.666 5   3399319.78421
  19856652.6454  -22826736.44347 -17624614.08464
 91  4 11 23 51 29.9960000  0  5G15G 2G13G19G 6
  22358738.887    -5397516.268 6  -4117051.34821
  19654439.5984  -22686884.22947 -17592549.30964
  21489479.9734   -8353476.59746  -6132713.74861
  21878057.5204    4378036.38345   3422925.96161
  19850378.2234  -22859709.97947 -17650307.71064
 91  4 11 23 51 44.9960000  0  5G15G 2G13G19G 6
  22354906.981    -5417650.728 5  -4132740.48521
  19652876.6914  -22695089.99748 -17598943.40864
  21477596.9734   -8415919.89846  -6181370.69661
  21883830.9344    4408399.12945   3446585.15361
  19844115.7384  -22892619.42847 -17675951.40264
 91  4 11 23 51 59.9960000  0  5G15G 2G13G19G 6
  22351099.4574   -5437658.84845  -4148331.19061
  19651324.9024  -22703247.34048 -17605299.77164
  21465728.676    -8478285.513 6  -6229967.08021
  21889625.754     4438828.137 5   3470295.95821
  19837866.0354  -22925466.53047 -17701546.51263
 91  4 11 23 52 14.9960000  0  5G15G 2G13G19G 6
  22347315.3164   -5457544.56045  -4163826.51461
  19649781.4264  -22711360.48748 -17611621.69864
  21453875.2624   -8540577.27946  -6278505.93761
  21895422.996     4469319.010 5   3494054.97421
  19831625.2544  -22958255.16947 -17727096.06364
 91  4 11 23 52 29.9960000  0  5G15G 2G13G19G 6
  22343556.981    -5477308.472 5  -4179226.91921
  19648245.0044  -22719430.47148 -17617909.98964
  21442037.1134   -8602795.87846  -6326987.77761
  21901241.090     4499870.634 5   3517861.33521
  19825397.3634  -22990985.98647 -17752600.56263
 91  4 11 23 52 44.9960000  0  5G15G 2G13G19G 6
  22339816.4574   -5496949.77645  -4194531.79461
  19646717.8094  -22727456.64148 -17624164.14264
  21430209.684    -8664940.234 6  -6375411.78721
  21907065.832     4530483.485 5   3541715.40021
  19819180.9654  -23023658.01347 -17778059.24963
 91  4 11 23 52 59.9960000  0  5G15G 2G13G19G 6
  22336105.4814   -5516466.55846  -4209739.64861
  19645199.0594  -22735437.07047 -17630382.65064
  21418399.512    -8727008.149 6  -6423776.22421
  21912907.7074    4561159.43445   3565618.64261
  19812974.5514  -23056269.10447 -17803470.45564
 91  4 11 23 53 14.9960000  0  5G15G 2G13G19G 6
  22332413.3794   -5535853.14345  -4224846.04261
  19643690.3874  -22743366.52747 -17636561.44364
  21406602.0204   -8788994.11746  -6472076.79461
  21918755.215     4591903.847 5   3589575.22621
  19806781.1064  -23088813.59947 -17828829.76664
 91  4 11 23 53 29.9960000  0  5G15G 2G13G19G 6
  22328750.3954   -5555107.21445  -4239849.16961
  19642191.9654  -22751243.08147 -17642699.01264
  21394824.0594   -8850895.57546  -6520311.50661
  21924620.566     4622718.507 5   3613586.53221
  19800601.6914  -23121289.37247 -17854135.52564
 91  4 11 23 53 44.9960000  0  5G15G 2G13G19G 6
  22325109.348    -5574235.081 5  -4254753.95221
  19640700.6294  -22759073.03847 -17648800.27064
  21383059.356    -8912718.539 6  -6568485.06521
  21930493.621     4653596.672 5   3637647.33921
  19794433.9344  -23153702.47347 -17879392.45764
 91  4 11 23 53 59.9960000  0  5G15G 2G13G19G 6
  22321492.902    -5593241.653 5  -4269564.22221
  19639219.5124  -22766861.61547 -17654869.28564
  21371309.2854   -8974467.67346  -6616601.10561
  21936378.2234    4684533.44045   3661753.81661
  19788277.5594  -23186057.67047 -17904604.25763
 91  4 11 23 54 14.9960000  0  5G15G 2G13G19G 6
  22317897.504    -5612123.213 5  -4284277.08821
  19637745.6914  -22774605.26647 -17660903.29164
  21359573.0204   -9036139.22646  -6664656.68661
  21942279.7774    4715532.21545   3685908.61161
  19782131.9104  -23218351.36047 -17929768.13864
 91  4 11 23 54 29.9960000  0  5G15G 2G13G19G 6
  22314329.566    -5630882.685 5  -4298894.80821
  19636281.0904  -22782307.24647 -17666904.82764
  21347850.0044   -9097736.23446  -6712654.17161
  21948189.543     4746589.868 5   3710109.27121
  19775997.6844  -23250586.22647 -17954886.17664
 91  4 11 23 54 44.9960000  0  5G15G 2G13G19G 6
  22310784.684    -5649508.370 5  -4313408.28121
  19634824.2704  -22789955.96347 -17672864.86064
  21336146.6524   -9159246.50446  -6760584.06561
  21954112.949     4777717.784 5   3734364.67921
  19769876.7314  -23282750.37047 -17979949.11264
 91  4 11 23 54 59.9960000  0  5G15G 2G13G19G 6
  22307268.645    -5668005.832 5  -4327821.84221
  19633377.8794  -22797557.34147 -17678788.00764
  21324455.988    -9220675.767 6  -6808450.85321
  21960050.418     4808910.055 5   3758670.23421
  19763768.3484  -23314849.42547 -18004961.32664
 91  4 11 23 55 14.9960000  0  5G15G 2G13G19G 6
  22303768.2154   -5686382.49245  -4342141.27561
  19631939.4104  -22805118.90147 -17684680.12364
  21312779.035    -9282030.965 6  -6856259.91721
  21965994.5044    4840158.94745   3783019.92261
  19757672.0354  -23346890.59047 -18029928.43564
 91  4 11 23 55 29.9960000  0  5G15G 2G13G19G 6
  22300297.473    -5704633.938 5  -4356363.13021
  19630508.2704  -22812636.44547 -17690537.94564
  21301119.9414   -9343307.64546  -6904007.79861
  21971958.7464    4871468.53845   3807416.90861
  19751585.6684  -23378869.47447 -18054847.01464
 91  4 11 23 55 44.9960000  0  5G15G 2G13G19G 6
  22296846.4264   -5722758.75845  -4370486.33061
  19629087.2544  -22820109.01447 -17696360.71664
  21289473.731    -9404504.349 6  -6951693.37321
  21977924.004     4902839.939 5   3831862.04321
  19745511.8874  -23410784.72747 -18079716.00864
 91  4 11 23 55 59.9960000  0  5G15G 2G13G19G 6
  22293422.285    -5740755.832 5  -4384509.97321
  19627673.4964  -22827535.45847 -17702147.55264
  21277843.8014   -9465619.73446  -6999315.59661
  21983908.652     4934274.002 5   3856356.01621
  19739451.6684  -23442634.89247 -18104534.28364
 91  4 11 23 56 14.9960000  0  5G15G 2G13G19G 6
  22290022.9184   -5758627.27045  -4398435.73561
  19626269.0354  -22834918.40147 -17707900.48664
  21266229.207    -9526655.916 6  -7046876.09521
  21989898.887     4965768.088 5   3880896.75221
  19733402.8404  -23474422.37247 -18129303.70964
 91  4 11 23 56 29.9960000  0  5G15G 2G13G19G 6
  22286644.840    -5776374.336 5  -4412264.57821
  19624871.9344  -22842259.03947 -17713620.45764
  21254628.3094   -9587613.81746  -7094375.56561
  21995902.3794    4997320.98545   3905483.32361
  19727366.4814  -23506147.95747 -18154024.90764
 91  4 11 23 56 44.9960000  0  5G15G 2G13G19G 6
  22283292.270    -5793991.898 5  -4425992.50421
  19623483.6764  -22849552.56748 -17719303.71864
  21243046.137    -9648488.214 6  -7141809.99921
  22001921.223     5028937.433 5   3930119.40421
  19721341.0824  -23537806.51247 -18178693.87464
 91  4 11 23 56 59.9960000  0  5G15G 2G13G19G 6
  22279963.973    -5811482.203 5  -4439621.27321
  19622104.9884  -22856801.43447 -17724952.17964
  21231475.816    -9709281.165 6  -7189180.97121
  22007948.973     5060614.714 5   3954802.89421
  19715328.8324  -23569400.36647 -18203312.43064
 91  4 11 23 57 14.9960000  0  5G15G 2G13G19G 6
  22276659.2314   -5828842.51745  -4453148.75161
  19620734.6454  -22864003.10348 -17730563.86364
  21219923.7934   -9769989.73346  -7236486.18861
  22013986.2234    5092355.53045   3979535.89461
  19709329.0744  -23600926.50447 -18227878.20964
 91  4 11 23 57 29.9960000  0  5G15G 2G13G19G 6
  22273380.371    -5846074.495 5  -4466576.22121
  19619372.4184  -22871159.16547 -17736140.01264
  21208387.363    -9830615.117 6  -7283726.59121
  22020042.270     5124158.083 5   4004317.00421
  19703342.7464  -23632386.23047 -18252392.24664
 91  4 11 23 57 44.9960000  0  5G15G 2G13G19G 6
  22270125.668    -5863177.032 5  -4479902.82221
  19618019.5124  -22878269.06848 -17741680.19164
  21196865.871    -9891156.362 6  -7330901.41521
  22026103.613     5156022.892 5   4029146.62021
  19697369.8094  -23663778.69847 -18276853.87164
 91  4 11 23 57 59.9960000  0  5G15G 2G13G19G 6
  22266896.0044   -5880151.04745  -4493129.30461
  19616675.1374  -22885333.96648 -17747185.30164
  21185361.0904   -9951614.51846  -7378011.51661
  22032181.254     5187948.784 5   4054023.83221
  19691408.9494  -23695104.83147 -18301263.80764
 91  4 11 23 58 14.9960000  0  5G15G 2G13G19G 6
  22263691.3954   -5896997.52245  -4506256.38661
  19615339.3094  -22892355.39448 -17752656.54664
  21173872.5434  -10011990.55946  -7425057.63061
  22038266.356     5219934.249 5   4078947.46021
  19685460.0984  -23726365.53947 -18325622.77064
 91  4 11 23 58 29.9960000  0  5G15G 2G13G19G 6
  22260508.2314   -5913714.95346  -4519282.92261
  19614011.6064  -22899331.56048 -17758092.51364
  21162398.7234  -10072282.18646  -7472037.96461
  22044367.027     5251980.972 5   4103918.81721
  19679522.9964  -23757558.92047 -18349929.26564
 91  4 11 23 58 44.9960000  0  5G15G 2G13G19G 6
  22257351.0824   -5930304.26445  -4532209.61961
  19612691.2774  -22906263.49748 -17763494.01864
  21150942.410   -10132490.311 6  -7518953.22721
  22050473.4814    5284087.88745   4128937.09361
  19673600.3954  -23788685.67447 -18374183.84864
 91  4 11 23 58 59.9960000  0  5G15G 2G13G19G 6
  22254219.996    -5946760.055 5  -4545032.26721
  19611382.3164  -22913145.84448 -17768856.88364
  21139500.840   -10192609.377 6  -7565799.10321
  22056601.0594    5316259.96545   4154006.13961
  19667690.0664  -23819740.45847 -18398382.34164
 91  4 11 23 59 14.9960000  0  5G15G 2G13G19G 6
  22251113.0274   -5963085.09245  -4557753.04261
  19610082.2624  -22919981.93048 -17774183.70064
  21128077.301   -10252642.249 6  -7612577.82921
  22062730.606     5348493.744 5   4179123.26621
  19661795.309   -23850726.075 7 -18422526.94924
 91  4 11 23 59 29.9960000  0  5G15G 2G13G19G 6
  22248031.238    -5979284.510 6  -4570375.92521
  19608788.1374  -22926776.96148 -17779478.52664
  21116668.520   -10312593.722 6  -7659293.10721
  22068876.9654    5380784.13445   4204284.49561
  19655910.0514  -23881647.37847 -18446621.43964
 91  4 11 23 59 44.9960000  0  5G15G 2G13G19G 6
  22244973.6294   -5995358.40846  -4582901.00761
  19607503.9884  -22933531.31948 -17784741.66464
  21105275.598   -10372463.697 6  -7705944.88421
  22075029.426     5413130.631 5   4229489.44321
  19650038.6604  -23912504.53347 -18470665.94564
 91  4 11 23 59 59.9960000  0  5G15G 2G13G19G 6
  22241938.9344   -6011301.44245  -4595324.11961
  19606226.9734  -22940240.13348 -17789969.31264
  21093899.0204  -10432246.68746  -7752528.88361
  22081198.668     5445538.218 5   4254742.00021
  19644178.6214  -23943292.03547 -18494656.17164
 91  4 12  0  0 14.9960000  0  5G15G 2G13G19G 6
  22238927.012    -6027119.841 5  -4607650.11321
  19604957.1214  -22946909.58748 -17795166.28864
  21082538.5594  -10491948.89246  -7799049.94661
  22087377.6684    5478000.43245   4280037.12261
  19638333.0044  -23974016.13447 -18518596.99564
 91  4 12  0  0 29.9960000  0  5G15G 2G13G19G 6
  22235944.0204   -6042804.63645  -4619871.99961
  19603697.7544  -22953530.74548 -17800325.63364
  21071194.9964  -10551560.91946  -7845500.73461
  22093565.574     5510526.250 5   4305381.80521
  19632499.4344  -24004667.45247 -18542481.11164
 91  4 12  0  0 44.9960000  0  5G15G 2G13G19G 6
  22232984.3164   -6058362.23046  -4631994.76761
  19602445.1524  -22960110.47748 -17805452.69764
  21059866.9574  -10611089.13246  -7891886.20161
  22099767.6844    5543108.78245   4330770.67461
  19626680.2544  -24035252.44647 -18566313.54164
 91  4 12  0  0 59.9960000  0  5G15G 2G13G19G 6
  22230047.9494   -6073790.24146  -4644016.56561
  19601201.7774  -22966646.47248 -17810545.68264
  21048554.4654  -10670531.01046  -7938204.39561
  22105979.152     5575750.271 5   4356205.48621
  19620873.1064  -24065768.42847 -18590092.19764
 91  4 12  0  1 14.9960000  0  5G15G 2G13G19G 6
  22227133.613    -6089088.795 5  -4655937.49221
  19599967.0824  -22973138.95948 -17815604.76764
  21037258.879   -10729886.430 6  -7984455.23121
  22112200.9494    5608450.24145   4381685.87361
  19615078.5274  -24096215.50047 -18613817.15664
 91  4 12  0  1 29.9950000  0  5G15G 2G13G19G 6
  22224251.0074   -6104252.20945  -4667753.10961
  19598740.4604  -22979582.96948 -17820626.07164
  21025983.9054  -10789146.71646  -8030631.91361
  22118434.179     5641211.052 5   4407213.66521
  19609298.3274  -24126586.78547 -18637483.06664
 91  4 12  0  1 44.9950000  0  5G15G 2G13G19G 6
  22221387.0154   -6119288.88145  -4679469.96261
  19597521.5774  -22985986.06848 -17825615.49764
  21014721.624   -10848325.703 6  -8076745.26821
  22124680.5774    5674030.31545   4432786.99561
  19603533.4834  -24156892.75247 -18661098.07164
 91  4 12  0  1 59.9950000  0  5G15G 2G13G19G 6
  22218552.460    -6134194.919 5  -4691085.04021
  19596311.2964  -22992344.94548 -17830570.46964
  21003475.8584  -10907416.47246  -8122789.88161
  22130936.3984    5706908.46045   4458406.21761
  19597777.702   -24187128.042 7 -18684658.01324
 91  4 12  0  2 14.9950000  0  5G15G 2G13G19G 6
  22215739.5774   -6148970.03145  -4702598.09161
  19595110.3664  -22998659.44248 -17835490.85564
  20992248.7334  -10966418.50046  -8168765.32661
  22137207.304     5739845.437 5   4484071.28921
  19592039.1554  -24217292.41847 -18708162.68864
 91  4 12  0  2 29.9950000  0  5G15G 2G13G19G 6
  22212952.2964   -6163615.67245  -4714010.24561
  19593917.6634  -23004931.44848 -17840378.13264
  20981038.718   -11025333.440 6  -8214672.91321
  22143483.1944    5772839.35545   4509780.71761
  19586311.882   -24247387.363 7 -18731613.27024
 91  4 12  0  2 44.9950000  0  5G15G 2G13G19G 6
  22210188.632    -6178132.114 5  -4725321.72821
  19592731.4834  -23011161.59848 -17845232.79264
  20969844.093   -11084161.339 6  -8260512.68021
  22149774.366     5805889.693 5   4535534.10821
  19580598.7734  -24277413.14847 -18755009.95764
 91  4 12  0  2 59.9950000  0  5G15G 2G13G19G 6
  22207454.1084   -6192517.38045  -4736531.00461
  19591552.6324  -23017347.89548 -17850053.28364
  20958664.929   -11142900.140 6  -8306283.03021
  22156072.827     5838998.184 5   4561332.81221
  19574897.3984  -24307367.42847 -18778350.92864
 91  4 12  0  3 14.9950000  0  5G15G 2G13G19G 6
  22204742.444    -6206767.658 5  -4747635.08821
  19590384.2104  -23023486.35848 -17854836.50464
  20947504.8194  -11201545.47546  -8351980.54361
  22162386.5544    5872168.65745   4587179.80861
  19569212.413   -24337246.020 7 -18801632.92524
 91  4 12  0  3 29.9950000  0  5G15G 2G13G19G 6
  22202053.483    -6220891.137 5  -4758640.35721
  19589226.2024  -23029585.54048 -17859589.11464
  20936362.062   -11260105.601 6  -8397611.65521
  22168707.7804    5905392.52745   4613068.41661
  19563539.6554  -24367057.19447 -18824862.38464
 91  4 12  0  3 44.9950000  0  5G15G 2G13G19G 6
  22199392.3354   -6234879.36745  -4769540.23961
  19588074.5074  -23035637.31448 -17864304.77864
  20925235.4054  -11318571.97146  -8443169.70961
  22175043.358     5938677.957 5   4639005.00021
  19557880.9294  -24396792.44047 -18848032.67664
 91  4 12  0  3 59.9950000  0  5G15G 2G13G19G 6
  22196754.5384   -6248738.00545  -4780339.14661
  19586930.0154  -23041647.52248 -17868988.05364
  20914127.0774  -11376949.83546  -8488658.80261
  22181386.6874    5972019.29045   4664985.14061
  19552236.577   -24426457.287 7 -18871148.12124
 91  4 12  0  4 14.9950000  0  5G15G 2G13G19G 6
  22194141.890    -6262467.111 5  -4791037.13021
  19585794.0544  -23047616.33448 -17873639.07264
  20903034.3434  -11435239.05946  -8534078.82561
  22187744.937     6005415.854 5   4691008.31721
  19546603.999   -24456051.635 7 -18894208.62324
 91  4 12  0  4 29.9950000  0  5G15G 2G13G19G 6
  22191554.5464   -6276067.85545  -4801635.09261
  19584666.4294  -23053545.18948 -17878258.95964
  20891958.4054  -11493440.84846  -8579430.71661
  22194106.1084    6038866.19045   4717073.38561
  19540985.101   -24485576.562 7 -18917215.03124
 91  4 12  0  4 44.9950000  0  5G15G 2G13G19G 6
  22188990.624    -6289538.801 5  -4812131.89221
  19583546.3514  -23059432.33948 -17882846.34764
  20880900.343   -11551553.419 6  -8624713.09121
  22200485.1404    6072371.61945   4743181.38761
  19535381.960   -24515030.199 7 -18940165.89124
 91  4 12  0  4 59.9950000  0  5G15G 2G13G19G 6
  22186450.140    -6302877.283 5  -4822525.50121
  19582433.5384  -23065275.52548 -17887399.47364
  20869857.3664  -11609573.85146  -8669923.66661
  22206867.507     6105934.506 5   4769334.15621
  19529789.4834  -24544409.88447 -18963059.12664
 91  4 12  0  5 14.9950000  0  5G15G 2G13G19G 6
  22183939.0304   -6316076.30545  -4832810.41861
  19581332.1554  -23071067.98948 -17891913.08264
  20858837.2184  -11667495.06846  -8715056.93261
  22213270.390     6139561.596 5   4795536.97721
  19524215.202   -24573708.445 7 -18985889.15024
 91  4 12  0  5 29.9950000  0  5G15G 2G13G19G 6
  22181457.054    -6329147.033 5  -4842995.38721
  19580236.8584  -23076820.94348 -17896395.89764
  20847831.9684  -11725327.96146  -8760121.38061
  22219678.8514    6173241.46045   4821780.90661
  19518652.7414  -24602937.02847 -19008664.64364
 91  4 12  0  5 44.9950000  0  5G15G 2G13G19G 6
  22178988.663    -6342089.723 5  -4853080.56921
  19579148.6714  -23082534.88048 -17900848.31164
  20836841.7884  -11783072.88846  -8805117.27461
  22226099.5544    6206973.50745   4848065.48961
  19513103.8904  -24632095.76147 -19031385.70464
 91  4 12  0  5 59.9950000  0  5G15G 2G13G19G 6
  22176554.3194   -6354896.51345  -4863059.84961
  19578071.3904  -23088201.99548 -17905264.24164
  20825871.8514  -11840721.60646  -8850038.20261
  22232531.265     6240765.578 5   4874396.83221
  19507569.3584  -24661176.45947 -19054045.96364
 91  4 12  0  6 14.9950000  0  5G15G 2G13G19G 6
  22174142.4684   -6367573.10545  -4872937.68261
  19577000.4134  -23093828.35548 -17909648.41064
  20814919.2024  -11898279.51246  -8894888.36461
  22238971.663     6274611.597 5   4900770.23721
  19502049.2334  -24690184.74847 -19076649.79764
 91  4 12  0  6 29.9950000  0  5G15G 2G13G19G 6
  22171752.3274   -6380115.73845  -4882711.12761
  19575939.2734  -23099410.05048 -17913997.77764
  20803984.874   -11955742.585 6  -8939664.63921
  22245420.4684    6308515.30145   4927188.57561
  19496543.890   -24719116.625 7 -19099194.09224
 91  4 12  0  6 44.9950000  0  5G15G 2G13G19G 6
  22169395.546    -6392522.343 5  -4892378.59521
  19574884.3584  -23104945.49448 -17918311.10464
  20793067.9054  -12013109.06846  -8984365.64861
  22251885.733     6342478.047 5   4953652.91921
  19491053.7964  -24747970.05847 -19121677.25964
 91  4 12  0  6 59.9950000  0  5G15G 2G13G19G 6
  22167059.3584   -6404791.39246  -4901938.86161
  19573839.5464  -23110433.19148 -17922587.22564
  20782170.5304  -12070376.97346  -9028989.84061
  22258358.4214    6376501.14245   4980164.30261
  19485577.7104  -24776743.38247 -19144098.00264
 91  4 12  0  7 14.9950000  0  5G15G 2G13G19G 6
  22164747.937    -6416927.540 6  -4911395.58121
  19572803.8744  -23115877.83748 -17926829.80164
  20771290.265   -12127550.674 6  -9073540.62121
  22264845.437     6410579.824 4   5006718.97721
  19480116.694   -24805440.941 7 -19166459.70624
 91  4 12  0  7 29.9950000  0  5G15G 2G13G19G 6
  22162467.8664   -6428934.53646  -4920751.65661
  19571774.9294  -23121283.63548 -17931042.10664
  20760427.898   -12184634.007 6  -9118021.00121
  22271336.2264    6444709.89545   5033313.71961
  19474669.8984  -24834066.51147 -19188765.31964
 91  4 12  0  7 44.9950000  0  5G15G 2G13G19G 6
  22160206.7104   -6440809.64845  -4930004.95761
  19570754.4054  -23126647.83548 -17935221.99864
  20749582.265   -12241623.972 6  -9162428.61921
  22277845.4764    6478894.20144   5059950.71161
  19469237.3824  -24862617.05847 -19211012.46964
 91  4 12  0  7 59.9950000  0  5G15G 2G13G19G 6
  22157968.9444   -6452554.19446  -4939156.52261
  19569741.6324  -23131971.69948 -17939370.45464
  20738755.148   -12298521.383 6  -9206764.12521
  22284360.030     6513131.287 4   5086628.82121
  19463817.8664  -24891093.58547 -19233201.94164
 91  4 12  0  8 14.9950000  0  5G15G 2G13G19G 6
  22155760.0774   -6464160.29446  -4948200.20161
  19568738.2264  -23137247.74448 -17943481.65664
  20727947.483   -12355318.508 6  -9251021.49321
  22290887.601     6547428.247 4   5113353.57621
  19458414.5384  -24919488.37547 -19255327.72064
 91  4 12  0  8 29.9950000  0  5G15G 2G13G19G 6
  22153575.241    -6475634.302 6  -4957140.96021
  19567741.6874  -23142482.23648 -17947560.47364
  20717157.030   -12412021.113 6  -9295205.20021
  22297424.124     6581778.837 4   5140120.13221
  19453025.9834  -24947807.37947 -19277394.44764
 91  4 12  0  8 44.9950000  0  5G15G 2G13G19G 6
  22151418.3194   -6486979.81446  -4965981.58761
  19566752.9604  -23147678.71748 -17951609.67464
  20706384.515   -12468632.745 6  -9339318.02421
  22303970.030     6616179.222 4   5166925.49621
  19447650.9524  -24976053.95747 -19299404.73864
 91  4 12  0  8 59.9950000  0  5G15G 2G13G19G 6
  22149282.9444   -6498190.89246  -4974717.45661
  19565772.5154  -23152831.52548 -17955624.84264
  20695628.937   -12525147.522 6  -9383355.37621
  22310522.023     6650635.034 4   5193774.04221
  19442291.6554  -25004222.09147 -19321353.90564
 91  4 12  0  9 14.9950000  0  5G15G 2G13G19G 6
  22147177.9054   -6509261.52646  -4983343.89261
  19564801.1794  -23157934.76348 -17959601.38564
  20684894.132   -12581559.177 6  -9427312.37921
  22317095.3354    6685152.11644   5220670.34461
  19436947.2024  -25032305.57047 -19343237.10564
 91  4 12  0  9 29.9950000  0  5G15G 2G13G19G 6
  22145101.687    -6520195.710 6  -4991864.01621
  19563837.4134  -23162992.68848 -17963542.62064
  20674178.5934  -12637871.62046  -9471192.06961
  22323671.8434    6719726.05644   5247610.93761
  19431618.1714  -25060308.28347 -19365057.37064
 91  4 12  0  9 44.9950000  0  5G15G 2G13G19G 6
  22143044.882    -6530992.229 6  -5000276.86421
  19562884.2884  -23168004.27348 -17967447.74464
  20663480.265   -12694083.219 6  -9514993.18421
  22330263.5464    6754357.85844   5274596.60961
  19426305.3124  -25088228.96047 -19386813.71064
 91  4 12  0  9 59.9950000  0  5G15G 2G13G19G 6
  22141012.2184   -6541663.63246  -5008592.20761
  19561938.1084  -23172982.13148 -17971326.59164
  20652802.460   -12750206.121 6  -9558725.17421
  22336861.062     6789034.832 4   5301617.49221
  19421003.9444  -25116079.76547 -19408515.60764
 91  4 12  0 10 14.9950000  0  5G15G 2G13G19G 6
  22139009.929    -6552207.752 6  -5016808.38321
  19560997.0384  -23177924.14148 -17975177.50264
  20642138.921   -12806238.047 6  -9602386.28021
  22343471.9134    6823758.88744   5328675.04861
  19415717.8274  -25143858.44247 -19430161.29964
 91  4 12  0 10 29.9950000  0  5G15G 2G13G19G 6
  22137024.3664   -6562619.93546  -5024921.76261
  19560064.4604  -23182825.83948 -17978997.00364
  20631494.194   -12862174.518 6  -9645973.00821
  22350088.0304    6858534.36944   5355772.69961
  19410447.2804  -25171560.29647 -19451747.12864
 91  4 12  0 10 44.9950000  0  5G15G 2G13G19G 6
  22135070.8354   -6572889.97146  -5032924.35661
  19559140.2884  -23187677.12448 -17982777.22364
  20620870.8514  -12918004.92346  -9689477.08461
  22356717.538     6893371.173 4   5382918.12321
  19405191.3044  -25199174.70547 -19473264.82164
 91  4 12  0 10 59.9950000  0  5G15G 2G13G19G 6
  22133142.515    -6583025.471 6  -5040822.12221
  19558226.0154  -23192485.81048 -17986524.24464
  20610265.093   -12973736.961 6  -9732904.51421
  22363352.905     6928261.467 4   5410105.22721
  19399952.0384  -25226709.32447 -19494720.33464
 91  4 12  0 11 14.9950000  0  5G15G 2G13G19G 6
  22131239.3824   -6593028.48345  -5048616.64561
  19557318.4374  -23197253.95548 -17990239.67764
  20599678.319   -13029372.248 6  -9776256.54421
  22370007.8514    6963203.15544   5437332.36461
  19394726.8044  -25254165.77547 -19516114.94464
 91  4 12  0 11 29.9950000  0  5G15G 2G13G19G 6
  22129356.655    -6602900.798 5  -5056309.33121
  19556418.7334  -23201983.51448 -17993925.04264
  20589109.733   -13084912.403 6  -9819534.45021
  22376663.7024    6998193.96844   5464597.79261
  19389516.9134  -25281545.93947 -19537450.10664
 91  4 12  0 11 44.9950000  0  5G15G 2G13G19G 6
  22127508.9834   -6612631.14046  -5063891.38361
  19555528.9764  -23206663.16348 -17997571.51864
  20578560.304   -13140345.705 6  -9862729.09921
  22383337.483     7033245.257 4   5491910.33821
  19384324.2104  -25308837.95347 -19558716.58164
 91  4 12  0 11 59.9950000  0  5G15G 2G13G19G 6
  22125682.523    -6622226.703 5  -5071368.43021
  19554646.2024  -23211300.43448 -18001184.96464
  20568030.655   -13195679.383 6  -9905846.10921
  22390016.023     7068349.359 4   5519264.04621
  19379146.0074  -25336049.24747 -19579920.15464
 91  4 12  0 12 14.9950000  0  5G15G 2G13G19G 6
  22123882.1554   -6631691.99245  -5078743.94161
  19553770.7574  -23215899.87648 -18004768.94364
  20557519.132   -13250917.531 6  -9948888.69121
  22396701.6404    7103501.69344   5546655.34561
  19373981.0544  -25363183.86047 -19601063.97864
 91  4 12  0 12 29.9950000  0  5G15G 2G13G19G 6
  22122105.3434   -6641016.24045  -5086009.57061
  19552904.4764  -23220450.63348 -18008314.98264
  20547028.1484  -13306049.20446  -9991848.30661
  22403405.796     7138712.907 4   5574092.50021
  19368835.4994  -25390230.84047 -19622139.52064
 91  4 12  0 12 44.9950000  0  5G15G 2G13G19G 6
  22120358.4764   -6650197.57545  -5093163.82061
  19552048.4134  -23224950.88948 -18011821.66964
  20536556.796   -13361072.174 6 -10034723.21021
  22410116.843     7173984.567 4   5601576.76121
  19363704.9834  -25417188.13047 -19643145.16764
 91  4 12  0 12 59.9950000  0  5G15G 2G13G19G 6
  22118637.148    -6659251.117 5  -5100218.51421
  19551198.6714  -23229415.92848 -18015300.91764
  20526104.4834  -13416001.92246 -10077525.48761
  22416833.9994    7209301.19244   5629096.07761
  19358590.1244  -25444070.68347 -19664092.58264
 91  4 12  0 13 14.9950000  0  5G15G 2G13G19G 6
  22116944.265    -6668169.219 5  -5107167.66521
  19550357.1794  -23233838.43148 -18018747.02164
  20515671.0774  -13470830.33346 -10120248.79761
  22423566.7574    7244670.24544   5656656.23161
  19353489.421   -25470870.810 7 -19684975.77224
 91  4 12  0 13 29.9950000  0  5G15G 2G13G19G 6
  22115271.398    -6676949.495 5  -5114009.40821
  19549523.7804  -23238215.85148 -18022157.99364
  20505256.4604  -13525554.65646 -10162891.00261
  22430310.351     7280094.073 4   5684259.07421
  19348406.1484  -25497585.81547 -19705792.63364
 91  4 12  0 13 44.9950000  0  5G15G 2G13G19G 6
  22113624.8434   -6685593.11746  -5120744.68261
  19548699.4134  -23242549.41748 -18025534.79364
  20494862.929   -13580175.861 6 -10205452.84521
  22437064.3274    7315571.23244   5711903.45861
  19343337.1874  -25524216.46047 -19726543.75464
 91  4 12  0 13 59.9950000  0  5G15G 2G13G19G 6
  22112001.913    -6694100.439 5  -5127373.74121
  19547882.3434  -23246839.98948 -18028878.09464
  20484487.929   -13634694.367 6 -10247934.67521
  22443819.3514    7351100.63844   5739588.56561
  19338286.905   -25550763.168 7 -19747229.47824
 91  4 12  0 14 14.9950000  0  5G15G 2G13G19G 6
  22110412.5624   -6702473.86045  -5133898.45561
  19547074.1324  -23251089.81048 -18032189.64264
  20474133.3124  -13689112.03646 -10290337.93761
  22450592.726     7386680.056 4   5767312.65621
  19333249.8584  -25577228.01247 -19767851.40564
 91  4 12  0 14 29.9950000  0  5G15G 2G13G19G 6
  22108845.382    -6710709.630 6  -5140315.91721
  19546273.2494  -23255295.34048 -18035466.67364
  20463797.679   -13743425.435 6 -10332659.94121
  22457374.8274    7422312.97644   5795078.41461
  19328230.7024  -25603607.22747 -19788406.61364
 91  4 12  0 14 44.9950000  0  5G15G 2G13G19G 6
  22107300.437    -6718810.392 5  -5146628.17921
  19545482.7734  -23259459.07348 -18038711.13564
  20453480.1484  -13797636.69346 -10374902.34961
  22464165.5234    7457996.66144   5822883.73761
  19323227.6794  -25629903.11647 -19808896.88664
 91  4 12  0 14 59.9950000  0  5G15G 2G13G19G 6
  22105788.569    -6726772.684 6  -5152832.53721
  19544697.6404  -23263577.81948 -18041920.54664
  20443185.351   -13851742.281 6 -10417062.42121
  22470963.9764    7493734.03644   5850730.89661
  19318238.952   -25656112.258 7 -19829319.56924
 91  4 12  0 15 14.9950000  0  5G15G 2G13G19G 6
  22104297.1874   -6734591.73845  -5158925.27561
  19543923.5384  -23267646.86348 -18045091.22564
  20432909.0934  -13905737.12246 -10459136.20061
  22477772.8514    7529529.79644   5878623.55761
  19313270.101   -25682229.384 7 -19849670.54924
 91  4 12  0 15 29.9950000  0  5G15G 2G13G19G 6
  22102836.804    -6742271.463 5  -5164909.45021
  19543157.7184  -23271670.09748 -18048226.20964
  20422654.0624  -13959624.70146 -10501126.40061
  22484597.7104    7565379.93744   5906558.57661
  19308317.2734  -25708258.31047 -19869952.80464
 91  4 12  0 15 44.9950000  0  5G15G 2G13G19G 6
  22101406.7414   -6749814.16446  -5170786.84361
  19542400.0854  -23275649.98548 -18051327.42164
  20412421.882   -14013407.096 6 -10543034.62821
  22491431.913     7601281.937 4   5934534.00121
  19303379.038   -25734201.061 7 -19890167.91224
 91  4 12  0 15 59.9950000  0  5G15G 2G13G19G 6
  22099994.648    -6757222.066 6  -5176559.21421
  19541650.3984  -23279588.85548 -18054396.67064
  20402205.1554  -14067086.47146 -10584862.58561
  22498271.0384    7637233.13044   5962547.77761
  19298458.296   -25760059.663 7 -19910317.44924
 91  4 12  0 16 14.9950000  0  5G15G 2G13G19G 6
  22098606.155    -6764493.657 6  -5182225.36821
  19540909.9994  -23283485.27048 -18057432.83564
  20392010.0074  -14120660.89246 -10626608.77161
  22505123.171     7673234.959 4   5990600.98521
  19293554.554   -25785832.368 7 -19930400.05224
 91  4 12  0 16 29.9950000  0  5G15G 2G13G19G 6
  22097249.2264   -6771626.77746  -5187783.61461
  19540176.7734  -23287337.00548 -18060434.18764
  20381836.0154  -14174128.30846 -10668271.56561
  22511983.273     7709289.341 4   6018695.17321
  19288667.249   -25811516.783 7 -19950413.85924
 91  4 12  0 16 44.9950000  0  5G15G 2G13G19G 6
  22095918.460    -6778628.853 6  -5193239.75321
  19539450.0304  -23291151.48548 -18063406.50864
  20371681.4374  -14227495.96446 -10709856.62661
  22518856.4684    7745388.66444   6046824.36661
  19283794.226   -25837120.152 7 -19970364.51124
 91  4 12  0 16 59.9950000  0  5G15G 2G13G19G 6
  22094612.741    -6785493.404 6  -5198588.72621
  19538733.0934  -23294922.61248 -18066345.04864
  20361544.8824  -14280757.35246 -10751358.88561
  22525732.9764    7781539.10543   6074993.40261
  19278937.538   -25862635.960 7 -19990246.93924
 91  4 12  0 17 14.9950000  0  5G15G 2G13G19G 6
  22093332.9054   -6792217.97946  -5203828.63661
  19538024.1794  -23298647.83248 -18069247.81364
  20351430.0694  -14333909.49346 -10792776.01661
  22532625.3044    7817742.99244   6103204.05361
  19274100.616   -25888061.389 7 -20010058.93724
 91  4 12  0 17 29.9950000  0  5G15G 2G13G19G 6
  22092078.421    -6798803.964 6  -5208960.54621
  19537323.9684  -23302328.66748 -18072116.00064
  20341336.9294  -14386953.54346 -10834108.92261
  22539519.8904    7853998.81144   6131455.18361
  19269277.851   -25913397.605 7 -20029801.42224
 91  4 12  0 17 44.9950000  0  5G15G 2G13G19G 6
  22090851.1084   -6805254.38746  -5213986.83061
  19536630.8354  -23305968.28448 -18074952.06564
  20331262.3354  -14439892.42246 -10875359.88161
  22546432.187     7890303.309 4   6159744.24521
  19264472.577   -25938647.422 7 -20049476.58224
 91  4 12  0 17 59.9950000  0  5G15G 2G13G19G 6
  22089650.038    -6811573.325 5  -5218910.65421
  19535945.0384  -23309570.78648 -18077759.21264
  20321208.2414  -14492729.80346 -10916531.74461
  22553348.983     7926652.122 4   6188067.85021
  19259684.608   -25963814.811 7 -20069087.51324
 91  4 12  0 18 14.9950000  0  5G15G 2G13G19G 6
  22088474.077    -6817756.152 6  -5223728.42121
  19535268.5464  -23313131.44748 -18080533.76264
  20311172.4054  -14545460.84546 -10957620.74461
  22560273.7574    7963049.70744   6216429.46161
  19254911.249   -25988894.646 7 -20088630.22424
 91  4 12  0 18 29.9950000  0  5G15G 2G13G19G 6
  22087320.882    -6823798.677 5  -5228436.86321
  19534600.3984  -23316646.18548 -18083272.52264
  20301159.4914  -14598081.22546 -10998623.51861
  22567209.796     7999500.007 4   6244832.15421
  19250157.390   -26013882.657 7 -20108101.38324
 91  4 12  0 18 44.9950000  0  5G15G 2G13G19G 6
  22086203.687    -6829701.042 6  -5233036.09321
  19533939.2804  -23320115.10248 -18085975.58064
  20291167.4294  -14650590.72146 -11039539.88961
  22574157.9444    8036002.84844   6273275.76461
  19245420.343   -26038778.628 7 -20127500.82524
 91  4 12  0 18 59.9950000  0  5G15G 2G13G19G 6
  22085100.757    -6835465.277 5  -5237527.68621
  19533286.9914  -23323540.55248 -18088644.76764
  20281195.7734  -14702991.60146 -11080371.62361
  22581112.7024    8072555.72544   6301758.37061
  19240699.812   -26063584.637 7 -20146830.16524
 91  4 12  0 19 14.9950000  0  5G15G 2G13G19G 6
  22084038.163    -6841088.331 6  -5241909.27421
  19532642.4054  -23326919.33848 -18091277.59364
  20271245.1164  -14755280.05246 -11121115.75361
  22588078.2334    8109161.68044   6330282.33461
  19235998.179   -26088297.154 7 -20166086.65724
 91  4 12  0 19 29.9950000  0  5G15G 2G13G19G 6
  22082987.741    -6846571.563 6  -5246181.91021
  19532010.1164  -23330252.91648 -18093875.19564
  20261315.0464  -14807457.40446 -11161773.31161
  22595054.6484    8145819.11844   6358846.40861
  19231312.030   -26112917.360 7 -20185271.22024
 91  4 12  0 19 44.9950000  0  5G15G 2G13G19G 6
  22081970.999    -6851919.820 6  -5250349.36021
  19531383.6794  -23333546.11248 -18096441.32764
  20251407.577   -14859528.278 6 -11202347.90121
  22602039.9214    8182523.18744   6387446.81961
  19226643.530   -26137449.738 7 -20204387.34124
 91  4 12  0 19 59.9950000  0  5G15G 2G13G19G 6
  22080983.5854   -6857132.52945  -5254411.20261
  19530764.601   -23336798.234 8 -18098975.45824
  20241517.7104  -14911491.80846 -11242838.85161
  22609030.3194    8219274.17244   6416083.79561
  19221991.171   -26161893.594 7 -20223434.49024
 91  4 12  0 20 14.9950000  0  5G15G 2G13G19G 6
  22080015.312    -6862205.531 5  -5258364.17421
  19530153.8584  -23340005.60648 -18101474.71864
  20231652.3354  -14963343.89446 -11283242.95661
  22616035.585     8256075.695 3   6444760.15221
  19217358.671   -26186244.811 7 -20242409.43924
 91  4 12  0 20 29.9950000  0  5G15G 2G13G19G 6
  22079075.796    -6867136.994 6  -5262206.85421
  19529552.6324  -23343166.46948 -18103937.73864
  20221804.671   -15015082.607 6 -11323558.73021
  22623051.265     8292929.340 3   6473477.13421
  19212742.327   -26210501.320 7 -20261310.60924
 91  4 12  0 20 44.9950000  0  5G15G 2G13G19G 6
  22078160.710    -6871931.527 5  -5265942.83521
  19528958.8124  -23346285.23148 -18106367.95364
  20211983.015   -15066712.062 6 -11363789.36021
  22630071.898     8329830.865 3   6502231.40621
  19208142.288   -26234667.302 7 -20280141.23024
 91  4 12  0 20 59.9950000  0  5G15G 2G13G19G 6
  22077275.304    -6876592.557 6  -5269574.79921
  19528373.4134  -23349365.21648 -18108767.95264
  20202175.194   -15118235.303 6 -11403937.23621
  22637103.030     8366776.455 3   6531020.02021
  19203562.0234  -26258745.83547 -20298903.71464
 91  4 12  0 21 14.9950000  0  5G15G 2G13G19G 6
  22076414.249    -6881112.081 6  -5273096.48621
  19527795.9444  -23352398.48348 -18111131.54564
  20192393.577   -15169644.245 6 -11443996.04421
  22644143.0854    8403773.79143   6559848.94861
  19198997.312   -26282728.639 7 -20317591.59924
 91  4 12  0 21 29.9950000  0  5G15G 2G13G19G 6
  22075582.148    -6885494.133 6  -5276511.05621
  19527226.8984  -23355389.37748 -18113462.11964
  20182631.671   -15220942.947 6 -11483968.95121
  22651188.2884    8440818.62944   6588714.89661
  19194450.8824  -26306619.78047 -20336208.06163
 91  4 12  0 21 44.9950000  0  5G15G 2G13G19G 6
  22074777.140    -6889743.754 6  -5279822.42921
  19526664.452   -23358343.001 8 -18115763.65624
  20172890.233   -15272136.150 6 -11523859.66121
  22658248.038     8477905.695 4   6617613.74221
  19189920.733   -26330423.965 7 -20354756.76523
 91  4 12  0 21 59.9950000  0  5G15G 2G13G19G 6
  22073995.4684   -6893855.03946  -5283026.03161
  19526110.0074  -23361253.45148 -18118031.54964
  20163169.4054  -15323217.76846 -11563663.41861
  22665312.265     8515040.797 3   6646550.01621
  19185409.6084  -26354135.02447 -20373232.90663
 91  4 12  0 22 14.9950000  0  5G15G 2G13G19G 6
  22073238.5624   -6897821.52846  -5286116.79161
  19525566.4764  -23364113.90448 -18120260.48464
  20153471.632   -15374180.753 6 -11603374.73121
  22672396.1164    8552230.37643   6675528.74061
  19180917.390   -26377746.183 7 -20391631.19823
 91  4 12  0 22 29.9950000  0  5G15G 2G13G19G 6
  22072506.2024   -6901655.10645  -5289103.99561
  19525030.374   -23366936.578 8 -18122459.97924
  20143794.2334  -15425036.95646 -11643002.83661
  22679477.491     8589462.036 3   6704540.26721
  19176440.4444  -26401269.19947 -20409960.81063
 91  4 12  0 22 44.9950000  0  5G15G 2G13G19G 6
  22071807.3124   -6905351.72345  -5291984.46961
  19524499.4524  -23369717.32248 -18124626.80364
  20134138.101   -15475781.983 7 -11682544.30421
  22686568.4914    8626739.85543   6733587.76861
  19171980.960   -26424699.579 7 -20428218.23123
 91  4 12  0 22 59.9950000  0  5G15G 2G13G19G 6
  22071125.6634   -6908910.99245  -5294757.92061
  19523979.4914  -23372455.63848 -18126760.56864
  20124501.6014  -15526415.24746 -11721998.69561
  22693671.632     8664064.205 3   6762671.49621
  19167540.4054  -26448036.78347 -20446403.05563
 91  4 12  0 23 14.9950000  0  5G15G 2G13G19G 6
  22070478.3744   -6912333.22545  -5297424.58161
  19523464.8514  -23375152.12148 -18128861.73164
  20114888.507   -15576936.822 6 -11761366.05421
  22700784.210     8701434.368 3   6791790.94621
  19163117.093   -26471280.822 7 -20464515.27723
 91  4 12  0 23 29.9950000  0  5G15G 2G13G19G 6
  22069848.593    -6915611.925 6  -5299979.39821
  19522963.155   -23377800.270 8 -18130925.23724
  20105295.6634  -15627340.08047 -11800641.22061
  22707902.265     8738856.660 3   6820951.02021
  19158712.671   -26494425.040 7 -20482549.72124
 91  4 12  0 23 44.9950000  0  5G15G 2G13G19G 6
  22069254.194    -6918752.788 6  -5302426.80421
  19522465.905   -23380405.830 8 -18132955.55424
  20095727.046   -15677630.740 7 -11839828.64621
  22715037.6324    8776324.87443   6850146.86561
  19154326.913   -26517474.986 7 -20500510.70123
 91  4 12  0 23 59.9950000  0  5G15G 2G13G19G 6
  22068687.038    -6921749.830 6  -5304762.14621
  19521979.249   -23382962.780 8 -18134947.99524
  20086178.304   -15727802.438 7 -11878923.37421
  22722178.8824    8813845.00543   6879383.14361
  19149959.366   -26540424.470 7 -20518393.39923
 91  4 12  0 24 14.9950000  0  5G15G 2G13G19G 6
  22068138.6794   -6924609.30746  -5306990.30161
  19521500.671   -23385477.620 8 -18136907.62524
  20076653.7884  -15777861.37347 -11917930.24161
  22729325.718     8851410.565 3   6908654.84921
  19145609.124   -26563279.542 7 -20536202.53023
 91  4 12  0 24 29.9950000  0  5G15G 2G13G19G 6
  22067620.655    -6927330.748 5  -5309110.87921
  19521032.085   -23387949.701 8 -18138833.93124
  20067147.952   -15827806.477 7 -11956848.40821
  22736481.366     8889022.026 3   6937962.29721
  19141278.898   -26586039.210 7 -20553937.31624
 91  4 12  0 24 44.9950000  0  5G15G 2G13G19G 6
  22067129.054    -6929912.509 6  -5311122.62521
  19520568.4684  -23390377.42748 -18140725.67364
  20057666.273   -15877635.910 7 -11995676.43121
  22743648.929     8926680.959 3   6967306.75521
  19136967.257   -26608701.610 7 -20571596.31023
 91  4 12  0 24 59.9950000  0  5G15G 2G13G19G 6
  22066665.5074   -6932360.44046
  19520114.1794  -23392766.63048
  20048205.796   -15927355.368 7 -12034418.76721
  22750821.335     8964381.190 3   6996683.37421
  19132671.616   -26631272.352 7 -20589183.88523
 91  4 12  0 25 14.9950000  0  5G15G 2G13G19G 6
  22066221.296    -6934672.553 6
  19519666.7494  -23395115.26748
  20038764.898   -15976962.573 7 -12073073.62821
  22758006.5304    9002124.56643   7026093.63861
  19128395.632   -26653749.138 7 -20606698.24523
 91  4 12  0 25 29.9950000  0  5G15G 2G13G19G 6
  22065809.929    -6936849.693 6  -5316528.19921
  19519226.9374  -23397424.11348 -18146216.62364
  20029346.663   -16026458.049 7 -12111641.43021
  22765194.585     9039910.215 3   7055536.82421
  19124135.952   -26676132.480 7 -20624139.79324
 91  4 12  0 25 44.9950000  0  5G15G 2G13G19G 6
  22065421.507    -6938894.146 6  -5318121.25721
  19518795.7024  -23399695.49948 -18147986.54064
  20019949.0304  -16075844.03747 -12150123.92061
  22772391.421     9077735.473 3   7085010.89021
  19119893.773   -26698424.524 7 -20641510.19523
 91  4 12  0 25 59.9950000  0  5G15G 2G13G19G 6
  22065061.116    -6940794.979 6  -5319602.42221
  19518372.4764  -23401918.74048 -18149718.94264
  20010573.2734  -16125109.43047 -12188512.44461
  22779601.3194    9115611.02043   7114524.11761
  19115670.905   -26720614.306 7 -20658800.91823
 91  4 12  0 26 14.9950000  0  5G15G 2G13G19G 6
  22064725.148    -6942555.011 6  -5320973.85721
  19517958.4444  -23404096.60948 -18151415.98764
  20001220.546   -16174256.657 7 -12226808.87621
  22786813.108     9153534.142 2   7144074.44721
  19111467.483   -26742704.117 7 -20676013.73923
 91  4 12  0 26 29.9950000  0  5G15G 2G13G19G 6
  22064413.741    -6944171.841 6  -5322233.70221
  19517553.7804  -23406226.44948 -18153075.61364
  19991891.3824  -16223283.05647 -12265011.17261
  22794043.858     9191507.062 3   7173663.52621
  19107282.991   -26764691.173 7 -20693146.49423
 91  4 12  0 26 44.9950000  0  5G15G 2G13G19G 6
  22064138.351    -6945651.784 6  -5323386.88921
  19517155.2964  -23408314.59048 -18154702.74564
  19982582.7024  -16272194.72947 -12303124.06561
  22801280.007     9229523.263 3   7203286.38321
  19103117.577   -26786581.554 7 -20710203.91523
 91  4 12  0 26 59.9950000  0  5G15G 2G13G19G 6
  22063875.804    -6946994.021 6  -5324432.78021
  19516766.6944  -23410360.16048 -18156296.70364
  19973298.257   -16320990.656 7 -12341146.76021
  22808522.5544    9267583.17043   7232943.27161
  19098969.108   -26808374.330 7 -20727185.28223
 91  4 12  0 27 14.9950000  0  5G15G 2G13G19G 6
  22063652.374    -6948197.675 6  -5325370.67821
  19516385.2574  -23412362.44548 -18157856.93564
  19964034.983   -16369669.754 7 -12379078.42821
  22815770.413     9305687.430 3   7262634.74721
  19094841.796   -26830068.340 7 -20744089.68523
 91  4 12  0 27 29.9950000  0  5G15G 2G13G19G 6
  22063446.179    -6949264.744 6  -5326202.15621
  19516012.1794  -23414323.46448 -18159385.01164
  19954792.007   -16418233.920 7 -12416920.53021
  22823031.507     9343834.037 3   7292359.20021
  19090732.866   -26851665.361 7 -20760918.51423
 91  4 12  0 27 44.9950000  0  5G15G 2G13G19G 6
  22063273.374    -6950193.333 6  -5326925.71721
  19515648.0544  -23416241.34548 -18160879.46564
  19945574.1634  -16466680.91847 -12454671.33661
  22830298.976     9382024.899 3   7322118.15621
  19086641.562   -26873163.160 7 -20777670.02823
 91  4 12  0 27 59.9950000  0  5G15G 2G13G19G 6
  22063123.2104   -6950981.84246  -5327540.12461
  19515290.7574  -23418114.24548 -18162338.87364
  19936377.921   -16515008.768 7 -12492329.30121
  22837576.085     9420261.462 2   7351912.70221
  19082568.976   -26894559.660 7 -20794342.60724
 91  4 12  0 28 14.9950000  0  5G15G 2G13G19G 6
  22062997.468    -6951632.692 6  -5328047.27421
  19514942.8904  -23419944.71848 -18163765.21564
  19927202.655   -16563219.745 7 -12529896.19621
  22844858.593     9458541.094 2   7381740.78121
  19078517.257   -26915857.218 7 -20810938.09023
 91  4 12  0 28 29.9950000  0  5G15G 2G13G19G 6
  22062896.1794   -6952141.63346  -5328443.83661
  19514603.7494  -23421728.37348 -18165155.08264
  19918052.4764  -16611309.46047 -12567368.60461
  22852154.7654    9496867.86442   7411605.63561
  19074483.351   -26937051.268 7 -20827452.91423
 91  4 12  0 28 44.9950000  0  4G15G 2G13G 6
  22062827.0304   -6952513.32946  -5328733.47761
  19514272.1324  -23423469.89848 -18166512.11364
  19908923.4444  -16659282.23947 -12604749.89661
  19070470.015   -26958146.317 7 -20843890.59223
 91  4 12  0 28 59.9950000  0  4G15G 2G13G 6
  22062780.780    -6952751.918 5  -5328919.35921
  19513948.2734  -23425173.43448 -18167839.54164
  19899815.452   -16707141.950 7 -12642043.07321
  19066473.515   -26979146.036 7 -20860253.99024
 91  4 12  0 29 14.9950000  0  4G15G 2G13G 6
  22062763.640    -6952856.065 5
  19513631.2104  -23426837.97048 -18169136.58164
  19890729.3664  -16754887.23147 -12679247.09261
  19062495.562   -27000049.056 7 -20876542.03423
 91  4 12  0 29 29.9950000  0  4G15G 2G13G 6
  22062772.194    -6952813.045 6
  19513324.5464  -23428450.40748 -18170393.02864
  19881668.5154  -16802505.07447 -12716351.81861
  19058537.585   -27020842.186 7 -20892744.45924
 91  4 12  0 29 44.9950000  0  4G15G 2G13G 6
  22062805.6324   -6952630.76346
  19513025.3824  -23430018.50748 -18171614.92064
  19872628.9294  -16850002.75847 -12753362.89961
  19054602.202   -27041532.927 7 -20908867.08923
 91  4 12  0 29 59.9950000  0  4G15G 2G13G 6
  22062868.101    -6952309.301 6
  19512734.8194  -23431542.41748 -18172802.38164
  19863614.3664  -16897380.54047 -12790280.55961
  19050683.444   -27062121.240 7 -20924909.91123
 91  4 12  0 30 14.9950000  0  4G15G 2G13G 6
  22062958.476    -6951853.283 6  -5328219.05621
  19512451.6484  -23433026.73448 -18173958.99264
  19854619.9834  -16944642.72747 -12827108.14661
  19046785.601   -27082611.384 7 -20940876.23724
 91  4 12  0 30 29.9950000  0  4G15G 2G13G 6
  22063070.0304   -6951255.48346  -5327753.22261
  19512180.1714  -23434464.16348 -18175079.06664
  19845649.9134  -16991781.61447 -12863839.64461
  19042905.733   -27102995.958 7 -20956760.30523
 91  4 12  0 30 44.9950000  0  4G15G 2G13G 6
  22063207.8354   -6950524.06545  -5327183.28361
  19511913.8514  -23435862.94448 -18176169.02964
  19836700.6554  -17038805.62847 -12900481.64761
  19039045.265   -27123282.899 7 -20972568.29023
 91  4 12  0 30 59.9950000  0  4G15G 2G13G 6
  22063374.788    -6949646.980 6  -5326499.82121
  19511656.7414  -23437210.79548 -18177219.30364
  19827777.2964  -17085702.17947 -12937024.31961
  19035205.608   -27143459.726 7 -20988290.47923
 91  4 12  0 31 14.9950000  0  4G15G 2G13G 6
  22063567.9054   -6948633.43046  -5325710.03861
  19511409.0234  -23438517.28048 -18178237.34464
  19818874.5074  -17132480.09347 -12973474.55361
  19031385.444   -27163535.547 7 -21003933.96123
 91  4 12  0 31 29.9950000  0  4G15G 2G13G 6
  22063787.460    -6947481.409 5  -5324812.35221
  19511167.4294  -23439780.29748 -18179221.51464
  19809996.4994  -17179137.40047 -13009830.80361
  19027585.194   -27183508.105 7 -21019496.97723
 91  4 12  0 31 44.9950000  0  4G15G 2G13G 6
  22064032.288    -6946192.373 6  -5323807.89921
  19510934.7574  -23441001.04548 -18180172.75264
  19801141.1324  -17225675.02347 -13046093.79861
  19023804.694   -27203378.245 7 -21034980.18923
 91  4 12  0 31 59.9950000  0  4G15G 2G13G 6
  22064302.062    -6944761.844 6  -5322693.18821
  19510711.6714  -23442174.83848 -18181087.40064
  19792309.1634  -17272088.26947 -13082259.88161
  19020043.632   -27223141.220 7 -21050379.89523
 91  4 12  0 32 14.9950000  0  4G15G 2G13G 6
  22064603.7024   -6943193.04145  -5321470.73961
  19510498.1484  -23443305.07648 -18181968.10564
  19783498.9054  -17318380.35047 -13118331.54361
  19016302.319   -27242800.168 7 -21065698.54423
 91  4 12  0 32 29.9950000  0  4G15G 2G13G 6
  22064930.7734   -6941489.48045  -5320143.28561
  19510289.5234  -23444395.20648 -18182817.55464
  19774712.4764  -17364554.40547 -13154311.24061
  19012580.593   -27262358.203 7 -21080938.55923
 91  4 12  0 32 44.9950000  0  4G15G 2G13G 6
  22065280.108    -6939647.786 5  -5318708.19221
  19510089.4444  -23445442.02748 -18183633.26064
  19765948.398   -17410606.871 7 -13190196.19621
  19008878.179   -27281811.830 7 -21096097.21523
 91  4 12  0 32 59.9950000  0  4G15G 2G13G 6
  22065655.3274   -6937664.45645  -5317162.73661
  19509898.8044  -23446441.72848 -18184412.24764
  19757210.101   -17456533.938 7 -13225983.43521
  19005197.140   -27301156.991 7 -21111171.35223
 91  4 12  0 33 14.9950000  0  4G15G 2G13G 6
  22066062.4134   -6935539.98545  -5315507.29061
  19509717.0694  -23447394.71948 -18185154.84064
  19748493.6164  -17502336.00747 -13261673.27661
  19001536.241   -27320394.013 7 -21126161.22923
 91  4 12  0 33 29.9950000  0  4G15G 2G13G 6
  22066492.3354   -6933280.33545  -5313746.52261
  19509544.7024  -23448306.88948 -18185865.62364
  19739801.382   -17548018.655 7 -13297270.06321
  18997894.944   -27339528.516 7 -21141071.21724
 91  4 12  0 33 44.9950000  0  4G15G 2G13G 6
  22066947.0624   -6930880.63345  -5311876.62861
  19509379.9524  -23449173.52148 -18186540.92564
  19731130.4994  -17593576.88447 -13332769.89861
  18994273.507   -27358555.459 7 -21155897.39423
 91  4 12  0 33 59.9950000  0  4G15G 2G13G 6
  22067428.3354   -6928345.25845  -5309900.99861
  19509224.6244  -23449999.09548 -18187184.22864
  19722485.640   -17639014.864 7 -13368176.03421
  18990673.1244  -27377479.05747 -21170643.04663
 91  4 12  0 34 14.9950000  0  4G15G 2G13G 6
  22067935.2334   -6925670.90245  -5307817.08161
  19509075.5694  -23450779.72848 -18187792.51664
  19713862.3274  -17684328.70047 -13403485.43361
  18987091.7184  -27396295.20147 -21185304.96663
 91  4 12  0 34 29.9950000  0  4G15G 2G13G 6
  22068475.194    -6922855.645 6  -5305623.36121
  19508934.6794  -23451513.62048 -18188364.38164
  19705262.171   -17729516.606 7 -13438696.70521
  18983531.6084  -27415002.03247 -21199881.70964
 91  4 12  0 34 44.9950000  0  4G15G 2G13G 6
  22069038.3044   -6919899.95745  -5303320.21361
  19508802.3274  -23452201.23948 -18188900.19164
  19696687.898   -17774578.580 7 -13473809.85121
  18979993.1484  -27433599.57847 -21214373.29464
 91  4 12  0 34 59.9950000  0  4G15G 2G13G 6
  22069620.1794   -6916804.59845  -5300908.24761
  19508682.4134  -23452843.30348 -18189400.50664
  19688136.140   -17819515.213 7 -13508825.32621
  18976475.7104  -27452088.42847 -21228780.18164
 91  4 12  0 35 14.9950000  0  4G15G 2G13G 6
  22070242.030    -6913569.785 5  -5298387.59621
  19508568.6944  -23453440.07748 -18189865.52964
  19679608.905   -17864326.559 7 -13543743.17721
  18972976.148   -27470468.533 7 -21243102.33124
 91  4 12  0 35 29.9950000  0  4G15G 2G13G 6
  22070880.7804   -6910198.96645  -5295760.99661
  19508461.7184  -23453994.70348 -18190297.71364
  19671104.882   -17909015.670 7 -13578565.77621
  18969500.296   -27488742.933 7 -21257342.10923
 91  4 12  0 35 44.9950000  0  4G15G 2G13G 6
  22071549.0694   -6906689.61345  -5293026.45061
  19508365.2104  -23454504.74748 -18190695.15764
  19662624.116   -17953579.817 7 -13613291.00821
  18966042.874   -27506908.856 7 -21271497.36223
 91  4 12  0 35 59.9950000  0  4G15G 2G13G 6
  22072247.3354   -6903039.26546  -5290182.01861
  19508277.3434  -23454967.54448 -18191055.78764
  19654167.952   -17998016.299 7 -13647916.76021
  18962607.601   -27524963.261 7 -21285565.71923
 91  4 12  0 36 14.9950000  0  4G15G 2G13G 6
  22072960.7414   -6899258.22745  -5287235.75361
  19508197.3584  -23455393.48648 -18191387.69864
  19645733.827   -18042335.152 7 -13682450.85521
  18959191.2884  -27542916.43147 -21299555.18563
 91  4 12  0 36 29.9950000  0  4G15G 2G13G 6
  22073707.5774   -6895335.44845  -5284179.04161
  19508125.5234  -23455771.09548 -18191681.94464
  19637325.038   -18086525.129 7 -13716884.52421
  18955795.030   -27560756.810 7 -21313456.76523
 91  4 12  0 36 44.9950000  0  4G15G 2G13G 6
  22074481.241    -6891273.733 5  -5281014.06021
  19508060.6794  -23456103.44048 -18191940.92264
  19628940.2104  -18130588.77847 -13751219.74861
  18952422.663   -27578487.058 7 -21327272.52923
 91  4 12  0 36 59.9950000  0  4G15G 2G13G 6
  22075282.648    -6887084.020 5  -5277749.32921
  19508005.2654  -23456401.26448 -18192172.99864
  19620576.866   -18174536.697 7 -13785464.80622
  18949067.437   -27596117.684 7 -21341010.66823
 91  4 12  0 37 14.9950000  0  4G15G 2G13G 6
  22076106.3194   -6882750.79845  -5274372.78861
  19507956.937   -23456648.809 8 -18192365.90424
  19612240.023   -18218353.248 7 -13819607.49621
  18945733.4294  -27613632.85347 -21354658.84263
 91  4 12  0 37 29.9950000  0  4G15G 2G13G 6
  22076954.9524   -6878278.74145  -5270888.07461
  19507918.0154  -23456850.80748 -18192523.31164
  19603924.983   -18262042.665 7 -13853651.11921
  18942421.093   -27631036.898 7 -21368220.42523
 91  4 12  0 37 44.9950000  0  4G15G 2G13G 6
  22077831.1634   -6873675.07345  -5267300.80061
  19507887.9604  -23457014.43048
  19595633.968   -18305611.883 7 -13887601.07821
  18939129.6794  -27648336.84347 -21381700.89263
 91  4 12  0 37 59.9950000  0  4G15G 2G13G 6
  22078734.1244   -6868926.70045  -5263600.76761
  19507868.999   -23457126.792 8
  19587368.413   -18349047.971 7 -13921447.30722
  18935859.5544  -27665519.56947 -21395090.02163
 91  4 12  0 38 14.9950000  0  4G15G 2G13G 6
  22079666.8434   -6864037.38345  -5259790.91561
  19507852.999   -23457191.292 8
  19579126.351   -18392354.296 7 -13955192.41621
  18932611.569   -27682588.332 7 -21408390.34023
 91  4 12  0 38 29.9950000  0  4G15G 2G13G 6
  22080625.0694   -6859010.69245  -5255874.02061
  19507849.015   -23457211.268 8
  19570910.554   -18435533.912 7 -13988838.79721
  18929385.4134  -27699546.21847 -21421604.26963
 91  4 12  0 38 44.9950000  0  4G15G 2G13G 6
  22081603.1634   -6853849.31045  -5251852.16261
  19507855.226   -23457189.448 8
  19562716.483   -18478589.632 7 -14022388.62522
  18926178.6244  -27716395.77547 -21434733.78063
 91  4 12  0 38 59.9950000  0  4G15G 2G13G 6
  22082612.3514   -6848553.61645  -5247725.65361
  19507868.851   -23457126.044 8
  19554547.601   -18521521.444 7 -14055841.91122
  18922992.2334  -27733136.83747 -21447778.76563
 91  4 12  0 39 14.9950000  0  4G15G 2G13G 6
  22083646.827    -6843113.325 5  -5243486.47621
  19507888.663   -23457010.801 8
  19546402.913   -18564318.653 7 -14089190.30522
  18919830.2184  -27749758.98347 -21460731.07963
 91  4 12  0 39 29.9950000  0  4G15G 2G13G 6
  22084705.2884   -6837538.61845  -5239142.54061
  19507915.7184  -23456853.72648
  19538283.733   -18606991.420 7 -14122441.73222
  18916688.0624  -27766272.04347 -21473598.38763
 91  4 12  0 39 44.9950000  0  4G15G 2G13G 6
  22085795.4914   -6831825.75845  -5234690.96661
  19507954.8824  -23456651.10248
  19530186.710   -18649536.016 7 -14155593.28921
  18913567.6634  -27782672.10947 -21486377.65363
 91  4 12  0 39 59.9950000  0  4G15G 2G13G 6
  22086907.773    -6825979.876 5  -5230135.74921
  19508003.6324  -23456407.72348 -18192178.13064
  19522113.835   -18691956.789 7 -14188648.36122
  18910467.4374  -27798963.61547 -21499072.32063
 91  4 12  0 40 14.9950000  0  4G15G 2G13G 6
  22088044.351    -6819998.054 5  -5225474.60521
  19508058.7414  -23456120.49448 -18191954.32064
  19514065.866   -18734250.513 7 -14221604.43522
  18907387.6084  -27815143.45147 -21511679.97863
 91  4 12  0 40 29.9950000  0  4G15G 2G13G 6
  22089210.8984   -6813876.52746  -5220704.58861
  19508123.4134  -23455785.80548 -18191693.52864
  19506043.398   -18776413.466 7 -14254458.60622
  18904330.9684  -27831207.60347 -21524197.49463
 91  4 12  0 40 44.9950000  0  4G15G 2G13G 6
  22090400.2414   -6807627.60345  -5215835.29361
  19508194.4374  -23455415.89348 -18191405.28864
  19498041.421   -18818457.878 7 -14287220.40522
  18901294.366   -27847168.159 7 -21536634.27723
 91  4 12  0 40 59.9950000  0  4G15G 2G13G 6
  22091617.7804   -6801239.81845  -5210857.80861
  19508272.2804  -23454999.13648 -18191080.54264
  19490066.452   -18860371.773 7 -14319880.50122
  18898278.1874  -27863013.23247 -21548981.07963
 91  4 12  0 41 14.9950000  0  4G15G 2G13G 6
  22092860.5464   -6794706.35246  -5205766.79161
  19508359.5544  -23454528.57248 -18190713.87464
  19482115.335   -18902147.806 7 -14352433.18622
  18895286.5934  -27878735.54147 -21561232.22263
 91  4 12  0 41 29.9950000  0  4G15G 2G13G 6
  22094131.7884   -6788036.17745  -5200569.26261
  19508459.8434  -23454012.94848 -18190312.09764
  19474190.9374  -18943794.94047 -14384885.42362
  18892316.7414  -27894343.88347 -21573394.55663
 91  4 12  0 41 44.9950000  0  4G15G 2G13G 6
  22095423.2654   -6781232.42845  -5195267.65161
  19508566.1634  -23453455.37048 -18189877.62964
  19466289.3824  -18985315.99947 -14417239.42762
  18889367.9374  -27909840.96347 -21585470.19463
 91  4 12  0 41 59.9950000  0  4G15G 2G13G 6
  22096744.3044   -6774293.13445  -5189860.42261
  19508679.3744  -23452853.67848 -18189408.78564
  19458412.116   -19026709.029 7 -14449493.66122
  18886440.4134  -27925224.68447 -21597457.49963
 91  4 12  0 42 14.9950000  0  4G15G 2G13G 6
  22098089.2574   -6767217.85845  -5184347.21561
  19508802.0854  -23452207.20248 -18188905.04764
  19450560.7494  -19067973.23247 -14481647.51562
  18883533.7734  -27940494.12047 -21609355.75763
 91  4 12  0 42 29.9950000  0  4G15G 2G13G 6
  22099459.8124   -6760013.56146  -5178733.48261
  19508934.0544  -23451523.10648 -18188371.99564
  19442730.968   -19109115.356 7 -14513706.24522
  18880649.4374  -27955655.91547 -21621170.13463
 91  4 12  0 42 44.9950000  0  4G15G 2G13G 6
  22100858.6484   -6752670.94146  -5173011.96461
  19509072.7654  -23450792.00148 -18187802.31264
  19434926.835   -19150125.969 7 -14545662.49122
  18877786.7494  -27970700.73047 -21632893.35963
 91  4 12  0 42 59.9950000  0  4G15G 2G13G 6
  22102282.1714   -6745195.80946  -5167187.18661
  19509219.8354  -23450019.49048 -18187200.36264
  19427147.3664  -19191010.59347 -14577520.57362
  18874944.7264  -27985633.93847 -21644529.62363
 91  4 12  0 43 14.9950000  0  4G15G 2G13G 6
  22103728.4294   -6737582.49445  -5161254.73761
  19509375.4054  -23449199.76648 -18186561.62064
  19419391.491   -19231763.086 7 -14609275.69122
  18872124.3194  -28000449.41347 -21656074.14563
 91  4 12  0 43 29.9940000  0  4G15G 2G13G 6
  22105205.549    -6729838.806 6  -5155220.69621
  19509538.4944  -23448339.83648 -18185891.55264
  19411660.9634  -19272387.62647 -14640931.10862
  18869326.9244  -28015152.98947 -21667531.47063
 91  4 12  0 43 44.9940000  0  4G15G 2G13G 6
  22106699.479    -6721963.001 5  -5149083.70621
  19509710.6274  -23447438.74848 -18185189.41664
  19403953.5334  -19312888.87147 -14672490.45362
  18866550.4714  -28029745.68747 -21678902.39963
 91  4 12  0 43 59.9940000  0  4G15G 2G13G 6
  22108227.6194   -6713949.19045  -5142839.19161
  19509890.8614  -23446490.23748 -18184450.32564
  19396271.8224  -19353257.45947 -14703946.43062
  18863795.0724  -28044219.98847 -21690181.07263
 91  4 12  0 44 14.9940000  0  4G15G 2G13G 6
  22109776.8384   -6705804.16945  -5136492.41661
  19510078.4474  -23445500.87048 -18183679.39964
  19388614.6664  -19393499.99347 -14735304.18362
  18861062.4004  -28058582.12447 -21701372.34563
 91  4 12  0 44 29.9940000  0  4G15G 2G13G 6
  22111353.8934   -6697526.49445  -5130042.27561
  19510275.8544  -23444469.12348 -18182875.44864
  19380981.4404  -19433614.65547 -14766562.29462
  18858350.3074  -28072830.40147 -21712474.89063
 91  4 12  0 44 44.9940000  0  4G15G 2G13G 6
  22112951.0724   -6689116.01045  -5123488.66161
  19510478.9084  -23443394.76948 -18182038.29364
  19373371.8544  -19473601.40747 -14797720.73162
  18855661.3774  -28086964.47847 -21723488.44863
 91  4 12  0 44 59.9940000  0  4G15G 2G13G 6
  22114581.838    -6680573.434 5  -5116832.11321
  19510692.338   -23442278.225 8 -18181168.27324
  19365786.0654  -19513460.41947 -14828779.63562
  18852994.7684  -28100984.47647 -21734413.12263
 91  4 12  0 45 14.9940000  0  4G15G 2G13G 6
  22116230.2914   -6671898.02945  -5110072.04861
  19510912.2524  -23441118.61648 -18180264.69164
  19358226.1744  -19553190.61747 -14859738.16162
  18850348.0494  -28114889.42047 -21745248.13863
 91  4 12  0 45 29.9940000  0  4G15G 2G13G 6
  22117906.7214   -6663085.96945  -5103205.52061
  19511142.8614  -23439912.21848 -18179324.65064
  19350690.4474  -19592788.07347 -14890593.25662
  18847724.8774  -28128675.16747 -21755990.26963
 91  4 12  0 45 44.9940000  0  4G15G 2G13G 6
  22119609.5414   -6654143.10245  -5096237.06061
  19511380.1114  -23438664.65248 -18178352.53264
  19343179.5574  -19632258.53747 -14921349.39762
  18845122.5494  -28142347.35447 -21766643.92063
 91  4 12  0 45 59.9940000  0  4G15G 2G13G 6
  22121335.2914   -6645062.37645  -5089161.17161
  19511626.4004  -23437368.57048 -18177342.60764
  19335694.7054  -19671594.63547 -14952000.83762
  18842545.1904  -28155898.48347 -21777203.23463
 91  4 12  0 46 14.9940000  0  4G15G 2G13G 6
  22123089.986    -6635847.752 5  -5081980.96021
  19511882.1434  -23436027.77348 -18176297.84164
  19328234.5184  -19710799.95847 -14982550.37562
  18839988.7524  -28169332.13047 -21787671.00863
 91  4 12  0 46 29.9940000  0  4G15G 2G13G 6
  22124866.5724   -6626503.06945  -5074699.38361
  19512144.908   -23434645.828 8 -18175221.01424
  19320796.6194  -19749877.98347 -15013000.72762
  18837454.0104  -28182651.73447 -21798049.91963
 91  4 12  0 46 44.9940000  0  4G15G 2G13G 6
  22126671.705    -6617022.939 5  -5067312.28221
  19512416.2364  -23433217.62248 -18174108.13364
  19313386.1664  -19788823.28947 -15043347.65662
  18834941.9714  -28195851.87847 -21808335.74063
 91  4 12  0 46 59.9940000  0  4G15G 2G13G 6
  22128500.8074   -6607414.78445  -5059825.40361
  19512695.6194  -23431750.34148 -18172964.80464
  19305998.9864  -19827642.85947 -15073596.60562
  18832450.8854  -28208939.51447 -21818533.88963
 91  4 12  0 47 14.9940000  0  4G15G 2G13G 6
  22130356.400    -6597668.930 5  -5052231.24121
  19512983.8854  -23430233.84048 -18171783.12364
  19298638.4864  -19866326.82647 -15103739.89562
  18829983.7444  -28221904.44447 -21828636.42763
 91  4 12  0 47 29.9940000  0  4G15G 2G13G 6
  22132232.7214   -6587789.64745  -5044533.10861
  19513281.6044  -23428672.39848 -18170566.42664
  19291301.5104  -19904879.33447 -15133780.74862
  18827539.0494  -28234750.71047 -21838646.50063
 91  4 12  0 47 44.9940000  0  4G15G 2G13G 6
  22134140.705    -6577780.846 5  -5036734.03721
  19513585.5574  -23427069.86548 -18169317.70764
  19283988.5334  -19943303.87247 -15163721.88462
  18825116.7524  -28247481.94747 -21848566.93863
 91  4 12  0 47 59.9940000  0  4G15G 2G13G 6
  22136067.3464   -6567637.22045  -5028829.90861
  19513900.1274  -23425420.81148 -18168032.74164
  19276703.1824  -19981594.72047 -15193558.84662
  18822716.5414  -28260092.52547 -21858393.35763
 91  4 12  0 48 14.9940000  0  4G15G 2G13G 6
  22138023.1044   -6557369.77645  -5020829.31661
  19514221.4324  -23423735.86948 -18166719.81364
  19269438.4004  -20019762.61447 -15223299.99762
  18820338.0184  -28272592.80547 -21868133.82563
 91  4 12  0 48 29.9940000  0  4G15G 2G13G 6
  22140003.7134   -6546963.31845  -5012720.38561
  19514552.8464  -23421999.80048 -18165367.04164
  19262203.0574  -20057792.43147 -15252933.56262
  18817982.3224  -28284967.43347 -21877776.38463
 91  4 12  0 48 44.9940000  0  4G15G 2G13G 6
  22142010.4324   -6536422.48845  -5004506.77261
  19514891.3774  -23420217.13148 -18163977.96164
  19254991.5964  -20095688.41547 -15282462.83562
  18815650.9634  -28297220.72347 -21887324.39463
 91  4 12  0 48 59.9940000  0  4G15G 2G13G 6
  22144039.9554   -6525748.08445  -4996189.03961
  19515238.5964  -23418388.58548 -18162553.12764
  19247805.2914  -20133451.43247 -15311888.49762
  18813342.5184  -28309353.36547 -21896778.39263
 91  4 12  0 49 14.9940000  0  4G15G 2G13G 6
  22146096.6744   -6514944.24145  -4987770.47661
  19515593.3934  -23416518.02148 -18161095.55764
  19240644.1584  -20171085.28047 -15341213.51762
  18811055.9404  -28321368.96347 -21906141.18663
 91  4 12  0 49 29.9940000  0  4G15G 2G13G 6
  22148178.2524   -6504002.58645  -4979244.51461
  19515959.033   -23414596.722 8 -18159598.45524
  19233508.7604  -20208581.08447 -15370430.96962
  18808793.5964  -28333258.72947 -21915405.93163
 91  4 12  0 49 44.9940000  0  4G15G 2G13G 6
  22150289.150    -6492932.743 5  -4970618.66121
  19516332.5494  -23412634.10348 -18158069.15164
  19226397.5574  -20245948.03047 -15399548.00662
  18806553.463   -28345031.835 7 -21924579.77023
 91  4 12  0 49 59.9940000  0  4G15G 2G13G 6
  22152416.2444   -6481730.21745  -4961889.42761
  19516715.1824  -23410626.04248 -18156504.43964
  19219311.6194  -20283182.08647 -15428561.50162
  18804336.283   -28356683.961 7 -21933659.33623
 91  4 12  0 50 14.9940000  0  4G15G 2G13G 6
  22154571.5884   -6470399.42745  -4953060.23261
  19517107.057   -23408576.407 8 -18154907.33224
  19212251.4554  -20320286.88047 -15457474.26662
  18802140.3224  -28368218.82647 -21942647.53263
 91  4 12  0 50 29.9940000  0  4G15G 2G13G 6
  22156753.783    -6458939.600 5  -4944130.51321
  19517503.744   -23406484.387 8 -18153277.20124
  19205214.9554  -20357261.66547 -15486285.72962
  18799968.1434  -28379635.41647 -21951543.56963
 91  4 12  0 50 44.9940000  0  4G15G 2G13G 6
  22158958.6114   -6447351.43645  -4935100.78861
  19517909.1974  -23404350.17748 -18151614.19164
  19198203.3224  -20394106.37747 -15514995.83262
  18797818.2684  -28390933.77647 -21960347.47163
 91  4 12  0 50 59.9940000  0  4G15G 2G13G 6
  22161188.5964   -6435633.72545  -4925970.10861
  19518325.9164  -23402172.31748 -18149917.16564
  19191217.2994  -20430819.64547 -15543603.51462
  18795690.900   -28402112.342 7 -21969058.03023
 91  4 12  0 51 14.9940000  0  4G15G 2G13G 6
  22163444.0414   -6423782.29645  -4916735.22361
  19518748.619   -23399946.463 8 -18148182.74524
  19184256.8384  -20467397.17247 -15572105.42562
  18793587.0104  -28413166.66147 -21977671.77663
 91  4 12  0 51 29.9940000  0  4G15G 2G13G 6
  22165724.885    -6411801.891 5  -4907399.87521
  19519178.7994  -23397677.64848 -18146414.84964
  19177321.0724  -20503843.77247 -15600505.31162
  18791505.7524  -28424101.27847 -21986192.25363
 91  4 12  0 51 44.9940000  0  4G15G 2G13G 6
  22168029.908    -6399687.633 5  -4897960.17521
  19519620.5884  -23395360.83748 -18144609.54964
  19170411.9474  -20540154.10547 -15628799.01562
  18789450.5104  -28434911.12047 -21994615.48963
 91  4 12  0 51 59.9940000  0  4G15G 2G13G 6
  22170358.9244   -6387444.24745  -4888419.88561
  19520069.3074  -23393000.27148 -18142770.15864
  19163527.6824  -20576332.53647 -15656989.94162
  18787415.4944  -28445600.29847 -22002944.71563
 91  4 12  0 52 14.9940000  0  4G15G 2G13G 6
  22172716.9864   -6375069.11345  -4878776.93561
  19520527.838   -23390593.108 8 -18140894.46024
  19156669.3614  -20612376.40547 -15685076.01162
  18785404.7364  -28456165.91147 -22011177.64963
 91  4 12  0 52 29.9940000  0  4G15G 2G13G 6
  22175092.096    -6362564.698 5  -4869033.25321
  19520995.275   -23388141.897 8 -18138984.43824
  19149834.7134  -20648288.06047 -15713059.05662
  18783416.8544  -28466610.49147 -22019316.28163
 91  4 12  0 52 44.9940000  0  4G15G 2G13G 6
  22177495.2834   -6349932.43845  -4859189.93961
  19521469.3464  -23385647.71148 -18137040.92764
  19143024.5964  -20684068.55247 -15740939.89962
  18781452.4084  -28476934.72147 -22027361.12363
 91  4 12  0 52 59.9940000  0  4G15G 2G13G 6
  22179927.2294   -6337162.31745  -4849239.20661
  19521953.6974  -23383100.43148 -18135056.04564
  19136243.9244  -20719707.61847 -15768710.54162
  18779513.8464  -28487128.36747 -22035304.21963
 91  4 12  0 53 14.9940000  0  4G15G 2G13G 6
  22182379.4404   -6324269.09845  -4839192.54661
  19522445.0654  -23380514.62648 -18133041.14464
  19129485.4554  -20755219.53747 -15796382.10962
  18777595.0024  -28497205.69347 -22043156.67563
 91  4 12  0 53 29.9940000  0  4G15G 2G13G 6
  22184861.393    -6311246.744 5  -4829045.28721
  19522946.080   -23377883.980 7 -18130991.30624
  19122753.4404  -20790598.04347 -15823949.72062
  18775701.1904  -28507160.39847 -22050913.58963
 91  4 12  0 53 44.9940000  0  4G15G 2G13G 6
  22187359.4554   -6298099.03845  -4818800.32861
  19523454.6114  -23375212.26247 -18128909.45964
  19116045.557   -20825846.912 7 -15851416.31922
  18773829.1664  -28516995.91847 -22058577.62663
 91  4 12  0 53 59.9940000  0  4G15G 2G13G 6
  22189887.330    -6284823.790 5  -4808455.99421
  19523972.3304  -23372496.79547 -18126793.52264
  19109362.7134  -20860963.41447 -15878779.76962
  18771980.7524  -28526709.54347 -22066146.67563
 91  4 12  0 54 14.9940000  0  4G15G 2G13G 6
  22192435.4864   -6271419.06745  -4798010.75161
  19524496.408   -23369735.480 7 -18124641.85824
  19102705.7604  -20895945.54747 -15906038.51562
  18770155.6274  -28536299.10047 -22073619.05463
 91  4 12  0 54 29.9940000  0  4G15G 2G13G 6
  22195013.033    -6257878.406 5  -4787459.61321
  19525032.3304  -23366921.95847 -18122449.51464
  19096075.979   -20930786.890 7 -15933187.56422
  18768356.3154  -28545757.94547 -22080989.57663
 91  4 12  0 54 44.9940000  0  4G15G 2G13G 6
  22197615.002    -6244203.008 5  -4776803.46821
  19525578.549   -23364056.886 7 -18120217.00424
  19089472.807   -20965488.026 7 -15960227.35522
  18766581.1114  -28555086.63947 -22088258.68563
 91  4 12  0 54 59.9940000  0  4G15G 2G13G 6
  22200243.236    -6230403.057 5  -4766050.28021
  19526129.8224  -23361150.47947 -18117952.28464
  19082894.307   -21000058.843 7 -15987165.60022
  18764828.6744  -28564295.24947 -22095434.22563
 91  4 12  0 55 14.9940000  0  4G15G 2G13G 6
  22202894.2054   -6216477.68845  -4755199.34161
  19526691.9944  -23358201.63147 -18115654.49464
  19076340.549   -21034498.297 7 -16014001.49022
  18763099.7364  -28573382.52547 -22102515.22063
 91  4 12  0 55 29.9940000  0  4G15G 2G13G 6
  22205566.111    -6202427.611 5  -4744251.25321
  19527261.440   -23355210.419 7 -18113323.68724
  19069811.924   -21068806.507 7 -16040735.10322
  18761393.3384  -28582348.56547 -22109501.74163
 91  4 12  0 55 44.9940000  0  4G15G 2G13G 6
  22208264.4634   -6188254.07145  -4733206.94361
  19527838.619   -23352178.380 7 -18110961.07424
  19063307.932   -21102984.930 7 -16067367.58722
  18759708.8934  -28591194.54847 -22116394.71863
 91  4 12  0 55 59.9940000  0  4G15G 2G13G 6
  22210985.1114   -6173946.09345  -4722057.86361
  19528424.963   -23349094.288 7 -18108557.89724
  19056830.815   -21137022.659 7 -16093890.43922
  18758051.0804  -28599909.23747 -22123185.38563
 91  4 12  0 56 14.9940000  0  4G15G 2G13G 6
  22213732.3934   -6159513.63745  -4710811.80561
  19529020.416   -23345967.807 7 -18106121.69124
  19050378.8694  -21170928.81847 -16120310.76562
  18756416.3304  -28608502.04747 -22129881.07763
 91  4 12  0 56 29.9940000  0  4G15G 2G13G 6
  22216502.1044   -6144950.14345  -4699463.63261
  19529625.3224  -23342792.22747 -18103647.22064
  19043952.947   -21204696.772 7 -16146623.40222
  18754804.8224  -28616966.07647 -22136476.42563
 91  4 12  0 56 44.9940000  0  4G15G 2G13G 6
  22219297.971    -6130256.187 5  -4688013.81121
  19530237.9004  -23339567.79047 -18101134.68064
  19037553.6664  -21238326.86147 -16172828.60762
  18753218.7134  -28625301.48947 -22142971.55563
 91  4 12  0 56 59.9940000  0  4G15G 2G13G 6
  22222120.7604   -6115435.55345  -4676465.27161
  19530860.025   -23336298.216 7 -18098586.97624
  19031178.861   -21271822.738 7 -16198929.23522
  18751656.7604  -28633512.00847 -22149369.36763
 91  4 12  0 57 14.9940000  0  4G15G 2G13G 6
  22224966.4084   -6100486.98645  -4664817.05261
  19531491.4864  -23332982.16947 -18096003.05364
  19024830.9324  -21305182.94547 -16224924.14262
  18750118.5804  -28641595.83647 -22155668.45763
 91  4 12  0 57 29.9940000  0  4G15G 2G13G 6
  22227832.3224   -6085408.81045  -4653067.83661
  19532131.744   -23329617.445 7 -18093381.20424
  19018508.6904  -21338405.39847 -16250811.71062
  18748605.9244  -28649550.91947 -22161867.22363
 91  4 12  0 57 44.9940000  0  4G15G 2G13G 6
  22230726.416    -6070208.322 5  -4641223.31621
  19532779.518   -23326211.292 7 -18090727.06624
  19012211.0724  -21371497.24547 -16276597.51062
  18747114.5184  -28657384.33147 -22167971.18063
 91  4 12  0 57 59.9940000  0  4G15G 2G13G 6
  22233645.268    -6054877.313 5  -4629277.08721
  19533437.7914  -23322755.26047 -18088034.07164
  19005941.1434  -21404449.87947 -16302274.82762
  18745648.1504  -28665087.34947 -22173973.53563
 91  4 12  0 58 14.9940000  0  4G15G 2G13G 6
  22236585.580    -6039422.549 5  -4617234.42321
  19534103.8464  -23319255.74847 -18085307.18764
  18999694.057   -21437269.783 7 -16327848.72522
  18744206.4794  -28672666.22747 -22179879.15463
 91  4 12  0 58 29.9940000  0  4G15G 2G13G 6
  22239548.7684   -6023844.35145  -4605095.58361
  19534776.7294  -23315712.84647 -18082546.49564
  18993474.525   -21469956.812 7 -16353319.08222
  18742788.5104  -28680120.89147 -22185687.98663
 91  4 12  0 58 44.9940000  0  4G15G 2G13G 6
  22242539.2834   -6008141.12345  -4592859.32361
  19535459.643   -23312124.627 7 -18079750.49624
  18987280.315   -21502509.371 7 -16378684.66022
  18741393.9084  -28687449.38447 -22191398.49963
 91  4 12  0 58 59.9940000  0  4G15G 2G13G 6
  22245550.713    -5992306.848 5  -4580520.92621
  19536152.791   -23308485.219 7 -18076914.60624
  18981112.432   -21534921.386 7 -16403940.72222
  18740024.1114  -28694645.84147 -22197006.13063
 91  4 12  0 59 14.9940000  0  4G15G 2G13G 6
  22248587.5654   -5976348.36645  -4568085.76661
  19536853.2994  -23304801.15247 -18074043.91664
  18974970.400   -21567199.584 7 -16429092.50922
  18738678.1824  -28701716.63147 -22202515.83663
 91  4 12  0 59 29.9940000  0  4G15G 2G13G 6
  22251648.432    -5960257.393 5  -4555547.35621
  19537564.994   -23301063.722 8 -18071131.64824
  18968854.6044  -21599335.05847 -16454133.08762
  18737359.0254  -28708653.01347 -22207920.81263
 91  4 12  0 59 44.9940000  0  4G15G 2G13G 6
  22254737.1274   -5944042.70245  -4542912.55261
  19538284.885   -23297281.455 7 -18068184.44024
  18962765.729   -21631336.408 7 -16479069.15122
  18736061.8934  -28715463.27447 -22213227.51163
 91  4 12  0 59 59.9940000  0  4G15G 2G13G 6
  22257847.174    -5927700.054 5  -4530178.02721
  19539013.549   -23293450.083 7 -18065198.97024
  18956701.752   -21663199.227 7 -16503897.26322
  18734789.6584  -28722142.81247 -22218432.34663
 91  4 12  1  0 14.9940000  0  4G15G 2G13G 6
  22260981.0804   -5911235.66145  -4517348.67161
  19539751.729   -23289575.799 7 -18062180.06024
  18950663.557   -21694929.814 7 -16528622.35022
  18733543.1274  -28728697.94647 -22223540.24563
 91  4 12  1  0 29.9940000  0  4G15G 2G13G 6
  22264129.893    -5894654.226 5  -4504428.08021
  19540496.096   -23285662.711 7 -18059130.91824
  18944649.518   -21726532.120 7 -16553247.47022
  18732319.9634  -28735132.58847 -22228554.25363
 91  4 12  1  0 44.9940000  0  4G15G 2G13G 6
  22267316.197    -5877948.572 5  -4491410.70821
  19541249.830   -23281703.539 7 -18056045.86624
  18938662.307   -21757999.041 7 -16577767.09922
  18731118.9324  -28741439.31747 -22233468.59063
 91  4 12  1  0 59.9940000  0  4G15G 2G13G 6
  22270514.440    -5861121.013 5  -4478298.33421
  19542011.611   -23277700.133 7 -18052926.34324
  18932699.252   -21789332.473 7 -16602182.70922
  18729943.0104  -28747620.14847 -22238284.82263
 91  4 12  1  1 14.9940000  0  4G15G 2G13G 6
  22273742.6824   -5844170.05645  -4465089.81661
  19542781.346   -23273651.140 7 -18049771.29924
  18926762.229   -21820530.925 7 -16626493.13622
  18728791.0414  -28753673.04347 -22243001.36463
 91  4 12  1  1 29.9940000  0  4G15G 2G13G 6
  22276989.0414   -5827092.87445  -4451782.94261
  19543561.697   -23269553.160 7 -18046578.08424
  18920852.229   -21851591.026 7 -16650695.76522
  18727663.5494  -28759594.84547 -22247615.75963
 91  4 12  1  1 44.9940000  0  4G15G 2G13G 6
  22280263.0494   -5809894.73345  -4438381.81661
  19544349.143   -23265411.612 7 -18043350.92024
  18914966.8224  -21882518.06347 -16674794.69962
  18726561.9714  -28765390.79247 -22252132.08363
 91  4 12  1  1 59.9940000  0  4G15G 2G13G 6
  22283562.5254   -5792570.21545  -4424882.19161
  19545147.713   -23261220.719 7 -18040085.30524
  18909107.7524  -21913306.30947 -16698785.48862
  18725482.8224  -28771054.92047 -22256545.68963
 91  4 12  1  2 14.9940000  0  4G15G 2G13G 6
  22286878.5724   -5775121.68745  -4411285.96661
  19545955.338   -23256982.277 7 -18036782.64124
  18903274.947   -21943957.526 7 -16722669.50122
  18724429.4474  -28776588.95847 -22260857.93263
 91  4 12  1  2 29.9940000  0  4G15G 2G13G 6
  22290226.2524   -5757549.97445  -4397593.73761
  19546768.986   -23252697.051 7 -18033443.51824
  18897468.150   -21974472.693 7 -16746447.50422
  18723402.7444  -28781993.66447 -22265069.38863
 91  4 12  1  2 44.9940000  0  4G15G 2G13G 6
  22293589.1504   -5739861.50745  -4383810.53461
  19547592.533   -23248371.282 7 -18030072.80724
  18891685.3774  -22004857.80547 -16770124.15962
  18722397.1824  -28787275.10347 -22269184.79763
 91  4 12  1  2 59.9940000  0  4G15G 2G13G 6
  22296979.979    -5722048.896 5  -4369930.60521
  19548425.166   -23243997.015 7 -18026664.30224
  18885930.736   -22035105.185 7 -16793693.49422
  18721416.0884  -28792425.42347 -22273198.03663
 91  4 12  1  3 14.9940000  0  4G15G 2G13G 6
  22300393.0654   -5704116.51345  -4355957.32061
  19549266.283   -23239578.738 7 -18023221.50824
  18880199.682   -22065219.062 7 -16817158.79922
  18720460.6044  -28797448.75947 -22277112.32063
 91  4 12  1  3 29.9940000  0  4G15G 2G13G 6
  22303831.885    -5686053.169 5  -4341882.00621
  19550117.447   -23235104.958 7 -18019735.46024
  18874496.705   -22095188.147 7 -16840511.28322
  18719531.0804  -28802333.59547 -22280918.68763
 91  4 12  1  3 44.9940000  0  4G15G 2G13G 6
  22307289.096    -5667874.706 5  -4327717.00421
  19550976.252   -23230591.233 7 -18016218.29024
  18868817.893   -22125028.058 7 -16863763.10922
  18718624.9474  -28807095.34047 -22284629.13963
 91  4 12  1  3 59.9940000  0  4G15G 2G13G 6
  22310771.1664   -5649577.09245  -4313459.12861
  19551844.5414  -23226033.25547 -18012666.63164
  18863164.549   -22154734.221 7 -16886910.71422
  18717742.4554  -28811729.59947 -22288240.24863
 91  4 12  1  4 14.9940000  0  4G15G 2G13G 6
  22314276.065    -5631156.177 5  -4299105.18621
  19552720.908   -23221426.554 7 -18009077.01024
  18857538.440   -22184302.314 7 -16909950.73922
  18716885.8224  -28816231.63847 -22291748.33263
 91  4 12  1  4 29.9940000  0  4G15G 2G13G 6
  22317804.9324   -5612612.21445  -4284655.37961
  19553606.057   -23216771.350 7 -18005449.59624
  18851938.080   -22213732.510 7 -16932883.31422
  18716054.5494  -28820601.74647 -22295153.61363
 91  4 12  1  4 44.9940000  0  4G15G 2G13G 6
  22321357.1114   -5593943.08645  -4270108.01961
  19554501.736   -23212065.108 7 -18001782.41024
  18846364.400   -22243022.290 7 -16955706.47122
  18715249.9714  -28824837.22147 -22298453.98263
 91  4 12  1  4 59.9940000  0  4G15G 2G13G 6
  22324934.104    -5575147.355 5  -4255462.00521
  19555407.111   -23207306.058 7 -17998074.07424
  18840817.549   -22272170.131 7 -16978419.02522
  18714470.7054  -28828936.38647 -22301648.14163
 91  4 12  1  5 14.9940000  0  4G15G 2G13G 6
  22328533.385    -5556234.208 5  -4240724.50621
  19556321.932   -23202503.344 7 -17994331.71424
  18835296.182   -22301184.964 7 -17001027.93822
  18713712.0254  -28832908.07947 -22304742.97163
 91  4 12  1  5 29.9940000  0  4G15G 2G13G 6
  22332153.799    -5537198.771 5  -4225891.72921
  19557243.900   -23197651.750 7 -17990551.26724
  18829800.650   -22330061.771 7 -17023529.30122
  18712983.2834  -28836747.02147 -22307734.36163
 91  4 12  1  5 44.9940000  0  4G15G 2G13G 6
  22335802.4474   -5518047.10945  -4210968.35061
  19558175.799   -23192756.855 7 -17986737.08124
  18824330.611   -22358806.105 7 -17045927.43422
  18712276.2754  -28840459.02147 -22310626.83063
 91  4 12  1  5 59.9940000  0  4G15G 2G13G 6
  22339469.1744   -5498768.07245  -4195945.75761
  19559116.932   -23187807.387 7 -17982880.36824
  18818888.330   -22387406.466 7 -17068213.38622
  18711595.7364  -28844032.46447 -22313411.34063
 91  4 12  1  6 14.9940000  0  4G15G 2G13G 6
  22343158.838    -5479369.333 5  -4180829.89021
  19560069.291   -23182810.814 7 -17978986.95424
  18813472.182   -22415870.480 7 -17090393.09222
  18710941.7684  -28847474.65847 -22316093.57863
 91  4 12  1  6 29.9940000  0  3G 2G13G 6
  19561028.908   -23177766.004 7 -17975055.94524
  18808081.525   -22444197.195 7 -17112465.81222
  18710311.4554  -28850784.46147 -22318672.65163
 91  4 12  1  6 44.9940000  0  3G 2G13G 6
  19561997.205   -23172676.445 7 -17971090.07024
  18802716.768   -22472390.298 7 -17134434.41722
  18709705.3774  -28853965.27747 -22321151.21363
 91  4 12  1  6 59.9940000  0  3G 2G13G 6
  19562974.166   -23167536.879 7 -17967085.22824
  18797378.291   -22500444.315 7 -17156294.64622
  18709127.4794  -28857011.62147 -22323524.99563
 91  4 12  1  7 14.9940000  0  3G 2G13G 6
  19563963.197   -23162345.237 7 -17963039.80624
  18792066.924   -22528357.301 7 -17178044.97922
  18708572.7684  -28859921.53947 -22325792.46963
 91  4 12  1  7 29.9940000  0  3G 2G13G 6
  19564959.869   -23157107.752 7 -17958958.66323
  18786780.572   -22556135.670 7 -17199690.41722
  18708043.8854  -28862701.17647 -22327958.43063
 91  4 12  1  7 44.9940000  0  3G 2G13G 6
  19565965.369   -23151822.027 7 -17954839.92924
  18781520.346   -22583776.695 7 -17221228.83222
  18707537.8774  -28865347.94847 -22330020.85863
 91  4 12  1  7 59.9940000  0  3G 2G13G 6
  19566983.065   -23146482.847 7 -17950679.54624
  18776287.643   -22611275.343 7 -17242656.30422
  18707061.4164  -28867856.61147 -22331975.67063
 91  4 12  1  8 14.9940000  0  3G 2G13G 6
  19568006.190   -23141100.231 7 -17946485.31224
  18771080.322   -22638641.642 7 -17263980.64722
  18706608.8854  -28870237.14447 -22333830.63863
 91  4 12  1  8 29.9940000  0  3G 2G13G 6
  19569040.658   -23135665.444 7 -17942250.43224
  18765899.729   -22665866.897 7 -17285195.08422
  18706182.002   -28872480.639 7 -22335578.83223
 91  4 12  1  8 44.9940000  0  3G 2G13G 6
  19570083.3934  -23130188.51147 -17937982.70463
  18760742.947   -22692961.194 7 -17306307.48222
  18705778.4244  -28874597.28747 -22337228.17563
 91  4 12  1  8 59.9940000  0  3G 2G13G 6
  19571134.033   -23124662.107 7 -17933676.43123
  18755613.799   -22719917.023 7 -17327311.97722
  18705401.7054  -28876579.40447 -22338772.68763
 91  4 12  1  9 14.9940000  0  3G 2G13G 6
  19572193.440   -23119087.645 7 -17929332.70624
  18750510.713   -22746736.424 7 -17348210.16422
  18705051.5804  -28878428.62747 -22340213.64863
 91  4 12  1  9 29.9940000  0  3G 2G13G 6
  19573263.416   -23113466.261 7 -17924952.42123
  18745433.041   -22773420.370 7 -17369002.80822
  18704725.9714  -28880145.83047 -22341551.73363
 91  4 12  1  9 44.9940000  0  3G 2G13G 6
  19574344.0414  -23107795.89047 -17920533.95763
  18740381.135   -22799966.851 7 -17389688.33522
  18704423.3934  -28881728.80547 -22342785.22863
